[[{"header":{"parameterUnit":"m.s-1","parameterCategory":1,"la1":31.0,"la2":29.5877,"lo1":-88.7671,"lo2":-86.6584,"dy":0.0162,"dx":0.0185,"nx":115,"ny":88,"refTime":"2023-11-02T18:00:00:Z","depth":0,"parameterNumber":2,"parameterNumberName":"U-component_of_WINDS"},"data":[0.0,0.0,0.0,0.0,0.0,0.0,0.0,0.0,0.0,0.0,0.0,0.0,0.0,0.0,0.0,0.0,0.0,0.0,0.0,0.0,0.0,0.0,0.0,0.0,0.0,0.0,0.0,0.0,0.0,0.0,0.0,0.0,0.0,0.0,0.0,0.0,0.0,0.0,0.0,0.0,0.0,0.0,0.0,0.0,0.0,0.0,0.0,0.0,0.0,0.0,0.0,0.0,0.0,0.0,0.0,0.0,0.0,0.0,0.0,0.0,0.0,0.0,0.0,0.0,0.0,0.0,0.0,0.0,0.0,0.0,0.0,0.0,0.0,0.0,0.0,0.0,0.0,0.0,0.0,0.0,0.0,0.0,0.0,0.0,0.0,0.0,0.0,0.0,0.0,0.0,0.0,0.0,0.0,0.0,0.0,0.0,0.0,0.0,0.0,0.0,0.0,0.0,0.0,0.0,0.0,0.0,0.0,0.0,0.0,0.0,0.0,0.0,0.0,0.0,0.0,0.0,0.0,0.0,0.0,0.0,0.0,0.0,0.0,0.0,0.0,0.0,0.0,0.0,0.0,0.0,0.0,0.0,0.0,0.0,0.0,0.0,0.0,0.0,0.0,0.0,0.0,0.0,0.0,0.0,0.0,0.0,0.0,0.0,0.0,0.0,0.0,0.0,0.0,0.0,0.0,0.0,0.0,0.0,0.0,0.0,0.0,0.0,0.0,0.0,0.0,0.0,0.0,0.0,0.0,0.0,0.0,0.0,0.0,0.0,0.0,0.0,0.0,0.0,0.0,0.0,0.0,0.0,0.0,0.0,0.0,0.0,0.0,0.0,0.0,0.0,0.0,0.0,0.0,0.0,0.0,0.0,0.0,0.0,0.0,0.0,0.0,0.0,0.0,0.0,0.0,0.0,0.0,0.0,0.0,0.0,0.0,0.0,0.0,0.0,0.0,0.0,0.0,0.0,0.0,0.0,0.0,0.0,0.0,0.0,0.0,0.0,0.0,0.0,0.0,0.0,0.0,0.0,0.0,0.0,0.0,0.0,0.0,0.0,0.0,0.0,0.0,0.0,0.0,0.0,0.0,0.0,0.0,0.0,0.0,0.0,0.0,0.0,0.0,0.0,0.0,0.0,0.0,0.0,0.0,0.0,0.0,0.0,0.0,0.0,0.0,0.0,0.0,0.0,0.0,0.0,0.0,0.0,0.0,0.0,0.0,0.0,0.0,0.0,0.0,0.0,0.0,0.0,0.0,0.0,0.0,0.0,0.0,0.0,0.0,0.0,0.0,0.0,0.0,0.0,0.0,0.0,0.0,0.0,0.0,0.0,0.0,0.0,0.0,0.0,0.0,0.0,0.0,0.0,0.0,0.0,0.0,0.0,0.0,0.0,0.0,0.0,0.0,0.0,0.0,0.0,0.0,0.0,0.0,0.0,0.0,0.0,0.0,0.0,0.0,0.0,0.0,0.0,0.0,0.0,0.0,0.0,0.0,0.0,0.0,0.0,0.0,0.0,0.0,0.0,0.0,0.0,0.0,0.0,0.0,0.0,0.0,0.0,0.0,0.0,0.0,0.0,0.0,0.0,0.0,0.0,0.0,0.0,0.0,0.0,0.0,0.0,0.0,0.0,0.0,0.0,0.0,0.0,0.0,0.0,0.0,0.0,0.0,0.0,0.0,0.0,0.0,0.0,0.0,0.0,0.0,0.0,0.0,0.0,0.0,0.0,0.0,0.0,0.0,0.0,0.0,0.0,0.0,0.0,0.0,0.0,0.0,0.0,0.0,0.0,0.0,0.0,0.0,0.0,0.0,0.0,0.0,0.0,0.0,0.0,0.0,0.0,0.0,0.0,0.0,0.0,0.0,0.0,0.0,0.0,0.0,0.0,0.0,0.0,0.0,0.0,0.0,0.0,0.0,0.0,0.0,0.0,0.0,0.0,0.0,0.0,0.0,0.0,0.0,0.0,0.0,0.0,0.0,0.0,0.0,0.0,0.0,0.0,0.0,0.0,0.0,0.0,0.0,0.0,0.0,0.0,0.0,0.0,0.0,0.0,0.0,0.0,0.0,0.0,0.0,0.0,0.0,0.0,0.0,0.0,0.0,0.0,0.0,0.0,0.0,0.0,0.0,0.0,0.0,0.0,0.0,0.0,0.0,0.0,0.0,0.0,0.0,0.0,0.0,0.0,0.0,0.0,0.0,0.0,0.0,0.0,0.0,0.0,0.0,0.0,0.0,0.0,0.0,0.0,0.0,0.0,0.0,0.0,0.0,0.0,0.0,0.0,0.0,0.0,0.0,0.0,0.0,0.0,0.0,0.0,0.0,0.0,0.0,0.0,0.0,0.0,0.0,0.0,0.0,0.0,0.0,0.0,0.0,0.0,0.0,0.0,0.0,0.0,0.0,0.0,0.0,0.0,0.0,0.0,0.0,0.0,0.0,0.0,0.0,0.0,0.0,0.0,0.0,0.0,0.0,0.0,0.0,0.0,0.0,0.0,0.0,0.0,0.0,0.0,0.0,0.0,0.0,0.0,0.0,0.0,0.0,0.0,0.0,0.0,0.0,0.0,0.0,0.0,0.0,0.0,0.0,0.0,0.0,0.0,0.0,0.0,0.0,0.0,0.0,0.0,0.0,0.0,0.0,0.0,0.0,0.0,0.0,0.0,0.0,0.0,0.0,0.0,0.0,0.0,0.0,0.0,0.0,0.0,0.0,0.0,0.0,0.0,0.0,0.0,0.0,0.0,0.0,0.0,0.0,0.0,0.0,0.0,0.0,0.0,0.0,0.0,0.0,0.0,0.0,0.0,0.0,0.0,0.0,0.0,0.0,0.0,0.0,0.0,0.0,0.0,0.0,0.0,0.0,0.0,0.0,0.0,0.0,0.0,0.0,0.0,0.0,0.0,0.0,0.0,0.0,0.0,0.0,0.0,0.0,0.0,0.0,0.0,0.0,0.0,0.0,0.0,0.0,0.0,0.0,0.0,0.0,0.0,0.0,0.0,0.0,0.0,0.0,0.0,0.0,0.0,0.0,0.0,0.0,0.0,0.0,0.0,0.0,0.0,0.0,0.0,0.0,0.0,0.0,0.0,0.0,0.0,0.0,0.0,0.0,0.0,0.0,0.0,0.0,0.0,0.0,0.0,0.0,0.0,0.0,0.0,0.0,0.0,0.0,0.0,0.0,0.0,0.0,0.0,0.0,0.0,0.0,0.0,0.0,0.0,0.0,0.0,0.0,0.0,0.0,0.0,0.0,0.0,0.0,0.0,0.0,0.0,0.0,0.0,0.0,0.0,0.0,0.0,0.0,0.0,0.0,0.0,0.0,0.0,0.0,0.0,0.0,0.0,0.0,0.0,0.0,0.0,0.0,0.0,0.0,0.0,0.0,0.0,0.0,0.0,0.0,0.0,0.0,0.0,0.0,0.0,0.0,0.0,0.0,0.0,0.0,0.0,0.0,0.0,0.0,0.0,0.0,0.0,0.0,0.0,0.0,0.0,0.0,0.0,0.0,0.0,0.0,0.0,0.0,0.0,0.0,0.0,0.0,0.0,0.0,0.0,0.0,0.0,0.0,0.0,0.0,0.0,0.0,0.0,0.0,0.0,0.0,0.0,0.0,0.0,0.0,0.0,0.0,0.0,0.0,0.0,0.0,0.0,0.0,0.0,0.0,0.0,0.0,0.0,0.0,0.0,0.0,0.0,0.0,0.0,0.0,0.0,0.0,0.0,0.0,0.0,0.0,0.0,0.0,0.0,0.0,0.0,0.0,0.0,0.0,0.0,0.0,0.0,0.0,0.0,0.0,0.0,0.0,0.0,0.0,0.0,0.0,0.0,0.0,0.0,0.0,0.0,0.0,0.0,0.0,0.0,0.0,0.0,0.0,0.0,0.0,0.0,0.0,0.0,0.0,0.0,0.0,0.0,0.0,0.0,0.0,0.0,0.0,0.0,0.0,0.0,0.0,0.0,0.0,0.0,0.0,0.0,0.0,0.0,0.0,0.0,0.0,0.0,0.0,0.0,0.0,0.0,0.0,0.0,0.0,0.0,0.0,0.0,0.0,0.0,0.0,0.0,0.0,0.0,0.0,0.0,0.0,0.0,0.0,0.0,0.0,0.0,0.0,0.0,0.0,0.0,0.0,0.0,0.0,0.0,0.0,0.0,0.0,0.0,0.0,0.0,0.0,0.0,0.0,0.0,0.0,0.0,0.0,0.0,0.0,0.0,0.0,0.0,0.0,0.0,0.0,0.0,0.0,0.0,0.0,0.0,0.0,0.0,0.7847,0.0,0.0,0.0,0.0,0.0,0.0,0.0,0.0,0.0,0.0,0.0,0.0,0.0,0.0,0.0,0.0,0.0,0.0,0.0,0.0,0.0,0.0,0.0,0.0,0.0,0.0,0.0,0.0,0.0,0.0,0.0,0.0,0.0,0.0,0.0,0.0,0.0,0.0,0.0,0.0,0.0,0.0,0.0,0.0,0.0,0.0,0.0,0.0,0.0,0.0,0.0,0.0,0.0,0.0,0.0,0.0,0.0,0.0,0.0,0.0,0.0,0.0,0.0,0.0,0.0,0.0,0.0,0.0,0.0,0.0,0.0,0.0,0.0,0.0,0.0,0.0,0.0,0.0,0.0,0.0,0.0,0.0,0.0,0.0,0.0,0.0,0.0,0.0,0.0,0.0,0.0,0.0,0.0,0.0,0.0,0.0,0.0,0.0,0.0,0.0,0.0,0.0,0.0,0.0,0.0,0.0,0.0,0.0,0.0,0.0,0.994,0.9613,0.9007,0.8595,0.8437,0.0,0.0,0.0,0.0,0.0,0.0,0.0,0.0,0.0,0.0,0.0,0.0,0.0,0.0,0.0,0.0,0.0,0.0,0.0,0.0,0.0,0.0,0.0,0.0,0.0,0.0,0.0,0.0,0.0,0.0,0.0,0.0,0.0,0.0,0.0,0.0,0.0,0.0,0.0,0.0,0.0,0.0,0.0,0.0,0.0,0.0,0.0,0.0,0.0,0.0,0.0,0.0,0.0,0.0,0.0,0.0,0.0,0.0,0.0,0.0,0.0,0.0,0.0,0.0,0.0,0.0,0.0,0.0,0.0,0.0,0.0,0.0,0.0,0.0,0.0,0.0,0.0,0.0,0.0,0.0,0.0,0.0,0.0,0.0,0.0,0.0,0.0,0.0,0.0,0.0,0.0,0.0,0.0,0.0,0.0,0.0,0.0,0.0,0.0,0.0,0.0,0.0,0.0,0.0,0.0,0.0,0.0,0.0,0.0,0.0,0.0,0.0,0.9475,0.9021,0.9175,0.0,0.0,0.0,0.0,0.0,0.0,0.0,0.0,0.0,0.0,0.0,0.0,0.0,0.0,0.0,0.0,0.0,0.0,0.0,0.0,0.0,0.0,0.0,0.0,0.0,0.0,0.0,0.0,0.0,0.0,0.0,0.0,0.0,0.0,0.0,0.0,0.0,0.0,0.0,0.0,0.0,0.0,0.0,0.0,0.0,0.0,0.0,0.0,0.0,0.0,0.0,0.0,0.0,0.0,0.0,0.0,0.0,0.0,0.0,0.0,0.0,0.0,0.0,0.0,0.0,0.0,0.0,0.0,0.0,0.0,0.0,0.0,0.0,0.0,0.0,0.0,0.0,0.0,0.0,0.0,0.0,0.0,0.0,0.0,0.0,0.0,0.0,0.0,0.0,0.0,0.0,0.0,0.0,0.0,0.0,0.0,0.0,0.0,0.0,0.0,0.0,0.0,0.0,0.0,0.0,0.0,0.0,0.0,0.0,0.0,1.0275,1.2179,1.0605,0.0,0.9793,0.0,0.0,0.0,0.0,0.0,0.0,0.0,0.0,0.0,0.0,0.0,0.0,0.0,0.0,0.0,0.0,0.0,0.0,0.0,0.0,0.0,0.0,0.0,0.0,0.0,0.0,0.0,0.0,0.0,0.0,0.0,0.0,0.0,0.0,0.0,0.0,0.0,0.0,0.0,0.0,0.0,0.0,0.0,0.0,0.0,0.0,0.0,0.0,0.0,0.0,0.0,0.0,0.0,0.0,0.0,0.0,0.0,0.0,0.0,0.0,0.0,0.0,0.0,0.0,0.0,0.0,0.0,0.0,0.0,0.0,0.0,0.0,0.0,0.0,0.0,0.0,0.0,0.0,0.0,0.0,0.0,0.0,0.0,0.0,0.0,0.0,0.0,0.0,0.0,0.0,0.0,0.0,0.0,0.0,0.0,0.0,0.0,0.0,0.0,0.0,0.0,0.0,0.0,0.0,0.0,0.0,0.0,0.0,0.0,0.0,1.0873,1.2514,1.1489,1.0527,0.0,0.0,0.0,0.0,0.0,0.0,0.0,0.0,0.0,0.0,0.0,0.0,0.0,0.0,0.0,0.0,0.0,0.0,0.0,0.0,0.0,0.0,0.0,0.0,0.0,0.0,0.0,0.0,0.0,0.0,0.0,0.0,0.0,0.0,0.0,0.0,0.0,0.0,0.0,0.0,0.0,0.0,0.0,0.0,0.0,0.0,0.0,0.0,0.0,0.0,0.0,0.0,0.0,0.0,0.0,0.0,0.0,0.0,0.0,0.0,0.0,0.0,0.0,0.0,0.0,0.0,0.0,0.0,0.0,0.0,0.0,0.0,0.0,0.0,0.0,0.0,0.0,0.0,0.0,0.0,0.0,0.0,0.0,0.0,0.0,0.0,0.0,0.0,0.0,0.0,0.0,0.0,0.0,0.0,0.0,0.0,0.0,0.0,0.0,0.0,0.0,0.0,0.0,0.0,0.0,0.0,0.0,0.0,0.0,0.0,1.1049,1.1297,1.2287,1.1508,1.066,0.9836,0.0,0.0,0.0,0.0,0.0,0.0,0.0,0.0,0.0,0.0,0.0,0.0,0.0,0.0,0.0,0.0,0.0,0.0,0.0,0.0,0.0,0.0,0.0,0.0,0.0,0.0,0.0,0.0,0.0,0.0,0.0,0.0,0.0,0.0,0.0,0.0,0.0,0.0,0.0,0.0,0.0,0.0,0.0,0.0,0.0,0.0,0.0,0.0,0.0,0.0,0.0,0.0,0.0,0.0,0.0,0.0,0.0,0.0,0.0,0.0,0.0,0.0,0.0,0.0,0.0,0.0,0.0,0.0,0.0,0.0,0.0,0.0,0.0,0.0,0.0,0.0,0.0,0.0,0.0,0.0,0.0,0.0,0.0,0.0,0.0,0.0,0.0,0.0,0.0,0.0,0.0,0.0,0.0,0.0,0.0,0.0,0.0,0.0,0.0,0.0,0.0,0.0,0.0,0.0,0.0,0.0,0.0,0.0,1.4592,1.2492,1.1492,1.1883,1.0314,0.9775,0.0,0.0,0.0,0.0,0.0,0.0,0.0,0.0,0.0,0.0,0.0,0.0,0.0,0.0,0.0,0.0,0.0,0.0,0.0,0.0,0.0,0.0,0.0,0.0,0.0,0.0,0.0,0.0,0.0,0.0,0.0,0.0,0.0,0.0,0.0,0.0,0.0,0.0,0.0,0.0,0.0,0.0,0.0,0.0,0.0,0.0,0.0,0.0,0.0,0.0,0.0,0.0,0.0,0.0,0.0,0.0,0.0,0.0,0.0,0.0,0.0,0.0,0.0,0.0,0.0,0.0,0.0,0.0,0.0,0.0,0.0,0.0,0.0,0.0,0.0,0.0,0.0,0.0,0.0,0.0,0.0,0.0,0.0,0.0,0.0,0.0,0.0,0.0,0.0,0.0,0.0,0.0,0.0,0.0,0.0,0.0,0.0,0.0,0.0,0.0,0.0,0.0,0.0,0.0,0.0,0.0,0.0,0.0,0.0,1.1872,1.2007,1.2026,1.1883,1.1453,1.1161,0.0,0.0,0.0,0.0,0.0,0.0,0.0,0.0,0.0,0.0,0.0,0.0,0.0,0.0,0.0,0.0,0.0,0.0,0.0,0.0,0.0,0.0,0.0,0.0,0.0,0.0,0.0,0.0,0.0,0.0,0.0,0.0,0.0,0.0,0.0,0.0,0.0,0.0,0.0,0.0,0.0,0.0,0.0,0.0,0.0,0.0,0.0,0.0,0.0,0.0,0.0,0.0,0.0,0.0,0.0,0.0,0.0,0.0,0.0,0.0,0.0,0.0,0.0,0.0,0.0,0.0,0.0,0.0,0.0,0.0,0.0,0.0,0.0,0.0,0.0,0.0,0.0,0.0,0.0,0.0,0.0,0.0,0.0,0.0,0.0,0.0,0.0,0.0,0.0,0.0,0.0,0.0,0.0,0.0,0.0,0.0,0.0,0.0,0.0,0.0,0.0,0.0,0.0,0.0,0.0,0.0,0.0,0.0,0.0,1.1206,0.0,1.2657,1.2062,1.1887,1.1463,0.0,0.0,0.0,0.0,0.0,0.0,0.0,0.0,0.0,0.0,0.0,0.0,0.0,0.0,0.0,0.0,0.0,0.0,0.0,0.0,0.0,0.0,0.0,0.0,0.0,0.0,0.0,0.0,0.0,0.0,0.0,0.0,0.0,0.0,0.0,0.0,0.0,0.0,0.0,0.0,0.0,0.0,0.0,0.0,0.0,0.0,0.0,0.0,0.0,0.0,0.0,0.0,0.0,0.0,0.0,0.0,0.0,0.0,0.0,0.0,0.0,0.0,0.0,0.0,0.0,0.0,0.0,0.0,0.0,0.0,0.0,0.0,0.0,0.0,0.0,0.0,0.0,0.0,0.0,0.0,0.0,0.0,0.0,0.0,0.0,0.0,0.0,0.0,0.0,0.0,0.0,0.0,0.0,0.0,0.0,0.0,0.0,0.0,0.0,0.0,0.0,0.0,0.0,0.0,0.0,0.0,0.0,0.0,1.2283,1.3272,1.3581,1.3244,1.2342,1.1372,1.0466,0.0,0.0,0.0,0.0,0.0,0.0,0.0,0.0,0.0,0.0,0.0,0.0,0.0,0.0,0.0,0.0,0.0,0.0,0.0,0.0,0.0,0.0,0.0,0.0,0.0,0.0,0.0,0.0,0.0,0.0,0.0,0.0,0.0,0.0,0.0,0.0,0.0,0.0,0.0,0.0,0.0,0.0,0.0,0.0,0.0,0.0,0.0,0.0,0.0,0.0,0.0,0.0,0.0,0.0,0.0,0.0,0.0,0.0,0.0,0.0,0.0,0.0,0.0,0.0,0.0,0.0,0.0,0.0,0.0,0.0,0.0,0.0,0.0,0.0,0.0,0.0,0.0,0.0,0.0,0.0,0.0,0.0,0.0,0.0,0.0,0.0,0.0,0.0,0.0,0.0,0.0,0.0,0.0,0.0,0.0,0.0,0.0,0.0,0.0,0.0,0.0,0.0,0.0,0.0,0.0,0.0,0.0,0.0,0.0,1.2027,1.2365,1.2864,1.3392,1.1521,1.0983,0.0,0.0,0.0,0.0,0.0,0.0,0.0,0.0,0.0,0.0,0.0,0.0,0.0,0.0,0.0,0.0,0.0,0.0,0.0,0.0,0.0,0.0,0.0,0.0,0.0,0.0,0.0,0.0,0.0,0.0,0.0,0.0,0.0,0.0,0.0,0.0,0.0,0.0,0.0,0.0,0.0,0.0,0.0,0.0,0.0,0.0,0.0,0.0,0.0,0.0,0.0,0.0,0.0,0.0,0.0,0.0,0.0,0.0,0.0,0.0,0.0,0.0,0.0,0.0,0.0,0.0,0.0,0.0,0.0,0.0,0.0,0.0,0.0,0.0,0.0,0.0,0.0,0.0,0.0,0.0,0.0,0.0,0.0,0.0,0.0,0.0,0.0,0.0,0.0,0.0,0.0,0.0,0.0,0.0,0.0,0.0,0.0,0.0,0.0,0.0,0.0,0.0,0.0,0.0,0.0,0.0,0.0,0.0,0.0,1.2626,1.2995,1.353,1.4212,1.2513,1.1852,1.2306,0.0,0.0,0.0,0.0,0.0,0.0,0.0,0.0,0.0,0.0,0.0,0.0,0.0,0.0,0.0,0.0,0.0,0.0,0.0,0.0,0.0,0.0,0.0,0.0,0.0,0.0,0.0,0.0,0.0,0.0,0.0,0.0,0.0,0.0,0.0,0.0,0.0,0.0,0.0,0.0,0.0,0.0,0.0,0.0,0.0,0.0,0.0,0.0,0.0,0.0,0.0,0.0,0.0,0.0,0.0,0.0,0.0,0.0,0.0,0.0,0.0,0.0,0.0,0.0,0.0,0.0,0.0,0.0,0.0,0.0,0.0,0.0,0.0,0.0,0.0,0.0,0.0,0.0,0.0,0.0,0.0,0.0,0.0,0.0,0.0,0.0,0.0,0.0,0.0,0.0,0.0,0.0,0.0,0.0,0.0,0.0,0.0,0.0,0.0,0.0,0.0,0.0,0.0,0.0,0.0,0.0,0.0,0.0,1.4647,1.5138,1.519,1.4746,1.4013,1.2851,0.0,0.0,0.0,0.0,0.0,0.0,0.0,0.0,0.0,0.0,0.0,0.0,0.0,0.0,0.0,0.0,0.0,0.0,0.0,0.0,0.0,0.0,0.0,0.0,0.0,0.0,0.0,0.0,0.0,0.0,0.0,0.0,0.0,0.0,0.0,0.0,0.0,0.0,0.0,0.0,0.0,0.0,0.0,0.0,0.0,0.0,0.0,0.0,0.0,0.0,0.0,0.0,0.0,0.0,0.0,0.0,0.0,0.0,0.0,0.0,0.0,0.0,0.0,0.0,0.0,0.0,0.0,0.0,0.0,0.0,0.0,0.0,0.0,0.0,0.0,0.0,0.0,0.0,0.0,0.0,0.0,0.0,0.0,0.0,0.0,0.0,0.0,0.0,0.0,0.0,0.0,0.0,0.0,0.0,0.0,0.0,0.0,0.0,0.0,0.0,0.0,0.0,0.0,0.0,0.0,0.0,0.0,0.0,0.0,1.5248,1.6355,1.6726,1.6262,1.3756,1.2545,0.0,0.0,0.0,0.0,0.0,0.0,0.0,0.0,0.0,0.0,0.0,0.0,0.0,0.0,0.0,0.0,0.0,0.0,0.0,0.0,0.0,0.0,0.0,0.0,0.0,0.0,0.0,0.0,0.0,0.0,0.0,0.0,0.0,0.0,0.0,0.0,0.0,0.0,0.0,0.0,0.0,0.0,0.0,0.0,0.0,0.0,0.0,0.0,0.0,0.0,0.0,0.0,0.0,0.0,0.0,0.0,0.0,0.0,0.0,0.0,0.0,0.0,0.0,0.0,0.0,0.0,0.0,0.0,0.0,0.0,0.0,0.0,0.0,0.0,0.0,0.0,0.0,0.0,0.0,0.0,0.0,0.0,0.0,0.0,0.0,0.0,0.0,0.0,0.0,0.0,0.0,0.0,0.0,0.0,0.0,0.0,0.0,0.0,0.0,0.0,0.0,0.0,0.0,0.0,0.0,0.0,0.0,0.0,1.4989,1.5865,1.7587,1.8137,1.7496,1.4988,1.347,0.0,0.0,0.0,0.0,0.0,0.0,0.0,0.0,0.0,0.0,0.0,0.0,0.0,0.0,0.0,0.0,0.0,0.0,0.0,0.0,0.0,0.0,0.0,0.0,0.0,0.0,0.0,0.0,0.0,0.0,0.0,0.0,0.0,0.0,0.0,0.0,0.0,0.0,0.0,0.0,0.0,0.0,0.0,0.0,0.0,0.0,0.0,0.0,0.0,0.0,0.0,0.0,0.0,0.0,0.0,0.0,0.0,0.0,0.0,0.0,0.0,0.0,0.0,0.0,0.0,0.0,0.0,0.0,0.0,0.0,0.0,0.0,0.0,0.0,0.0,0.0,0.0,0.0,0.0,0.0,0.0,0.0,0.0,0.0,0.0,0.0,0.0,0.0,0.0,0.0,0.0,0.0,0.0,0.0,0.0,0.0,0.0,0.0,0.0,0.0,0.0,0.0,0.0,0.0,0.0,0.0,0.0,0.0,1.6169,1.644,1.8545,1.9176,1.821,1.6692,1.4872,0.0,0.0,0.0,0.0,0.0,0.0,0.0,0.0,0.0,0.0,0.0,0.0,0.0,0.0,0.0,0.0,0.0,0.0,0.0,0.0,0.0,0.0,0.0,0.0,0.0,0.0,0.0,0.0,0.0,0.0,0.0,0.0,0.0,0.0,0.0,0.0,0.0,0.0,0.0,0.0,0.0,0.0,0.0,0.0,0.0,0.0,0.0,0.0,0.0,0.0,0.0,0.0,0.0,0.0,0.0,0.0,0.0,0.0,0.0,0.0,0.0,0.0,0.0,0.0,0.0,0.0,0.0,0.0,0.0,0.0,0.0,0.0,0.0,0.0,0.0,0.0,0.0,0.0,0.0,0.0,0.0,0.0,0.0,0.0,0.0,0.0,0.0,0.0,0.0,0.0,0.0,0.0,0.0,0.0,0.0,0.0,0.0,0.0,0.0,0.0,0.0,0.0,0.0,0.0,0.0,0.0,0.0,0.0,1.5359,1.6552,1.7975,1.8321,1.7603,1.5939,1.4495,0.0,0.0,0.0,0.0,0.0,0.0,0.0,0.0,0.0,0.0,0.0,0.0,0.0,0.0,0.0,0.0,0.0,0.0,0.0,0.0,0.0,0.0,0.0,0.0,0.0,0.0,0.0,0.0,0.0,0.0,0.0,0.0,0.0,0.0,0.0,0.0,0.0,0.0,0.0,0.0,0.0,0.0,0.0,0.0,0.0,0.0,0.0,0.0,1.5087,0.0,0.0,0.0,0.0,0.0,0.0,0.0,0.0,0.0,0.0,0.0,0.0,0.0,0.0,0.0,0.0,0.0,0.0,0.0,0.0,0.0,0.0,0.0,0.0,0.0,0.0,0.0,0.0,0.0,0.0,0.0,0.0,0.0,0.0,0.0,0.0,0.0,0.0,0.0,0.0,0.0,0.0,0.0,0.0,0.0,0.0,0.0,0.0,0.0,0.0,0.0,0.0,0.0,0.0,0.0,0.0,0.0,0.0,0.0,1.5701,1.6952,1.8087,1.8352,1.7635,1.5716,1.4148,0.0,0.0,0.0,0.0,0.0,0.0,0.0,0.0,0.0,0.0,0.0,0.0,0.0,0.0,0.0,0.0,0.0,0.0,0.0,0.0,0.0,0.0,0.0,0.0,0.0,0.0,0.0,0.0,0.0,0.0,0.0,0.0,0.0,0.0,0.0,0.0,0.0,0.0,0.0,0.0,0.0,0.0,0.0,0.0,0.0,0.0,0.0,0.0,0.0,0.0,0.0,0.0,0.0,0.0,0.0,0.0,0.0,0.0,0.0,0.0,0.0,0.0,0.0,0.0,0.0,0.0,0.0,0.0,0.0,0.0,0.0,0.0,0.0,0.0,0.0,0.0,0.0,0.0,0.0,0.0,0.0,0.0,0.0,0.0,0.0,0.0,0.0,0.0,0.0,0.0,0.0,0.0,0.0,0.0,0.0,0.0,0.0,0.0,0.0,0.0,0.0,0.0,0.0,0.0,0.0,0.0,0.0,1.4736,1.6217,1.7354,1.8354,1.8534,1.7722,1.5581,1.3815,1.2584,0.0,0.0,0.0,0.0,0.0,0.0,0.0,0.0,0.0,0.0,0.0,0.0,0.0,0.0,0.0,0.0,0.0,0.0,0.0,0.0,0.0,0.0,0.0,0.0,0.0,0.0,0.0,0.0,0.0,0.0,0.0,0.0,0.0,0.0,0.0,0.0,0.0,0.0,1.1532,1.2104,0.0,0.0,0.0,0.0,0.0,0.0,0.0,0.0,1.4733,0.0,0.0,0.0,0.0,0.0,0.0,0.0,0.0,0.0,0.0,0.0,0.0,0.0,0.0,0.0,0.0,0.0,0.0,0.0,0.0,0.0,0.0,0.0,0.0,0.0,0.0,0.0,0.0,0.0,0.0,0.0,0.0,0.0,0.0,0.0,0.0,0.0,0.0,0.0,0.0,0.0,0.0,0.0,0.0,0.0,0.0,0.0,0.0,0.0,0.0,0.0,0.0,0.0,0.0,0.0,0.0,1.4246,1.4426,1.5383,1.726,1.8026,1.7813,1.6513,1.4867,1.3431,1.2259,0.0,0.0,0.0,0.0,0.0,0.0,0.0,0.0,0.0,0.0,0.0,0.0,0.0,0.0,0.0,0.0,0.0,0.0,0.0,0.0,0.0,0.0,0.0,0.0,0.0,0.0,0.0,0.0,0.0,0.0,0.0,0.0,0.0,0.0,0.0,0.0,0.0,0.0,0.0,1.388,1.5009,0.0,0.0,0.0,0.0,0.0,0.0,0.0,0.0,1.4693,0.0,0.0,0.0,0.0,0.0,0.0,0.0,0.0,0.0,0.0,0.0,0.0,0.0,0.0,0.0,0.0,0.0,0.0,0.0,0.0,0.0,0.0,0.0,0.0,0.0,0.0,0.0,0.0,0.0,0.0,0.0,0.0,0.0,0.0,0.0,0.0,0.0,0.0,0.0,0.0,0.0,0.0,0.0,0.0,0.0,0.0,0.0,0.0,0.0,0.0,0.0,0.0,0.0,0.0,0.0,1.4065,1.4569,1.5697,1.7482,1.7493,1.7,1.5936,1.4131,1.2853,0.0,0.0,0.0,0.0,0.0,0.0,0.0,0.0,0.0,0.0,0.0,0.0,0.0,0.0,0.0,0.0,0.0,0.0,0.0,0.0,0.0,0.0,0.0,0.0,0.0,0.0,0.0,0.0,0.0,0.0,0.0,0.0,0.0,0.0,0.0,0.0,0.0,0.0,0.0,0.0,1.476,1.5555,1.6567,0.0,0.0,0.0,0.0,0.0,0.0,1.5923,1.5927,0.0,0.0,0.0,0.0,0.0,0.0,0.0,0.0,0.0,0.0,0.0,0.0,0.0,0.0,0.0,0.0,0.0,0.0,0.0,0.0,0.0,0.0,0.0,0.0,0.0,0.0,0.0,0.0,0.0,0.0,0.0,0.0,0.0,0.0,0.0,0.0,0.0,0.0,0.0,0.0,0.0,0.0,0.0,0.0,0.0,0.0,0.0,0.0,0.0,0.0,0.0,0.0,0.0,0.0,0.0,1.3729,1.476,1.6058,1.7461,1.6932,1.6234,1.5475,1.3451,1.2317,0.0,0.0,0.0,0.0,0.0,0.0,0.0,0.0,0.0,0.0,0.0,0.0,0.0,0.0,0.0,0.0,0.0,0.0,0.0,0.0,0.0,0.0,0.0,0.0,0.0,0.0,0.0,0.0,0.0,0.0,0.0,0.0,0.0,0.0,0.0,0.0,0.0,0.0,0.0,0.0,0.0,1.6105,1.7077,1.7282,0.0,0.0,0.0,0.0,1.6467,1.7228,0.0,0.0,0.0,0.0,0.0,0.0,0.0,0.0,0.0,0.0,0.0,0.0,0.0,0.0,0.0,0.0,0.0,0.0,0.0,0.0,0.0,0.0,0.0,0.0,0.0,0.0,0.0,0.0,0.0,0.0,0.0,0.0,0.0,0.0,0.0,0.0,0.0,0.0,0.0,0.0,0.0,0.0,0.0,0.0,0.0,0.0,0.0,0.0,0.0,0.0,0.0,0.0,0.0,0.0,0.0,0.0,1.3679,1.4598,1.5641,1.6737,1.6456,1.5773,1.474,1.3036,1.1997,0.0,0.0,0.0,0.0,0.0,0.0,0.0,0.0,0.0,0.0,0.0,0.0,0.0,0.0,0.0,0.0,0.0,0.0,0.0,0.0,0.0,0.0,0.0,0.0,0.0,0.0,0.0,0.0,0.0,0.0,0.0,0.0,0.0,0.0,0.0,0.0,0.0,0.0,0.0,0.0,0.0,1.7526,1.7314,1.8137,1.8288,0.0,0.0,1.8348,1.8805,1.9487,0.0,0.0,0.0,0.0,0.0,0.0,0.0,0.0,0.0,0.0,0.0,0.0,0.0,0.0,0.0,0.0,0.0,0.0,0.0,0.0,0.0,0.0,0.0,0.0,0.0,0.0,0.0,0.0,0.0,0.0,0.0,0.0,0.0,0.0,0.0,0.0,0.0,0.0,0.0,0.0,0.0,0.0,0.0,0.0,0.0,0.0,0.0,0.0,0.0,0.0,0.0,0.0,0.0,0.0,0.0,1.2694,1.333,1.4684,1.5719,1.6376,1.6095,1.5316,1.406,1.243,1.1702,0.0,0.0,0.0,0.0,0.0,0.0,0.0,0.0,0.0,0.0,0.0,0.0,0.0,0.0,0.0,0.0,0.0,0.0,0.0,0.0,0.0,0.0,0.0,0.0,0.0,0.0,0.0,0.0,0.0,0.0,0.0,0.0,0.0,0.0,0.0,0.0,0.0,0.0,0.0,0.0,0.0,0.0,1.8061,1.9178,0.0,0.0,0.0,1.9341,1.9609,0.0,0.0,0.0,0.0,0.0,0.0,0.0,0.0,0.0,0.0,0.0,0.0,0.0,0.0,0.0,0.0,0.0,0.0,0.0,0.0,0.0,0.0,0.0,0.0,0.0,0.0,0.0,0.0,0.0,0.0,0.0,0.0,0.0,0.0,0.0,0.0,0.0,0.0,0.0,0.0,0.0,0.0,0.0,0.0,0.0,0.0,0.0,0.0,0.0,0.0,0.0,0.0,0.0,0.0,0.0,0.0,0.0,1.3031,1.4728,1.577,1.6047,1.5669,1.4858,1.3633,1.2114,0.0,0.0,0.0,0.0,0.0,0.0,0.0,0.0,0.0,0.0,0.0,0.0,0.0,0.0,0.0,0.0,0.0,0.0,0.0,0.0,0.0,0.0,0.0,0.0,0.0,0.0,0.0,1.3088,0.0,0.0,0.0,0.0,0.0,0.0,0.0,0.0,0.0,0.0,0.0,0.0,0.0,0.0,1.9111,1.8238,1.9584,2.0325,0.0,0.0,2.0024,2.0254,2.0508,2.0235,0.0,0.0,0.0,0.0,0.0,0.0,0.0,0.0,0.0,0.0,0.0,0.0,0.0,0.0,0.0,0.0,0.0,0.0,0.0,0.0,0.0,0.0,0.0,0.0,0.0,0.0,0.0,0.0,0.0,0.0,0.0,0.0,0.0,0.0,0.0,0.0,0.0,0.0,0.0,0.0,0.0,0.0,0.0,0.0,0.0,0.0,0.0,0.0,0.0,0.0,0.0,0.0,0.0,0.0,0.0,1.3013,1.4596,1.5524,1.5697,1.5028,1.4329,1.3601,1.2338,1.1754,0.0,0.0,0.0,0.0,0.0,0.0,0.0,0.0,0.0,0.0,0.0,0.0,0.0,0.0,0.0,0.0,0.0,0.0,0.0,0.0,0.0,0.0,0.0,0.0,0.0,0.0,0.0,0.0,0.0,0.0,0.0,0.0,0.0,0.0,0.0,0.0,0.0,0.0,0.0,0.0,0.0,1.8469,1.7173,1.8752,1.9942,0.0,0.0,2.0311,2.1251,2.2045,2.1985,2.0109,0.0,0.0,0.0,0.0,0.0,0.0,0.0,0.0,0.0,0.0,0.0,0.0,0.0,0.0,0.0,0.0,0.0,0.0,0.0,0.0,0.0,0.0,0.0,0.0,0.0,0.0,0.0,0.0,0.0,0.0,0.0,0.0,0.0,0.0,0.0,0.0,0.0,0.0,0.0,0.0,0.0,0.0,0.0,0.0,0.0,0.0,0.0,0.0,0.0,0.0,0.0,0.0,0.0,1.1891,1.253,1.4214,1.521,1.5364,1.511,1.4444,1.3315,1.2536,1.2128,0.0,0.0,0.0,0.0,0.0,0.0,0.0,0.0,0.0,0.0,0.0,0.0,0.0,0.0,0.0,0.0,0.0,0.0,0.0,0.0,0.0,0.0,0.0,0.0,0.0,0.0,0.0,0.0,1.4317,1.4404,1.4673,0.0,0.0,0.0,0.0,0.0,0.0,0.0,0.0,0.0,0.0,1.8801,1.9195,2.0373,0.0,0.0,2.1426,2.1701,2.2379,2.234,2.1814,2.0542,2.0034,0.0,0.0,0.0,0.0,0.0,0.0,0.0,0.0,0.0,0.0,0.0,0.0,0.0,0.0,0.0,0.0,0.0,0.0,0.0,0.0,0.0,0.0,0.0,0.0,0.0,0.0,0.0,0.0,0.0,0.0,0.0,0.0,0.0,0.0,0.0,0.0,0.0,0.0,0.0,0.0,0.0,0.0,0.0,0.0,0.0,0.0,0.0,0.0,0.0,0.0,0.0,0.0,1.1674,1.2124,1.3889,1.4831,1.4975,1.5012,1.4458,1.3299,1.2806,1.2496,0.0,0.0,0.0,0.0,0.0,0.0,0.0,0.0,0.0,0.0,0.0,0.0,0.0,0.0,0.0,0.0,0.0,0.0,0.0,0.0,0.0,0.0,0.0,0.0,0.0,0.0,0.0,0.0,1.505,1.5219,1.5202,0.0,0.0,0.0,0.0,0.0,0.0,0.0,0.0,0.0,0.0,1.8963,1.9766,2.0544,2.1244,2.178,2.1668,2.1776,2.2491,2.2194,2.1535,2.0547,0.0,0.0,0.0,0.0,0.0,0.0,0.0,0.0,0.0,0.0,0.0,0.0,0.0,0.0,0.0,0.0,0.0,0.0,0.0,0.0,0.0,0.0,0.0,0.0,0.0,0.0,0.0,1.548,0.0,0.0,1.599,0.0,0.0,0.0,0.0,0.0,0.0,0.0,0.0,0.0,0.0,0.0,0.0,0.0,0.0,0.0,0.0,0.0,0.0,0.0,0.0,0.0,0.0,1.1386,1.1925,1.3693,1.4572,1.4462,1.4557,1.4296,1.3633,1.3201,1.286,1.2593,0.0,0.0,0.0,0.0,0.0,0.0,0.0,0.0,0.0,0.0,0.0,0.0,0.0,0.0,0.0,0.0,0.0,0.0,0.0,0.0,0.0,0.0,0.0,0.0,0.0,0.0,1.4835,1.5399,1.5636,0.0,0.0,0.0,0.0,0.0,0.0,0.0,0.0,0.0,0.0,1.794,1.88,1.8116,1.8495,1.9396,2.0518,2.007,2.0023,2.14,2.1697,2.1374,0.0,0.0,0.0,0.0,0.0,0.0,0.0,0.0,0.0,0.0,0.0,0.0,0.0,0.0,0.0,0.0,0.0,0.0,0.0,0.0,0.0,0.0,0.0,0.0,0.0,0.0,0.0,1.649,1.6586,0.0,0.0,0.0,0.0,0.0,0.0,0.0,0.0,0.0,0.0,0.0,1.8003,1.7506,0.0,0.0,0.0,0.0,0.0,0.0,0.0,0.0,0.0,0.0,0.0,0.0,1.1635,1.2461,1.387,1.481,1.5241,1.5091,1.4758,1.4282,1.3716,1.3152,1.263,0.0,0.0,0.0,0.0,0.0,0.0,0.0,0.0,0.0,0.0,0.0,0.0,0.0,0.0,0.0,0.0,0.0,0.0,0.0,0.0,0.0,0.0,0.0,0.0,0.0,1.5247,0.0,0.0,0.0,0.0,0.0,0.0,0.0,0.0,0.0,0.0,0.0,1.6794,1.7891,1.7933,1.8072,1.8736,1.906,1.964,0.0,0.0,0.0,0.0,0.0,0.0,0.0,0.0,0.0,0.0,0.0,0.0,0.0,0.0,2.2585,2.0836,2.0712,2.0949,2.123,0.0,0.0,0.0,0.0,0.0,0.0,0.0,0.0,0.0,0.0,0.0,0.0,0.0,0.0,1.7406,0.0,1.7801,0.0,0.0,0.0,0.0,0.0,0.0,0.0,0.0,1.8548,1.8745,1.8628,1.8244,1.8137,0.0,1.7881,1.7527,0.0,0.0,0.0,0.0,0.0,0.0,0.0,0.0,1.1923,1.2623,1.4109,1.5118,1.557,1.5456,1.5125,1.4613,1.395,1.3461,1.3136,1.3244,1.3014,0.0,0.0,0.0,0.0,0.0,0.0,0.0,0.0,0.0,0.0,0.0,0.0,0.0,0.0,0.0,0.0,0.0,0.0,0.0,0.0,0.0,0.0,0.0,1.6326,0.0,0.0,0.0,0.0,0.0,0.0,0.0,0.0,0.0,1.7336,1.7149,1.745,1.8717,1.8495,1.8426,1.8978,0.0,0.0,0.0,0.0,0.0,0.0,0.0,2.1762,2.1976,2.2652,2.3184,2.3164,2.3864,2.4375,2.4062,0.0,0.0,2.2184,2.1988,2.2187,2.2445,2.2246,2.231,2.3248,2.3577,2.3843,0.0,0.0,0.0,0.0,0.0,0.0,0.0,0.0,1.7987,1.8084,0.0,1.8567,0.0,0.0,0.0,0.0,1.7568,1.88,0.0,0.0,1.9614,1.9677,1.8667,1.8792,1.8815,1.8729,1.8552,1.8337,1.807,1.724,0.0,0.0,0.0,0.0,0.0,0.0,1.2238,1.256,1.4454,1.5436,1.5455,1.5636,1.5399,1.4645,1.4013,1.3782,1.4049,1.372,1.3485,1.3378,1.3479,0.0,0.0,0.0,0.0,0.0,0.0,0.0,0.0,0.0,0.0,0.0,0.0,0.0,0.0,0.0,0.0,0.0,0.0,0.0,0.0,1.7784,0.0,0.0,0.0,0.0,0.0,0.0,0.0,0.0,0.0,0.0,1.7421,1.8013,1.852,1.8833,0.0,0.0,0.0,0.0,1.9407,1.9399,1.9383,1.9692,2.0587,2.1849,2.2636,2.2323,0.0,0.0,2.4528,2.523,2.5542,2.4707,2.498,2.5063,2.4609,2.4066,2.3772,2.3792,2.3208,2.2773,2.3084,2.3195,2.3034,1.9411,0.0,0.0,0.0,0.0,1.9102,1.9734,2.1018,1.9793,1.9443,1.9722,1.9799,0.0,0.0,0.0,0.0,0.0,0.0,1.972,1.9884,2.0141,2.0248,2.0349,2.0114,1.9905,1.9723,1.956,1.9159,1.8526,1.7683,1.6298,1.4369,0.0,0.0,0.0,0.0,1.3095,1.4391,1.5536,1.6186,1.6343,1.6404,1.5964,1.5062,1.4858,1.4543,1.4118,1.4209,1.4032,1.3518,1.3711,0.0,0.0,0.0,0.0,0.0,0.0,0.0,0.0,0.0,0.0,0.0,0.0,0.0,0.0,0.0,0.0,0.0,0.0,0.0,1.8025,1.8569,1.8408,0.0,0.0,0.0,0.0,0.0,0.0,0.0,0.0,0.0,1.9145,1.858,1.8265,0.0,0.0,1.8631,1.8117,1.8938,1.9831,2.0441,2.0564,0.0,2.2277,2.2536,2.2835,2.3497,2.5082,2.6465,2.709,2.7383,2.748,2.7207,2.7311,2.7324,2.7109,2.5547,2.4473,2.4613,2.4515,2.4492,2.4859,2.5117,2.5391,2.2553,2.0957,2.1173,2.1307,2.1357,2.1012,2.1478,2.235,2.1265,2.0888,2.103,2.1116,2.0523,1.9464,1.9387,0.0,0.0,0.0,2.0267,2.0445,2.0779,2.0991,2.1154,2.1212,2.1192,2.1124,2.0797,2.0221,1.94,1.8315,1.6759,1.4759,0.0,0.0,1.2937,1.34,1.4184,1.5263,1.6283,1.6912,1.7122,1.7016,1.6567,1.584,1.5666,1.5316,1.4778,1.4926,1.4791,1.4223,1.4496,1.4459,0.0,0.0,0.0,0.0,0.0,0.0,0.0,0.0,0.0,0.0,0.0,1.4778,0.0,0.0,0.0,0.0,1.771,1.833,1.8552,1.8709,0.0,0.0,0.0,0.0,0.0,0.0,0.0,1.675,1.8122,1.942,2.0126,1.9793,1.9644,2.0212,2.0081,1.9774,1.9349,0.0,2.0925,2.1378,2.1478,2.1888,2.3024,2.3321,2.3939,2.5463,2.674,2.7878,2.8645,2.8816,2.8836,2.8809,2.8836,2.8809,2.8809,2.7526,2.6387,2.6372,2.6372,2.6445,2.6674,2.6953,2.7226,2.5544,2.5739,2.464,2.3722,2.3016,2.3428,2.3203,2.255,2.245,2.2301,2.218,2.2366,2.1991,2.1104,2.0425,0.0,2.0097,2.0616,2.0674,2.0349,2.1455,2.172,2.1308,2.2037,2.2494,2.2654,2.2079,2.1353,2.0419,1.8956,1.7289,1.5538,1.4916,1.4385,1.4055,1.4744,1.5254,1.5504,1.6761,1.7555,1.7864,1.7514,1.7159,1.6784,1.6488,1.6158,1.5844,1.5847,1.5669,1.5351,1.5637,1.5793,1.5805,0.0,0.0,0.0,0.0,0.0,0.0,0.0,0.0,0.0,0.0,0.0,0.0,0.0,0.0,0.0,1.9207,0.0,1.9099,1.8676,0.0,0.0,0.0,1.7944,1.8592,1.887,1.8932,1.873,0.0,0.0,2.0685,2.1376,2.2134,2.3027,2.2739,2.2264,2.1771,2.2172,2.2514,2.2376,2.2371,2.2683,2.3499,2.434,2.5554,2.7336,2.8305,2.8737,2.934,2.9556,2.9612,2.9584,2.964,2.9696,2.9696,2.9598,2.9434,2.8513,2.8372,2.8359,2.834,2.834,2.8386,2.5747,2.7058,2.674,2.6404,2.5973,2.5475,2.5102,2.4828,2.3869,2.3405,2.3385,2.326,2.2604,2.1558,2.123,2.0907,2.0606,2.0603,2.0837,2.127,2.1499,2.1722,2.1929,2.2445,2.2593,2.2461,2.2073,2.1307,2.0171,1.8994,1.779,1.6576,1.5833,1.4897,1.3783,1.4447,1.5336,1.6394,1.6965,1.7672,1.8519,1.7991,1.7641,1.7546,1.7467,1.726,1.6926,1.6926,1.6751,1.6361,1.6425,1.6361,1.6122,1.5888,0.0,0.0,0.0,0.0,0.0,0.0,0.0,0.0,0.0,1.5704,1.5651,0.0,1.671,0.0,1.9071,2.0483,2.0889,2.0725,0.0,0.0,1.9294,1.8833,1.8586,1.9342,1.9592,1.887,2.0314,2.1689,2.2425,2.3086,2.3945,2.4986,2.3673,2.2623,2.2786,2.355,2.4082,2.4053,2.4523,2.5064,2.5215,2.5852,2.6604,2.7409,2.8005,2.8518,2.9037,2.9521,2.9823,2.9871,3.0277,3.0557,3.0547,3.0615,3.0306,2.968,2.9389,2.9285,2.9277,2.9305,2.9305,2.6581,2.7742,2.7405,2.7295,2.7302,2.7096,2.675,2.6262,2.5247,2.4534,2.3982,2.3469,2.2808,2.2089,2.1575,2.1118,2.0674,2.0462,2.0483,2.0663,2.0937,2.1222,2.148,2.218,2.2422,2.2257,2.1923,2.1298,2.0328,1.9126,1.8103,1.733,1.6938,1.6138,1.5006,1.5188,1.5698,1.6422,1.7096,1.8023,1.9217,1.893,1.8387,1.7752,1.7476,1.6942,1.6098,1.581,1.5624,1.5558,1.5854,1.6012,1.5983,1.5974,1.584,0.0,0.0,0.0,0.0,0.0,0.0,0.0,0.0,0.0,0.0,0.0,1.7569,1.8025,1.9406,2.0232,2.0167,2.0212,2.0211,2.016,2.0047,2.0118,2.0488,2.0964,2.1233,2.1146,2.2091,2.3121,2.4012,2.4433,2.5061,2.6043,2.5117,2.4362,2.4412,2.4868,2.5254,2.5435,2.5841,2.6251,2.6405,2.6705,2.7111,2.757,2.7949,2.8335,2.8909,2.9272,2.9509,2.9538,2.9804,3.0058,3.0058,3.0058,3.0,2.9924,2.9591,2.946,2.968,2.9937,3.0128,2.7458,2.7988,2.7401,2.7431,2.7922,2.8389,2.7984,2.6947,2.6318,2.5395,2.4288,2.3388,2.2803,2.2442,2.1623,2.093,2.0386,2.0194,1.9949,1.9624,2.0231,2.0566,2.0735,2.1524,2.1917,2.1902,2.1545,2.1084,2.0441,1.9155,1.8287,1.7802,1.7774,1.7397,1.6683,1.6323,1.6201,1.6296,1.7349,1.8512,1.9707,1.9565,1.8816,1.7454,1.6915,1.6004,1.4629,1.4148,1.4048,1.4306,1.5015,1.5621,1.6109,1.6102,1.6169,0.0,1.6125,0.0,0.0,0.0,0.0,0.0,0.0,0.0,0.0,1.8441,1.8763,1.9523,1.9903,1.9811,1.9021,1.9237,1.9742,2.0495,2.0845,2.1576,2.2836,2.2826,2.3005,2.3866,2.3824,2.4152,2.5126,2.5419,2.5759,2.6342,2.6465,2.6282,2.6119,2.6038,2.6158,2.6525,2.6589,2.6662,2.6936,2.7069,2.725,2.7732,2.7852,2.808,2.8588,2.8815,2.8856,2.8886,2.8993,2.9035,2.8975,2.9053,2.9153,2.9509,2.9264,2.9216,2.9747,3.0158,3.044,2.6905,2.7701,2.7901,2.8501,2.9284,2.9119,2.7872,2.5895,2.5743,2.5282,2.4571,2.388,2.292,2.1861,2.1338,2.0641,1.9788,1.9731,1.9805,1.9993,2.0442,2.069,2.0707,2.0872,2.0974,2.0931,2.0414,1.9839,1.9236,1.8907,1.821,1.7201,1.7172,1.7111,1.6938,0.0,0.0,0.0,1.836,1.8948,1.8965,1.7794,1.687,1.6299,1.6012,0.0,1.5048,1.5398,1.5541,1.5433,1.6062,0.0,0.0,0.0,0.0,0.0,0.0,0.0,0.0,0.0,0.0,0.0,1.887,1.8461,1.8477,1.8392,1.8789,1.9799,2.0187,2.0744,2.1715,2.2062,2.2304,2.2511,2.2591,2.2669,2.2796,2.2886,2.3172,2.3595,2.4115,2.4591,2.5094,2.5596,2.6097,2.651,2.6802,2.6936,2.688,2.6816,2.6867,2.6983,2.6966,2.7017,2.7086,2.7103,2.7133,2.7254,2.7285,2.7345,2.7526,2.79,2.8199,2.8199,2.8648,2.8964,2.8945,2.8975,2.8826,2.8469,2.8677,2.9183,2.9745,2.9597,2.9302,2.5464,2.6073,2.6106,2.647,0.0,2.6674,2.5801,2.4634,2.5795,2.5567,2.4306,2.3491,2.2491,2.1358,2.07,1.9897,1.899,1.8321,1.8235,1.8619,1.8915,1.9337,1.9851,2.0403,2.0645,2.063,2.0039,1.9595,1.9268,1.8794,1.8311,1.7832,1.7832,1.7909,1.8045,1.8077,1.8113,1.8198,1.8597,1.9159,1.986,1.9315,1.8698,1.8142,1.769,0.0,0.0,0.0,0.0,0.0,0.0,0.0,0.0,1.9555,0.0,2.0587,2.0289,2.026,2.0743,2.0566,2.0611,2.1015,2.0547,1.9982,1.9273,1.9526,2.0005,2.0664,2.0883,2.1402,2.2483,2.2853,2.304,2.3095,2.3247,2.3293,2.3187,2.326,2.3549,2.4009,2.4409,2.4795,2.5304,2.5625,2.6053,2.651,2.6739,2.6921,2.7073,2.7103,2.7103,2.7103,2.7103,2.7103,2.7103,2.7103,2.7103,2.7103,2.7103,2.7103,2.7103,2.7345,2.7539,2.7569,2.784,2.805,2.8067,2.8067,2.8037,2.802,2.802,2.8259,2.8826,2.8975,2.8856,2.4088,2.4365,2.4089,2.4138,2.4304,2.3972,2.3682,2.3611,2.5465,0.0,0.0,2.2847,2.1963,2.1133,2.0198,1.9313,1.8495,1.7262,1.6986,1.7467,1.7653,1.819,1.9061,1.9956,2.0335,2.0244,1.9728,1.9455,1.9424,1.8723,1.8469,1.8705,1.8717,1.8794,1.9051,1.9348,1.9274,1.8863,1.8645,1.9258,2.0689,2.078,2.0505,1.9857,1.9305,1.8566,1.7703,1.7792,1.7968,1.8264,1.94,2.0202,2.0496,2.0692,2.0771,2.0713,2.0461,2.0612,2.1258,2.136,2.1627,2.218,2.1876,2.1267,2.0305,2.0852,2.1354,2.1584,2.1694,2.2049,2.2707,2.3089,2.3309,2.3354,2.3566,2.3688,2.3683,2.3666,2.3899,2.4456,2.4672,2.4888,2.5396,2.5549,2.5794,2.6297,2.651,2.6692,2.7012,2.7103,2.7103,2.7103,2.7103,2.7103,2.7103,2.7103,2.7103,2.7103,2.7103,2.7103,2.7103,2.7103,2.7103,2.7133,2.7103,2.7133,2.7133,2.7194,2.7285,2.7719,2.7448,2.7224,2.7719,2.8259,2.8409,2.3918,2.3986,2.393,2.4144,2.4429,2.405,2.3723,2.3416,2.3412,2.3229,2.2929,2.2409,2.1913,2.1462,2.0501,1.9714,1.9065,1.8291,1.8286,1.8889,1.8917,1.9175,1.9568,1.9516,1.9315,1.8949,1.8655,1.8502,1.8496,1.8591,1.865,1.8686,1.8717,1.8741,1.8778,1.9023,1.9122,1.9049,1.9134,1.9209,1.9291,1.8546,1.8135,1.8043,1.7807,1.7512,1.7541,1.8136,1.8512,1.8813,1.9523,2.0698,2.2348,2.2089,2.2457,2.369,2.3323,2.3074,2.3186,2.2557,2.2006,2.1649,2.1551,2.1466,2.1315,2.1404,2.1596,2.1904,2.2438,2.2979,2.3436,2.3972,2.4303,2.4316,2.4163,2.4023,2.4053,2.4022,2.4162,2.4579,2.4857,2.5011,2.5165,2.5426,2.561,2.5794,2.6266,2.6722,2.7012,2.7103,2.7103,2.7103,2.7103,2.7103,2.7103,2.7103,2.7103,2.7103,2.7103,2.7103,2.7103,2.7103,2.7103,2.7103,2.7103,2.7103,2.7103,2.7103,2.7164,2.7285,2.7164,2.7164,2.7285,2.7405,2.7435,2.2276,2.2448,2.2448,2.2688,2.2996,2.2859,2.2719,2.2532,2.2151,2.2135,2.2341,2.2154,2.1483,2.0491,1.9733,1.8966,1.8145,1.7321,1.7404,1.8188,1.8335,1.8752,1.9391,1.9449,1.9443,1.9403,1.9086,1.9044,1.9157,1.9277,1.9338,1.9358,1.9225,1.9068,1.8947,1.9044,1.9098,1.91,1.9347,1.9505,1.9599,2.006,2.0256,2.011,2.0738,2.1096,2.097,2.1737,2.2272,2.2564,2.2857,2.3458,2.432,2.3683,2.3566,2.4269,2.3597,2.3166,2.3149,2.2897,2.2564,2.2158,2.2454,2.2632,2.2632,2.2289,2.2243,2.2585,2.3056,2.3551,2.4069,2.4273,2.4388,2.461,2.4301,2.4177,2.4301,2.4193,2.4332,2.4764,2.4826,2.4888,2.5072,2.5226,2.5426,2.561,2.6175,2.6739,2.7043,2.7103,2.7103,2.7103,2.7103,2.7103,2.7103,2.7103,2.7103,2.7103,2.7103,2.7103,2.7103,2.7103,2.7103,2.7103,2.7103,2.7103,2.7103,2.7103,2.7103,2.7103,2.7103,2.7103,2.7103,2.7103,2.7103,2.0839,2.1081,2.1069,2.1254,2.1565,2.1725,2.1782,2.1679,2.1225,2.1283,2.1698,2.1603,2.0965,1.996,1.9043,1.83,1.7685,1.6803,1.6962,1.7948,1.8155,1.8723,1.9537,1.9793,1.9978,2.0047,1.983,1.9775,1.9902,1.9881,1.9881,1.989,1.9862,1.9695,1.9426,1.9586,1.963,1.9556,1.987,2.0032,2.0059,2.1361,2.1946,2.1901,2.3315,2.4039,2.3827,2.4772,2.5443,2.5665,2.5622,2.5549,2.5481,2.4556,2.3995,2.3876,2.3183,2.2752,2.2763,2.2967,2.2989,2.2726,2.3103,2.3389,2.3417,2.309,2.2975,2.3296,2.3636,2.4069,2.4471,2.4477,2.4452,2.4672,2.4425,2.4317,2.4518,2.4363,2.4394,2.4888,2.4826,2.4826,2.5011,2.5072,2.5304,2.5717,2.6236,2.6709,2.7012,2.7103,2.7103,2.7103,2.7103,2.7103,2.7103,2.7103,2.7103,2.7103,2.7103,2.7103,2.7103,2.7103,2.7103,2.7103,2.7103,2.7103,2.7103,2.7103,2.7103,2.7103,2.7103,2.7103,2.7103,2.7103,2.7103,2.07,2.0735,2.077,2.077,2.0908,2.1484,2.1575,2.1205,2.0501,2.0448,2.0855,2.0401,2.0525,2.0801,1.8986,1.846,1.8999,1.823,1.8494,1.9631,1.9804,2.0147,2.0696,2.0737,2.0638,2.041,2.0344,2.0169,1.9996,1.995,1.9893,1.9981,2.0543,2.0669,2.0481,2.0993,2.1203,2.0943,2.1245,2.0895,1.9824,2.0136,2.0456,2.0758,2.2394,2.3274,2.3501,2.4912,2.5733,2.567,2.5402,2.5145,2.4913,2.4025,2.3379,2.3155,2.2788,2.2621,2.263,2.2898,2.3047,2.3047,2.2825,2.2885,2.3139,2.3352,2.3636,2.3913,2.4251,2.4457,2.4625,2.4758,2.4855,2.4856,2.4703,2.4579,2.4579,2.4579,2.4579,2.461,2.4826,2.5042,2.5072,2.5103,2.538,2.5975,2.6358,2.6722,2.7043,2.7103,2.7103,2.7103,2.7103,2.7103,2.7103,2.7103,2.7103,2.7103,2.7103,2.7103,2.7103,2.7103,2.7103,2.7103,2.7103,2.7103,2.7103,2.7103,2.7103,2.7103,2.7103,2.7103,2.7103,2.7103,2.7103,2.07,2.07,2.07,2.07,2.077,2.1254,2.1104,2.0537,2.0225,2.0235,2.0242,1.9343,1.9227,1.9699,1.8815,1.8437,1.8394,1.8392,1.8611,1.9006,1.9144,1.9589,2.0228,2.0029,2.0276,2.0906,2.075,2.0623,2.0622,2.0476,2.0313,2.0236,2.0885,2.1081,2.0892,2.1523,2.1832,2.1664,2.1619,2.1448,2.1269,2.202,2.2328,2.2252,2.3671,2.4633,2.4809,2.5152,2.5496,2.5927,2.5057,2.4454,2.4369,2.3647,2.3177,2.3032,2.2598,2.2142,2.1781,2.2225,2.2509,2.2523,2.2761,2.2956,2.3078,2.3242,2.338,2.3535,2.3978,2.4147,2.381,2.4039,2.4301,2.4456,2.4548,2.4579,2.461,2.4425,2.4363,2.4548,2.4548,2.4703,2.5042,2.5273,2.5672,2.6236,2.654,2.6739,2.7043,2.7103,2.7103,2.7103,2.7103,2.7103,2.7103,2.7103,2.7103,2.7103,2.7103,2.7103,2.7103,2.7103,2.7103,2.7103,2.7103,2.7103,2.7103,2.7103,2.7103,2.7103,2.7103,2.7103,2.7103,2.7103,2.7103,2.0063,2.0098,2.0411,2.0631,2.0839,2.0873,2.0584,2.0017,1.9448,1.9204,1.9193,1.7986,1.763,1.8008,1.8283,1.8283,1.8181,1.8418,1.8552,1.8485,1.8575,1.8991,1.9563,1.9342,1.9899,2.0953,2.0773,2.0781,2.0953,2.0492,2.0292,2.0468,2.1161,2.1361,2.1206,2.1978,2.2424,2.2346,2.2351,2.2594,2.2987,2.3669,2.3674,2.3043,2.4239,2.4992,2.499,2.496,2.5021,2.5241,2.4124,2.3394,2.3185,2.2617,2.2408,2.2617,2.2226,2.1817,2.1462,2.1963,2.2231,2.2246,2.2647,2.2825,2.2825,2.2825,2.2731,2.2591,2.3168,2.3355,2.323,2.3324,2.3573,2.379,2.4038,2.4177,2.4131,2.3945,2.3976,2.4363,2.427,2.4363,2.4949,2.5288,2.5656,2.6266,2.6601,2.6783,2.7043,2.7103,2.7103,2.7103,2.7103,2.7103,2.7103,2.7103,2.7103,2.7103,2.7103,2.7103,2.7103,2.7103,2.7103,2.7103,2.7103,2.7103,2.7103,2.7103,2.7103,2.7103,2.7103,2.7103,2.7103,2.7103,2.7103,1.8482,1.8692,1.9669,2.048,2.1116,2.0399,2.0086,1.9704,1.783,1.7092,1.7313,1.6317,1.5973,1.6455,1.7323,1.8191,1.8823,1.8372,1.8429,1.8878,1.8585,1.8686,1.9096,1.9046,1.9565,2.0512,2.0201,2.0201,2.0492,1.9657,1.9645,2.0641,2.1343,2.1594,2.1534,2.264,2.3256,2.2976,2.3666,2.4463,2.4692,2.4225,2.3339,2.2468,2.3139,2.3451,2.3095,2.4271,2.4378,2.2862,2.2418,2.1876,2.1293,2.071,2.0848,2.1586,2.1689,2.1754,2.1992,2.2267,2.2469,2.2483,2.2233,2.2135,2.2135,2.2135,2.1915,2.1299,2.1915,2.2418,2.2856,2.2981,2.3074,2.3106,2.3168,2.323,2.3199,2.323,2.3448,2.3914,2.4022,2.4301,2.4949,2.5118,2.5486,2.6114,2.6692,2.7073,2.7073,2.7103,2.7103,2.7103,2.7103,2.7103,2.7103,2.7103,2.7103,2.7103,2.7103,2.7103,2.7103,2.7103,2.7103,2.7103,2.7103,2.7103,2.7103,2.7103,2.7103,2.7103,2.7103,2.7103,2.7103,2.7103,2.7103,1.8552,1.8808,1.9227,1.9436,1.939,1.939,1.8716,1.7559,1.6997,1.6503,1.6204,1.578,1.5824,1.6214,1.6588,1.7037,1.7506,1.7329,1.7358,1.7576,1.7405,1.7691,1.8304,1.832,1.8878,1.9669,1.932,1.8832,1.8622,1.8773,1.9192,1.9785,2.1104,2.1743,2.1838,2.2597,2.3024,2.2951,2.3156,2.3356,2.3677,2.3224,2.2804,2.2641,2.2801,2.2918,2.292,2.3122,2.2764,2.1923,2.1589,2.1235,2.0891,2.1171,2.1407,2.1579,2.1593,2.1554,2.1492,2.1551,2.1632,2.1646,2.1551,2.1488,2.1457,2.1457,2.1362,2.1204,2.1299,2.1601,2.1835,2.2167,2.248,2.2512,2.2825,2.2981,2.2856,2.2793,2.2887,2.3106,2.3324,2.379,2.4548,2.4964,2.5439,2.6266,2.683,2.7043,2.7073,2.7103,2.7103,2.7103,2.7103,2.7103,2.7103,2.7103,2.7103,2.7103,2.7103,2.7103,2.7103,2.7103,2.7103,2.7103,2.7103,2.7103,2.7103,2.7103,2.7103,2.7103,2.7103,2.7103,2.7103,2.7154,2.7137,1.8072,1.8563,1.8493,1.8517,1.8552,1.8191,1.7348,1.615,1.5903,1.5523,1.5106,1.5035,1.5221,1.5434,1.547,1.5647,1.5992,1.623,1.6346,1.6346,1.6346,1.6628,1.7087,1.7298,1.7931,1.8727,1.8191,1.7665,1.7534,1.7756,1.8142,1.8738,2.0167,2.0965,2.1173,2.2035,2.2548,2.2524,2.2518,2.2727,2.2937,2.2491,2.2171,2.2131,2.1713,2.1657,2.2161,2.1683,2.1197,2.0712,2.0406,2.0272,2.0367,2.1127,2.1583,2.1457,2.1443,2.1362,2.1141,2.1109,2.1109,2.1109,2.1109,2.1109,2.1109,2.1109,2.1109,2.1109,2.1109,2.1109,2.1172,2.152,2.1772,2.1821,2.2198,2.2355,2.2167,2.2104,2.2198,2.2449,2.2637,2.323,2.4069,2.4517,2.5071,2.5853,2.654,2.7043,2.683,2.6982,2.7103,2.7103,2.7103,2.7103,2.7073,2.7073,2.7103,2.7103,2.7103,2.7103,2.7103,2.7103,2.7103,2.7103,2.7103,2.7103,2.7103,2.7103,2.7103,2.7103,2.7103,2.7103,2.7154,2.724,2.7309,1.6885,1.7756,1.7464,1.7805,1.8296,1.6926,1.6115,1.5735,1.4608,1.4145,1.411,1.4011,1.4118,1.4011,1.4154,1.4225,1.4688,1.5257,1.5567,1.5638,1.5673,1.5709,1.5815,1.6214,1.685,1.7756,1.7067,1.7067,1.751,1.6628,1.6699,1.7826,1.8738,1.9401,1.9529,2.0896,2.1622,2.1687,2.2121,2.2751,2.3154,2.2142,2.1351,2.0743,1.9879,1.9693,2.031,2.0149,1.9817,1.914,1.8894,1.8944,1.9711,2.0412,2.0792,2.1109,2.1109,2.1109,2.1109,2.1109,2.1109,2.1109,2.1109,2.1109,2.1109,2.1109,2.1109,2.1109,2.1109,2.1109,2.1109,2.1172,2.1204,2.1141,2.133,2.133,2.1235,2.1172,2.1362,2.1915,2.2073,2.2512,2.3355,2.3899,2.4301,2.4949,2.5961,2.6679,2.6236,2.6479,2.6921,2.6952,2.677,2.6618,2.6861,2.7073,2.7073,2.7103,2.7103,2.7103,2.7103,2.7103,2.7103,2.7103,2.7103,2.7103,2.7103,2.7103,2.7103,2.7103,2.7103,2.7189,2.7292,2.7381,2.7569,1.6275,1.6981,1.6381,1.616,1.6185,1.5593,1.5061,1.4573,1.4039,1.3904,1.3904,1.3904,1.3904,1.3904,1.3904,1.3975,1.4118,1.4368,1.4688,1.515,1.547,1.5567,1.5683,1.6001,1.6249,1.624,1.578,1.5638,1.5931,1.6169,1.6664,1.7193,1.8061,1.8587,1.8762,1.9216,1.946,1.9564,2.019,2.0399,2.0074,2.0156,1.9866,1.9242,1.9277,1.93,1.9037,1.9328,1.9283,1.8884,1.9286,1.9673,2.0004,2.057,2.0982,2.1077,2.1109,2.1109,2.1109,2.1109,2.1109,2.1109,2.1109,2.1109,2.1109,2.1109,2.1109,2.1077,2.1077,2.1109,2.1109,2.1109,2.1136,2.1109,2.1109,2.1109,2.1109,2.1109,2.1204,2.1362,2.1411,2.1853,2.2683,2.3245,2.3819,2.4471,2.5336,2.5704,2.5549,2.5704,2.5717,2.5717,2.5747,2.6053,2.6266,2.6527,2.6682,2.6851,2.6972,2.709,2.7103,2.7103,2.7103,2.7137,2.7137,2.7154,2.7154,2.7206,2.7257,2.7244,2.733,2.7398,2.7467,2.7655,2.7912,1.5992,1.6204,1.5496,1.5141,1.4955,1.475,1.4324,1.3932,1.3904,1.3904,1.3904,1.3904,1.3904,1.3904,1.3904,1.3904,1.3904,1.3904,1.4154,1.4652,1.515,1.5363,1.5434,1.5789,1.5753,1.5399,1.4981,1.4795,1.483,1.5496,1.5957,1.624,1.7183,1.7851,1.8002,1.8142,1.8272,1.8447,1.8762,1.8738,1.8552,1.8866,1.8866,1.8552,1.8866,1.9076,1.9008,1.9427,1.9524,1.9507,2.0212,2.0727,2.0851,2.1125,2.1269,2.1256,2.1176,2.1109,2.1109,2.1109,2.1109,2.1109,2.1109,2.1109,2.1109,2.1109,2.1109,2.1077,2.1216,2.1301,2.1283,2.139,2.143,2.1443,2.1229,2.1122,2.1109,2.1109,2.1176,2.1274,2.1328,2.1801,2.2507,2.3218,2.3661,2.4356,2.5015,2.5202,2.514,2.5155,2.5138,2.5152,2.5257,2.5502,2.5717,2.5947,2.6211,2.6519,2.6797,2.6972,2.7103,2.7103,2.712,2.7189,2.7176,2.7347,2.7364,2.7552,2.7655,2.7638,2.7621,2.7758,2.7895,2.82,2.8423,1.5914,1.5514,1.4821,1.4704,1.4847,1.4283,1.4005,1.3953,1.3953,1.3933,1.3961,1.3953,1.3937,1.392,1.392,1.3904,1.3904,1.3904,1.3904,1.4154,1.4652,1.5017,1.5221,1.5399,1.5328,1.5044,1.4688,1.4546,1.4652,1.483,1.4697,1.5266,1.6204,1.6805,1.7062,1.752,1.7791,1.7886,1.7931,1.8026,1.8166,1.8307,1.8342,1.8272,1.8482,1.8971,1.9796,2.0201,2.0335,2.0447,2.1294,2.178,2.1891,2.1756,2.1609,2.1628,2.1309,2.1243,2.1189,2.1256,2.1243,2.1256,2.1243,2.1149,2.1211,2.1283,2.1269,2.1269,2.1489,2.1609,2.1649,2.1796,2.1897,2.1897,2.1523,2.1269,2.1176,2.1203,2.1349,2.1555,2.1655,2.1949,2.2786,2.3418,2.3789,2.4192,2.5001,2.5071,2.4839,2.4779,2.5141,2.5062,2.4766,2.5078,2.5328,2.589,2.614,2.6328,2.667,2.6974,2.7194,2.7238,2.7347,2.7398,2.7432,2.7569,2.7672,2.786,2.798,2.798,2.8032,2.8169,2.8357,2.8629,2.88,1.5218,1.5308,1.4675,1.4469,1.4542,1.4331,1.4249,1.4257,1.4249,1.4233,1.4261,1.4156,1.4107,1.4127,1.3969,1.3904,1.392,1.392,1.3904,1.3967,1.4403,1.4972,1.5221,1.4972,1.4866,1.4901,1.4617,1.4625,1.4874,1.5079,1.515,1.5017,1.5567,1.5815,1.5718,1.6063,1.624,1.6442,1.7157,1.7203,1.6946,1.7404,1.758,1.765,1.8422,1.9262,2.0156,2.116,2.162,2.1467,2.1727,2.1938,2.2044,2.1957,2.1903,2.189,2.179,2.1737,2.1737,2.1724,2.1737,2.175,2.1697,2.1764,2.175,2.175,2.175,2.1764,2.1877,2.1903,2.1917,2.1997,2.2037,2.1964,2.1857,2.1737,2.1724,2.175,2.179,2.189,2.1903,2.2187,2.2629,2.3084,2.3477,2.3804,2.4278,2.4675,2.4413,2.4366,2.4703,2.4312,2.4157,2.4611,2.507,2.5691,2.6104,2.6215,2.6549,2.7023,2.7317,2.7582,2.7756,2.7963,2.7929,2.8032,2.8049,2.8134,2.8203,2.8357,2.846,2.8597,2.8717,2.8905,2.9076,1.4926,1.4843,1.4506,1.4395,1.4395,1.4395,1.4395,1.4395,1.4395,1.4395,1.4371,1.4335,1.4286,1.427,1.4172,1.4087,1.4123,1.4123,1.424,1.4421,1.4683,1.4923,1.4981,1.4652,1.451,1.451,1.4376,1.4474,1.4724,1.5044,1.5079,1.5052,1.5221,1.5292,1.5363,1.5115,1.5434,1.5815,1.6249,1.6214,1.6249,1.7087,1.7721,1.8142,1.9087,2.0051,2.1022,2.2035,2.2472,2.234,2.2334,2.2356,2.2365,2.2231,2.2178,2.2164,2.2058,2.201,2.2024,2.2024,2.2024,2.1977,2.2024,2.2024,2.1964,2.2024,2.2024,2.1997,2.2117,2.2151,2.2191,2.2305,2.2372,2.2412,2.2385,2.2245,2.2031,2.1997,2.2077,2.2111,2.2164,2.2364,2.2779,2.3173,2.3539,2.3933,2.4388,2.443,2.4257,2.425,2.4188,2.4013,2.394,2.4384,2.4784,2.5318,2.5764,2.5923,2.6648,2.71,2.7499,2.7832,2.8048,2.8254,2.8357,2.8474,2.8443,2.8511,2.8734,2.8871,2.8939,2.9008,2.9111,2.923,2.9402,1.4849,1.4245,1.4416,1.4452,1.446,1.4427,1.4444,1.4427,1.4403,1.4395,1.4387,1.4371,1.4314,1.4371,1.4233,1.4306,1.4298,1.4225,1.4518,1.4739,1.4841,1.4804,1.4582,1.4529,1.4341,1.4153,1.3989,1.4159,1.4454,1.4544,1.4652,1.4759,1.4874,1.5079,1.5088,1.4892,1.5186,1.5782,1.5766,1.607,1.6622,1.748,1.8227,1.92,2.0202,2.1195,2.207,2.2688,2.2846,2.2859,2.2893,2.2819,2.2827,2.2579,2.2485,2.2432,2.2285,2.2151,2.2144,2.2164,2.2158,2.2184,2.2171,2.2104,2.2184,2.2211,2.2211,2.2224,2.2325,2.2445,2.2498,2.2733,2.28,2.2786,2.284,2.2626,2.2265,2.2104,2.2178,2.2385,2.2472,2.2775,2.3229,2.3713,2.406,2.4017,2.4482,2.4623,2.4543,2.4558,2.4456,2.425,2.4221,2.4265,2.4607,2.4933,2.5277,2.5611,2.6603,2.7261,2.7734,2.8087,2.8254,2.846,2.87,2.8852,2.8869,2.8991,2.9163,2.9333,2.9367,2.9402,2.947,2.9607,2.9728,1.4744,1.4611,1.4819,1.4892,1.4868,1.4708,1.4614,1.4635,1.4497,1.4427,1.4379,1.431,1.4261,1.429,1.4172,1.4018,1.4071,1.4079,1.4163,1.4338,1.4383,1.4441,1.4396,1.4465,1.4384,1.4241,1.4172,1.4196,1.4316,1.4432,1.4376,1.425,1.4605,1.4518,1.4437,1.5031,1.5272,1.566,1.6031,1.6705,1.7336,1.798,1.8905,2.0157,2.1306,2.2104,2.2619,2.2859,2.2893,2.2893,2.2893,2.2893,2.288,2.2827,2.2773,2.2712,2.2733,2.2679,2.2693,2.2653,2.2706,2.2653,2.2626,2.2706,2.2706,2.2666,2.2679,2.2706,2.2773,2.2773,2.2773,2.284,2.2893,2.2893,2.2893,2.2853,2.2733,2.2679,2.2706,2.2746,2.2773,2.2861,2.3017,2.3645,2.3986,2.417,2.4486,2.4824,2.488,2.4851,2.4705,2.4514,2.4642,2.4715,2.4878,2.5208,2.5476,2.5883,2.6726,2.7441,2.7932,2.8624,2.8948,2.9076,2.9128,2.9213,2.9316,2.9299,2.9437,2.9624,2.9778,2.9847,2.9882,3.0002,3.0087,1.4578,1.4603,1.4854,1.5006,1.499,1.4871,1.483,1.4814,1.4732,1.4684,1.4667,1.4616,1.4583,1.4583,1.4448,1.4342,1.4178,1.4141,1.4048,1.4105,1.43,1.4528,1.4471,1.4584,1.4619,1.4419,1.4306,1.4375,1.4517,1.4496,1.4463,1.4446,1.4692,1.4871,1.4736,1.5267,1.5712,1.6058,1.6333,1.6903,1.7633,1.8751,2.0069,2.1451,2.2341,2.2688,2.2859,2.2893,2.2893,2.2893,2.2893,2.2893,2.2893,2.2893,2.2893,2.2893,2.2893,2.2893,2.2893,2.2893,2.288,2.2893,2.2893,2.2893,2.2893,2.2893,2.2893,2.2893,2.2893,2.2893,2.2893,2.2893,2.2893,2.2893,2.2907,2.2907,2.2907,2.2893,2.2893,2.2893,2.288,2.288,2.3099,2.3577,2.3912,2.4116,2.4674,2.4993,2.5012,2.4983,2.4968,2.4924,2.511,2.5242,2.5339,2.5599,2.5923,2.6409,2.7072,2.7647,2.8144,2.8976,2.978,2.9745,2.9693,2.983,2.9915,2.9813,2.9762,3.0001,3.0172,3.0241,3.0292,3.0292,3.0429,1.4513,1.4538,1.4876,1.5006,1.4998,1.4966,1.4941,1.4949,1.4895,1.4797,1.4917,1.4925,1.4787,1.4876,1.4814,1.4634,1.4351,1.4137,1.39,1.3816,1.4501,1.4618,1.4559,1.4818,1.4873,1.4529,1.4489,1.4658,1.4798,1.4736,1.4772,1.5044,1.5163,1.5268,1.5523,1.5798,1.6065,1.649,1.6703,1.7102,1.7987,1.9501,2.1258,2.2648,2.2988,2.2892,2.292,2.2893,2.2893,2.2893,2.2893,2.2893,2.2893,2.2893,2.2893,2.2893,2.2893,2.2893,2.2893,2.2893,2.2893,2.2893,2.2893,2.2893,2.2893,2.2907,2.2947,2.2979,2.3033,2.3121,2.3041,2.3121,2.3094,2.3081,2.3054,2.3027,2.3027,2.3027,2.3067,2.2893,2.2893,2.2893,2.3065,2.3441,2.3741,2.4124,2.4683,2.512,2.5154,2.5232,2.5242,2.5301,2.5505,2.5593,2.5657,2.577,2.6106,2.6722,2.7374,2.8026,2.8542,2.9524,3.0293,3.0275,3.0258,3.0309,3.0292,3.0173,3.0207,3.0412,3.0515,3.0617,3.0617,3.0566,3.0806,1.4917,1.4917,1.4982,1.5006,1.4982,1.4814,1.4773,1.4724,1.4627,1.4492,1.4554,1.4492,1.4578,1.4525,1.4492,1.4276,1.3913,1.3642,1.3468,1.3596,1.4265,1.4549,1.4576,1.5091,1.5225,1.4939,1.4816,1.496,1.5143,1.5117,1.5257,1.553,1.5613,1.5687,1.586,1.6099,1.6497,1.6861,1.7255,1.7962,1.887,2.0232,2.1764,2.3179,2.3244,2.3084,2.2953,2.292,2.2893,2.2893,2.2893,2.292,2.296,2.296,2.2947,2.2893,2.2893,2.2893,2.2893,2.292,2.2907,2.2893,2.296,2.2947,2.2934,2.2947,2.3094,2.3247,2.3447,2.3616,2.3656,2.3562,2.3629,2.3629,2.3589,2.3589,2.3589,2.3549,2.3388,2.3108,2.3,2.2974,2.3226,2.3501,2.3853,2.4212,2.4655,2.5204,2.5499,2.5592,2.5734,2.5792,2.5866,2.5895,2.5944,2.6009,2.6258,2.6934,2.766,2.8554,2.923,3.0217,3.0719,3.0737,3.0635,3.0566,3.0515,3.0515,3.0634,3.084,3.0943,3.1011,3.1046,3.1063,3.1183,1.4838,1.4846,1.4966,1.5006,1.499,1.4917,1.4838,1.483,1.4749,1.4708,1.4708,1.4708,1.4708,1.467,1.4444,1.4074,1.3498,1.3013,1.2903,1.3159,1.3778,1.4305,1.4468,1.5198,1.559,1.5595,1.5527,1.5409,1.5485,1.5644,1.5792,1.596,1.6139,1.6252,1.642,1.6954,1.719,1.7407,1.7939,1.8595,1.9342,2.0723,2.2188,2.3226,2.3266,2.3086,2.331,2.2894,2.2977,2.327,2.3375,2.3362,2.3348,2.3322,2.3215,2.2987,2.292,2.2907,2.2947,2.2979,2.3113,2.3126,2.322,2.3362,2.3362,2.3415,2.3429,2.3576,2.3634,2.3817,2.379,2.383,2.3817,2.3817,2.383,2.383,2.383,2.383,2.3643,2.3415,2.3442,2.3455,2.3485,2.3736,2.3995,2.4351,2.4687,2.52,2.5709,2.5894,2.6008,2.6129,2.6172,2.6325,2.6339,2.6404,2.639,2.7008,2.7923,2.8844,2.9628,3.0448,3.0972,3.1183,3.1046,3.096,3.1028,3.1131,3.12,3.1217,3.1268,3.1319,3.1456,3.1595,3.1646,1.4757,1.4773,1.4949,1.5006,1.5006,1.5006,1.4998,1.5006,1.4998,1.4982,1.5006,1.4998,1.4913,1.4729,1.4307,1.3729,1.3081,1.2719,1.2558,1.2713,1.3375,1.3929,1.4307,1.5122,1.5705,1.5859,1.6339,1.6203,1.6024,1.6151,1.6377,1.6646,1.6902,1.7035,1.7283,1.7645,1.7987,1.8215,1.8529,1.8974,1.9978,2.1003,2.2398,2.376,2.3104,2.2962,2.3274,2.3177,2.3248,2.3594,2.3763,2.3777,2.3803,2.3803,2.3576,2.3174,2.3094,2.3081,2.3148,2.326,2.3407,2.342,2.3656,2.3763,2.3803,2.3777,2.387,2.3897,2.3991,2.4008,2.4035,2.3968,2.3981,2.4031,2.3995,2.3955,2.4008,2.4048,2.4062,2.3955,2.3941,2.387,2.3785,2.3789,2.4023,2.4528,2.4867,2.5349,2.5848,2.6063,2.6234,2.6341,2.6486,2.6691,2.6764,2.6793,2.68,2.6951,2.8064,2.9127,2.9832,3.0537,3.098,3.1492,3.1611,3.1559,3.1628,3.1612,3.1492,3.1457,3.156,3.1595,3.1612,3.1732,3.1816,1.4974,1.4974,1.4998,1.5006,1.5006,1.5006,1.5006,1.5006,1.5006,1.5006,1.5006,1.4968,1.4776,1.4322,1.3667,1.3242,1.3004,1.2733,1.2501,1.2617,1.3281,1.3583,1.366,1.493,1.5697,1.6127,1.6892,1.6959,1.6806,1.6806,1.7111,1.7531,1.7416,1.7616,1.8035,1.8139,1.8177,1.8529,1.8946,1.9957,2.1262,2.1291,2.1943,2.2729,2.292,2.2832,2.2968,2.3158,2.3562,2.3799,2.3843,2.383,2.3817,2.3817,2.379,2.3723,2.3696,2.3696,2.3621,2.3674,2.3714,2.3728,2.3843,2.3817,2.3901,2.4048,2.4155,2.4168,2.4342,2.4412,2.4386,2.4439,2.4479,2.4439,2.4409,2.4399,2.4426,2.4289,2.4315,2.4319,2.4289,2.4088,2.3964,2.3968,2.4049,2.4583,2.5094,2.5544,2.5976,2.6229,2.646,2.6589,2.6661,2.6852,2.691,2.6983,2.6998,2.6998,2.8145,2.9298,2.9851,3.0475,3.1274,3.1697,3.1885,3.1987,3.1902,3.1817,3.168,3.1715,3.1886,3.1783,3.1612,3.18,3.2056,1.5006,1.5006,1.5006,1.5006,1.5006,1.5006,1.5006,1.5006,1.5006,1.5006,1.493,1.4737,1.4322,1.3706,1.3242,1.2965,1.2772,1.2579,1.2501,1.2617,1.312,1.3505,1.4153,1.5228,1.608,1.6653,1.7502,1.7997,1.7759,1.7569,1.7721,1.7911,1.7835,1.7835,1.8453,1.8557,1.8747,1.9012,1.9428,2.0221,2.1075,2.1251,2.1466,2.246,2.214,2.2313,2.2875,2.2839,2.3447,2.3934,2.4262,2.4262,2.4262,2.4275,2.4262,2.4262,2.4262,2.4102,2.3834,2.3941,2.3995,2.4075,2.4142,2.4289,2.4289,2.4342,2.4436,2.4412,2.4519,2.4586,2.4599,2.4599,2.4599,2.4599,2.4599,2.4599,2.4599,2.4599,2.4532,2.4572,2.4572,2.4346,2.4209,2.4245,2.4281,2.4543,2.4966,2.5363,2.5929,2.6467,2.6714,2.6925,2.6925,2.6954,2.6969,2.6998,2.7049,2.7231,2.8284,2.9258,2.9685,3.0346,3.13,3.1952,3.2227,3.2261,3.2195,3.2195,3.2141,3.2176,3.221,3.2143,3.2075,3.2246,3.245,1.5006,1.5006,1.5006,1.5006,1.5006,1.5006,1.5006,1.5006,1.5006,1.493,1.4699,1.4284,1.3667,1.3197,1.3004,1.2772,1.254,1.2617,1.2656,1.2772,1.3081,1.3583,1.4237,1.5305,1.6156,1.6968,1.7455,1.7883,1.7987,1.7911,1.7759,1.8253,1.8225,1.8367,1.8595,1.8898,1.9174,1.939,1.9693,2.0296,2.0887,2.0812,2.1187,2.1487,2.1524,2.1637,2.2769,2.2905,2.3339,2.4227,2.4532,2.4519,2.4519,2.4506,2.4519,2.4519,2.4506,2.4422,2.4222,2.4209,2.4289,2.4346,2.4412,2.4519,2.4546,2.4599,2.4586,2.4559,2.4572,2.4599,2.4599,2.4599,2.4599,2.4599,2.4599,2.4599,2.4599,2.4599,2.4599,2.4599,2.4599,2.4599,2.4492,2.4532,2.4596,2.4609,2.4857,2.5249,2.5887,2.6619,2.6801,2.6998,2.7013,2.7013,2.7013,2.7013,2.7013,2.7415,2.8448,2.9303,2.9829,3.0631,3.1649,3.2178,3.2567,3.2689,3.2743,3.2689,3.2672,3.2535,3.245,3.2552,3.2604,3.2741,3.2895,1.5006,1.5006,1.5006,1.5006,1.5006,1.5006,1.5006,1.5006,1.5006,1.4776,1.4361,1.366,1.3312,1.3042,1.2811,1.2656,1.254,1.2888,1.3004,1.3197,1.3467,1.3698,1.4237,1.4814,1.5467,1.6003,1.6883,1.7378,1.7369,1.7378,1.7949,1.8822,1.8291,1.8946,1.9163,1.9012,1.939,1.9617,1.9881,2.0221,2.0511,2.0473,2.0447,2.0924,2.1063,2.1412,2.2247,2.2769,2.3525,2.4488,2.4599,2.4599,2.4599,2.4599,2.4599,2.4599,2.4599,2.4519,2.4452,2.4439,2.4519,2.4559,2.4586,2.4599,2.4599,2.4599,2.4599,2.4599,2.4599,2.4599,2.4599,2.4599,2.4599,2.4599,2.4599,2.4599,2.4599,2.4599,2.4599,2.4599,2.4599,2.4599,2.4599,2.4599,2.4599,2.4599,2.5212,2.5616,2.618,2.6801,2.691,2.6998,2.7027,2.7027,2.7027,2.7086,2.7291,2.7615,2.8382,2.9272,3.0034,3.0995,3.196,3.2518,3.2946,3.31,3.3203,3.3117,3.2998,3.2775,3.2724,3.2929,3.3032,3.3117,3.334,1.5006,1.5006,1.5006,1.5006,1.5006,1.5006,1.5006,1.5006,1.5006,1.4584,1.3975,1.3628,1.3312,1.312,1.3004,1.3042,1.3235,1.3397,1.3467,1.3505,1.3628,1.386,1.4284,1.4899,1.562,1.6003,1.6721,1.7217,1.7369,1.7026,1.7407,1.7873,1.7683,1.7645,1.7911,1.8699,1.9277,1.973,1.9881,2.0108,2.0145,2.0145,2.0032,2.0248,2.0334,2.1011,2.2023,2.2433,2.3377,2.423,2.4562,2.4599,2.4599,2.4599,2.4599,2.4599,2.4599,2.4599,2.4599,2.4599,2.4599,2.4599,2.4599,2.4599,2.4599,2.4599,2.4599,2.4599,2.4599,2.4599,2.4599,2.4599,2.4599,2.4599,2.4599,2.4599,2.4599,2.4599,2.4599,2.4599,2.4599,2.4599,2.4599,2.4599,2.4599,2.4673,2.5322,2.5997,2.6552,2.6947,2.7064,2.7188,2.7232,2.7276,2.7291,2.7437,2.7561,2.7947,2.8357,2.9293,3.0233,3.1204,3.2122,3.276,3.3289,3.3443,3.3511,3.346,3.3357,3.3237,3.3289,3.3405,3.3511,3.3477,3.3631,1.4876,1.4887,1.4933,1.4958,1.4998,1.5006,1.5006,1.5006,1.5006,1.4622,1.3898,1.3783,1.3551,1.332,1.3281,1.339,1.3628,1.3821,1.3898,1.3968,1.4083,1.4284,1.4669,1.5053,1.5429,1.5956,1.6301,1.6606,1.653,1.6683,1.6606,1.653,1.6492,1.6539,1.7331,1.8016,1.9039,1.9693,1.9881,1.9881,1.9919,1.9919,1.9881,1.9957,1.9957,2.0748,2.1761,2.2359,2.3104,2.4044,2.4599,2.4599,2.4599,2.4599,2.4599,2.4599,2.4599,2.4599,2.4599,2.4599,2.4599,2.4599,2.4599,2.4599,2.4599,2.4599,2.4599,2.4599,2.4599,2.4599,2.4599,2.4599,2.4599,2.4599,2.4599,2.4599,2.4599,2.4599,2.4599,2.4599,2.4599,2.4599,2.4613,2.4649,2.4898,2.4995,2.5433,2.6178,2.6886,2.7188,2.7305,2.7408,2.7539,2.7583,2.7627,2.7692,2.7809,2.8075,2.8565,2.9449,3.042,3.1361,3.2342,3.314,3.3576,3.3748,3.373,3.3628,3.3679,3.373,3.373,3.3662,3.3679,3.3683,3.3717,1.4562,1.4708,1.4716,1.4806,1.4966,1.4998,1.5006,1.5006,1.5006,1.4699,1.4207,1.3898,1.3706,1.366,1.3628,1.3783,1.3968,1.4245,1.4361,1.4438,1.4584,1.4891,1.4968,1.5083,1.5198,1.5045,1.5352,1.5497,1.5267,1.5459,1.539,1.5352,1.5505,1.5995,1.7293,1.8168,1.9002,1.9768,1.9881,1.9881,1.9881,1.9881,1.9881,1.9881,1.9881,2.0635,2.1611,2.2135,2.2918,2.4044,2.4525,2.4599,2.4599,2.4599,2.4599,2.4599,2.4599,2.4599,2.4599,2.4599,2.4599,2.4599,2.4599,2.4599,2.4599,2.4599,2.4599,2.4599,2.4599,2.4599,2.4599,2.4599,2.4599,2.4599,2.4599,2.4599,2.4599,2.4599,2.4599,2.4599,2.4599,2.4599,2.4613,2.475,2.5123,2.5405,2.5667,2.6271,2.7008,2.7295,2.7391,2.7544,2.7653,2.7868,2.7911,2.7941,2.8057,2.8262,2.8715,2.9503,3.0321,3.1172,3.2222,3.3352,3.3765,3.3799,3.3799,3.3782,3.3799,3.3799,3.3799,3.3782,3.3799,3.3799,3.3799,1.4427,1.4484,1.4521,1.4554,1.4643,1.4909,1.5006,1.5006,1.4968,1.4584,1.4091,1.4014,1.3975,1.386,1.4053,1.4284,1.4545,1.4622,1.4776,1.4822,1.493,1.4968,1.5006,1.5006,1.5006,1.5006,1.5006,1.5006,1.5083,1.5006,1.5006,1.5006,1.5122,1.588,1.7026,1.7864,1.8433,1.9617,1.9881,1.9881,1.9881,1.9881,1.9881,1.9881,1.9881,2.0447,2.1412,2.1836,2.2732,2.3785,2.4193,2.4525,2.4562,2.4599,2.4599,2.4599,2.4599,2.4599,2.4599,2.4599,2.4599,2.4599,2.4599,2.4599,2.4599,2.4599,2.4599,2.4599,2.4599,2.4599,2.4599,2.4599,2.4599,2.4599,2.4599,2.4599,2.4599,2.4599,2.4599,2.4599,2.4599,2.4773,2.4877,2.4997,2.5337,2.5602,2.5813,2.6243,2.6904,2.721,2.7366,2.7543,2.7748,2.8069,2.8247,2.8291,2.8364,2.8578,2.885,2.9297,3.0098,3.0994,3.1878,3.293,3.3403,3.3799,3.3799,3.3799,3.3799,3.3799,3.3799,3.3799,3.3799,3.3799,3.3799,1.4286,1.4343,1.4343,1.4346,1.4435,1.4749,1.4903,1.499,1.5006,1.4661,1.4314,1.4476,1.4476,1.4361,1.4476,1.4669,1.5006,1.5006,1.5006,1.5006,1.5006,1.5006,1.5006,1.5006,1.5006,1.5006,1.5006,1.5006,1.5006,1.5006,1.5006,1.5006,1.5045,1.5727,1.6683,1.7369,1.8054,1.9153,1.9579,1.9881,1.9881,1.9881,1.9881,1.9881,1.9995,2.0296,2.0924,2.1599,2.2321,2.3178,2.3859,2.4341,2.4488,2.4599,2.4599,2.4599,2.4599,2.4599,2.4599,2.4599,2.4599,2.4599,2.4599,2.4599,2.4599,2.4599,2.4599,2.4599,2.4599,2.4599,2.4599,2.4599,2.4599,2.4599,2.4599,2.4599,2.4626,2.4626,2.4639,2.4639,2.4836,2.4997,2.517,2.5355,2.5539,2.5745,2.5938,2.6412,2.6836,2.7169,2.753,2.7836,2.8052,2.8375,2.8608,2.8681,2.8769,2.8871,2.9042,2.9197,3.0013,3.0879,3.1686,3.2452,3.323,3.3761,3.3799,3.3799,3.3799,3.3799,3.3799,3.3799,3.3799,3.3799,3.3799,1.401,1.4192,1.4208,1.4261,1.4387,1.4586,1.4773,1.4982,1.499,1.4952,1.493,1.4891,1.4814,1.4891,1.4968,1.4968,1.5006,1.5006,1.5006,1.5006,1.5006,1.5006,1.5006,1.5006,1.5006,1.5006,1.5006,1.5006,1.5006,1.5006,1.5006,1.5006,1.5006,1.5497,1.6148,1.7026,1.7864,1.8774,1.9542,1.9844,1.9881,1.9881,1.9881,1.9881,1.9957,2.0221,2.0699,2.1112,2.1973,2.2769,2.3438,2.3933,2.4304,2.4599,2.4599,2.4599,2.4599,2.4599,2.4599,2.4599,2.4599,2.4599,2.4599,2.4599,2.4599,2.4599,2.4599,2.4599,2.4599,2.4599,2.4599,2.4599,2.4599,2.4599,2.4599,2.4613,2.4653,2.4679,2.4706,2.485,2.5064,2.5264,2.5478,2.5638,2.5824,2.5943,2.6202,2.668,2.7094,2.7403,2.7797,2.8342,2.8545,2.8759,2.8886,2.8871,2.8871,2.8886,2.8925,2.9158,2.9974,3.0631,3.1302,3.2108,3.3137,3.3685,3.3761,3.3799,3.3799,3.3799,3.3799,3.3799,3.3799,3.3799,3.3799,1.3928,1.3977,1.3977,1.401,1.4075,1.4253,1.4505,1.4757,1.4789,1.4732,1.4592,1.4891,1.4891,1.463,1.4853,1.4968,1.5006,1.5006,1.5006,1.5006,1.5006,1.5006,1.5006,1.5006,1.5006,1.5006,1.5006,1.5006,1.5006,1.5006,1.5006,1.5006,1.5006,1.5237,1.5765,1.6721,1.7635,1.8471,1.9277,1.9617,1.973,1.9693,1.9693,1.9693,1.973,1.9984,2.0172,2.0774,2.1599,2.2359,2.3104,2.3735,2.4488,2.4599,2.4599,2.4599,2.4599,2.4599,2.4599,2.4599,2.4599,2.4599,2.4599,2.4599,2.4599,2.4599,2.4599,2.4599,2.4599,2.4599,2.4626,2.4639,2.4653,2.4679,2.4719,2.4813,2.489,2.4957,2.4997,2.5211,2.5476,2.5623,2.5798,2.5972,2.6132,2.6213,2.6449,2.6893,2.7256,2.7554,2.8011,2.8544,2.8769,2.8886,2.8886,2.8886,2.8886,2.8886,2.8925,2.8964,2.9392,3.0013,3.0801,3.1686,3.2642,3.3344,3.3799,3.3685,3.3306,3.3723,3.3761,3.3799,3.3799,3.3685,3.3534,1.3904,1.3904,1.3904,1.3904,1.392,1.4018,1.4237,1.4489,1.4643,1.4654,1.4691,1.4891,1.4853,1.4737,1.4891,1.5006,1.5006,1.5006,1.5006,1.5006,1.5006,1.5006,1.5006,1.5006,1.5006,1.5006,1.5006,1.5006,1.5006,1.5006,1.5006,1.5006,1.5006,1.5006,1.539,1.6186,1.6988,1.7826,1.8547,1.9002,1.9088,1.9002,1.8926,1.9039,1.9153,1.939,1.9569,2.0312,2.1337,2.2172,2.2955,2.3785,2.4451,2.4599,2.4599,2.4599,2.4599,2.4599,2.4599,2.4599,2.4599,2.4599,2.4599,2.4599,2.4599,2.4599,2.4599,2.4599,2.4599,2.4599,2.4653,2.4693,2.4733,2.4823,2.4943,2.5077,2.5157,2.5237,2.5411,2.5638,2.5812,2.5959,2.6132,2.6306,2.6386,2.636,2.6491,2.6832,2.7211,2.7563,2.8072,2.8637,2.8769,2.8886,2.8886,2.8886,2.8886,2.8886,2.8886,2.8964,2.908,2.9586,3.0531,3.1341,3.2108,3.2621,3.2926,3.2811,3.2659,3.3078,3.3344,3.3213,3.3137,3.3175,3.3023,1.3904,1.3904,1.3904,1.3904,1.3904,1.3912,1.4026,1.4241,1.4513,1.4765,1.4903,1.496,1.5006,1.493,1.5006,1.5006,1.5006,1.5006,1.5006,1.5006,1.5006,1.5006,1.5006,1.5006,1.5006,1.5006,1.5006,1.5006,1.5006,1.5006,1.5006,1.5006,1.5006,1.5006,1.5198,1.5918,1.6415,1.6492,1.7407,1.8092,1.7788,1.7512,1.7398,1.7635,1.8092,1.8585,1.9002,1.9973,2.13,2.2135,2.2968,2.3785,2.4341,2.4599,2.4599,2.4599,2.4599,2.4599,2.4599,2.4599,2.4599,2.4599,2.4599,2.4653,2.4679,2.4613,2.4599,2.4756,2.4783,2.4839,2.4906,2.4986,2.509,2.513,2.5211,2.5371,2.5491,2.5611,2.5798,2.5972,2.6039,2.6172,2.6239,2.64,2.64,2.64,2.6465,2.6781,2.7097,2.749,2.8026,2.8588,2.8822,2.89,2.8886,2.8886,2.8886,2.8886,2.8886,2.8886,2.8964,2.9586,3.0338,3.0956,3.1533,3.1571,3.1741,3.1856,3.2031,3.2299,3.249,3.2452,3.2435,3.2375,3.2337,1.3904,1.3904,1.3904,1.3904,1.3904,1.3904,1.401,1.4217,1.4261,1.4489,1.4749,1.4933,1.5006,1.5006,1.5006,1.5006,1.5006,1.5006,1.5006,1.5006,1.5006,1.5006,1.5006,1.5006,1.5006,1.5006,1.5006,1.5006,1.5006,1.5006,1.5006,1.5006,1.5006,1.5006,1.5045,1.5765,1.588,1.5573,1.6259,1.7092,1.7206,1.734,1.7398,1.7483,1.7788,1.8319,1.884,1.9671,2.0962,2.2023,2.2918,2.3785,2.4525,2.4562,2.4599,2.4599,2.4562,2.4525,2.4599,2.4599,2.4599,2.4613,2.4639,2.4796,2.4823,2.4666,2.4693,2.489,2.501,2.5117,2.5211,2.5317,2.5411,2.5451,2.5478,2.5651,2.5798,2.5945,2.6119,2.6172,2.6213,2.6293,2.6346,2.6386,2.6386,2.64,2.64,2.6584,2.69,2.7254,2.7805,2.8353,2.8744,2.89,2.8861,2.8886,2.8886,2.8886,2.8886,2.8886,2.8886,2.9431,3.0013,3.0415,3.0801,3.0801,3.0994,3.1395,3.1587,3.1648,3.1648,3.1555,3.1209,3.1017,3.1225,1.3904,1.3904,1.3904,1.3904,1.3904,1.3904,1.3961,1.4058,1.4176,1.4326,1.4549,1.4765,1.4925,1.499,1.5006,1.5006,1.5006,1.5006,1.5006,1.5006,1.5006,1.5006,1.5006,1.5006,1.5006,1.5006,1.5006,1.5006,1.5006,1.5006,1.5006,1.5006,1.5006,1.5045,1.5083,1.542,1.5505,1.5045,1.5573,1.6039,1.6638,1.6823,1.7073,1.7178,1.8054,1.8661,1.9671,2.05,2.1749,2.2732,2.3562,2.4007,2.4414,2.4193,2.4267,2.4377,2.4341,2.423,2.4465,2.4626,2.4639,2.4666,2.481,2.497,2.5037,2.497,2.5079,2.5264,2.5277,2.5358,2.5451,2.5545,2.5665,2.577,2.5757,2.581,2.5745,2.5718,2.5798,2.5825,2.5932,2.6145,2.6225,2.6386,2.636,2.64,2.64,2.6558,2.6834,2.6953,2.753,2.8001,2.8353,2.8588,2.8588,2.8705,2.8886,2.8886,2.8886,2.8886,2.8925,2.9236,2.9625,2.9858,2.9989,2.995,3.0183,3.0531,3.0724,3.0763,3.0724,3.0724,3.0284,2.9974,3.0168,1.3904,1.3904,1.3904,1.3904,1.3904,1.3904,1.3928,1.3969,1.4083,1.427,1.4489,1.4627,1.4781,1.4958,1.5006,1.5006,1.5006,1.5006,1.5006,1.5006,1.5006,1.5006,1.5006,1.5006,1.5006,1.5006,1.5006,1.5006,1.5006,1.5006,1.5006,1.5006,1.5006,1.5006,1.5006,1.5039,1.5033,1.5082,1.531,1.5291,1.5671,1.6074,1.6398,1.7349,1.8519,1.9795,2.0624,2.1674,2.2806,2.3624,2.397,2.423,2.4156,2.3859,2.3812,2.39,2.3938,2.4039,2.4363,2.4714,2.4762,2.4826,2.5024,2.5144,2.5211,2.5344,2.5504,2.5598,2.5598,2.5625,2.5718,2.5812,2.5971,2.5931,2.5904,2.5824,2.5638,2.5531,2.5531,2.5493,2.5692,2.5931,2.6105,2.6265,2.6359,2.636,2.6479,2.6637,2.6755,2.6755,2.7018,2.7372,2.7687,2.7922,2.825,2.8588,2.8847,2.8886,2.8886,2.8886,2.8925,2.9119,2.9158,2.908,2.9158,2.9329,2.929,2.9446,2.9586,2.9935,2.9897,2.9897,2.9858,2.9586,2.9431,1.3904,1.3904,1.3904,1.3904,1.3904,1.3904,1.3985,1.4127,1.4002,1.4205,1.4521,1.4492,1.4651,1.5006,1.5006,1.5006,1.5006,1.5006,1.5006,1.5006,1.5006,1.5006,1.5006,1.5006,1.5006,1.5006,1.5006,1.5006,1.5055,1.5039,1.5023,1.5047,1.5031,1.5039,1.5047,1.5074,1.5156,1.5205,1.5342,1.5463,1.5375,1.5592,1.5446,1.5983,1.6419,1.7702,1.8953,2.0537,2.2011,2.3215,2.4007,2.4058,2.3724,2.334,2.3267,2.3317,2.3355,2.387,2.4224,2.4869,2.5057,2.5157,2.5317,2.5438,2.5583,2.573,2.5891,2.6012,2.6026,2.6051,2.6118,2.6159,2.6239,2.5957,2.581,2.5611,2.5451,2.5424,2.5411,2.5451,2.5531,2.577,2.5971,2.6118,2.6265,2.6293,2.6386,2.6558,2.6558,2.6584,2.6584,2.686,2.7136,2.7647,2.8157,2.8549,2.8808,2.8847,2.8886,2.8886,2.8886,2.8886,2.8886,2.8886,2.8886,2.9042,2.8925,2.8886,2.9003,2.9314,2.9158,2.9119,2.9158,2.9236,2.9158]},{"header":{"parameterUnit":"m.s-1","parameterCategory":1,"la1":31.0,"la2":29.5877,"lo1":-88.7671,"lo2":-86.6584,"dy":0.0162,"dx":0.0185,"nx":115,"ny":88,"refTime":"2023-11-02T18:00:00:Z","depth":0,"parameterNumber":3,"parameterNumberName":"V-component_of_WINDS"},"data":[0.0,0.0,0.0,0.0,0.0,0.0,0.0,0.0,0.0,0.0,0.0,0.0,0.0,0.0,0.0,0.0,0.0,0.0,0.0,0.0,0.0,0.0,0.0,0.0,0.0,0.0,0.0,0.0,0.0,0.0,0.0,0.0,0.0,0.0,0.0,0.0,0.0,0.0,0.0,0.0,0.0,0.0,0.0,0.0,0.0,0.0,0.0,0.0,0.0,0.0,0.0,0.0,0.0,0.0,0.0,0.0,0.0,0.0,0.0,0.0,0.0,0.0,0.0,0.0,0.0,0.0,0.0,0.0,0.0,0.0,0.0,0.0,0.0,0.0,0.0,0.0,0.0,0.0,0.0,0.0,0.0,0.0,0.0,0.0,0.0,0.0,0.0,0.0,0.0,0.0,0.0,0.0,0.0,0.0,0.0,0.0,0.0,0.0,0.0,0.0,0.0,0.0,0.0,0.0,0.0,0.0,0.0,0.0,0.0,0.0,0.0,0.0,0.0,0.0,0.0,0.0,0.0,0.0,0.0,0.0,0.0,0.0,0.0,0.0,0.0,0.0,0.0,0.0,0.0,0.0,0.0,0.0,0.0,0.0,0.0,0.0,0.0,0.0,0.0,0.0,0.0,0.0,0.0,0.0,0.0,0.0,0.0,0.0,0.0,0.0,0.0,0.0,0.0,0.0,0.0,0.0,0.0,0.0,0.0,0.0,0.0,0.0,0.0,0.0,0.0,0.0,0.0,0.0,0.0,0.0,0.0,0.0,0.0,0.0,0.0,0.0,0.0,0.0,0.0,0.0,0.0,0.0,0.0,0.0,0.0,0.0,0.0,0.0,0.0,0.0,0.0,0.0,0.0,0.0,0.0,0.0,0.0,0.0,0.0,0.0,0.0,0.0,0.0,0.0,0.0,0.0,0.0,0.0,0.0,0.0,0.0,0.0,0.0,0.0,0.0,0.0,0.0,0.0,0.0,0.0,0.0,0.0,0.0,0.0,0.0,0.0,0.0,0.0,0.0,0.0,0.0,0.0,0.0,0.0,0.0,0.0,0.0,0.0,0.0,0.0,0.0,0.0,0.0,0.0,0.0,0.0,0.0,0.0,0.0,0.0,0.0,0.0,0.0,0.0,0.0,0.0,0.0,0.0,0.0,0.0,0.0,0.0,0.0,0.0,0.0,0.0,0.0,0.0,0.0,0.0,0.0,0.0,0.0,0.0,0.0,0.0,0.0,0.0,0.0,0.0,0.0,0.0,0.0,0.0,0.0,0.0,0.0,0.0,0.0,0.0,0.0,0.0,0.0,0.0,0.0,0.0,0.0,0.0,0.0,0.0,0.0,0.0,0.0,0.0,0.0,0.0,0.0,0.0,0.0,0.0,0.0,0.0,0.0,0.0,0.0,0.0,0.0,0.0,0.0,0.0,0.0,0.0,0.0,0.0,0.0,0.0,0.0,0.0,0.0,0.0,0.0,0.0,0.0,0.0,0.0,0.0,0.0,0.0,0.0,0.0,0.0,0.0,0.0,0.0,0.0,0.0,0.0,0.0,0.0,0.0,0.0,0.0,0.0,0.0,0.0,0.0,0.0,0.0,0.0,0.0,0.0,0.0,0.0,0.0,0.0,0.0,0.0,0.0,0.0,0.0,0.0,0.0,0.0,0.0,0.0,0.0,0.0,0.0,0.0,0.0,0.0,0.0,0.0,0.0,0.0,0.0,0.0,0.0,0.0,0.0,0.0,0.0,0.0,0.0,0.0,0.0,0.0,0.0,0.0,0.0,0.0,0.0,0.0,0.0,0.0,0.0,0.0,0.0,0.0,0.0,0.0,0.0,0.0,0.0,0.0,0.0,0.0,0.0,0.0,0.0,0.0,0.0,0.0,0.0,0.0,0.0,0.0,0.0,0.0,0.0,0.0,0.0,0.0,0.0,0.0,0.0,0.0,0.0,0.0,0.0,0.0,0.0,0.0,0.0,0.0,0.0,0.0,0.0,0.0,0.0,0.0,0.0,0.0,0.0,0.0,0.0,0.0,0.0,0.0,0.0,0.0,0.0,0.0,0.0,0.0,0.0,0.0,0.0,0.0,0.0,0.0,0.0,0.0,0.0,0.0,0.0,0.0,0.0,0.0,0.0,0.0,0.0,0.0,0.0,0.0,0.0,0.0,0.0,0.0,0.0,0.0,0.0,0.0,0.0,0.0,0.0,0.0,0.0,0.0,0.0,0.0,0.0,0.0,0.0,0.0,0.0,0.0,0.0,0.0,0.0,0.0,0.0,0.0,0.0,0.0,0.0,0.0,0.0,0.0,0.0,0.0,0.0,0.0,0.0,0.0,0.0,0.0,0.0,0.0,0.0,0.0,0.0,0.0,0.0,0.0,0.0,0.0,0.0,0.0,0.0,0.0,0.0,0.0,0.0,0.0,0.0,0.0,0.0,0.0,0.0,0.0,0.0,0.0,0.0,0.0,0.0,0.0,0.0,0.0,0.0,0.0,0.0,0.0,0.0,0.0,0.0,0.0,0.0,0.0,0.0,0.0,0.0,0.0,0.0,0.0,0.0,0.0,0.0,0.0,0.0,0.0,0.0,0.0,0.0,0.0,0.0,0.0,0.0,0.0,0.0,0.0,0.0,0.0,0.0,0.0,0.0,0.0,0.0,0.0,0.0,0.0,0.0,0.0,0.0,0.0,0.0,0.0,0.0,0.0,0.0,0.0,0.0,0.0,0.0,0.0,0.0,0.0,0.0,0.0,0.0,0.0,0.0,0.0,0.0,0.0,0.0,0.0,0.0,0.0,0.0,0.0,0.0,0.0,0.0,0.0,0.0,0.0,0.0,0.0,0.0,0.0,0.0,0.0,0.0,0.0,0.0,0.0,0.0,0.0,0.0,0.0,0.0,0.0,0.0,0.0,0.0,0.0,0.0,0.0,0.0,0.0,0.0,0.0,0.0,0.0,0.0,0.0,0.0,0.0,0.0,0.0,0.0,0.0,0.0,0.0,0.0,0.0,0.0,0.0,0.0,0.0,0.0,0.0,0.0,0.0,0.0,0.0,0.0,0.0,0.0,0.0,0.0,0.0,0.0,0.0,0.0,0.0,0.0,0.0,0.0,0.0,0.0,0.0,0.0,0.0,0.0,0.0,0.0,0.0,0.0,0.0,0.0,0.0,0.0,0.0,0.0,0.0,0.0,0.0,0.0,0.0,0.0,0.0,0.0,0.0,0.0,0.0,0.0,0.0,0.0,0.0,0.0,0.0,0.0,0.0,0.0,0.0,0.0,0.0,0.0,0.0,0.0,0.0,0.0,0.0,0.0,0.0,0.0,0.0,0.0,0.0,0.0,0.0,0.0,0.0,0.0,0.0,0.0,0.0,0.0,0.0,0.0,0.0,0.0,0.0,0.0,0.0,0.0,0.0,0.0,0.0,0.0,0.0,0.0,0.0,0.0,0.0,0.0,0.0,0.0,0.0,0.0,0.0,0.0,0.0,0.0,0.0,0.0,0.0,0.0,0.0,0.0,0.0,0.0,0.0,0.0,0.0,0.0,0.0,0.0,0.0,0.0,0.0,0.0,0.0,0.0,0.0,0.0,0.0,0.0,0.0,0.0,0.0,0.0,0.0,0.0,0.0,0.0,0.0,0.0,0.0,0.0,0.0,0.0,0.0,0.0,0.0,0.0,0.0,0.0,0.0,0.0,0.0,0.0,0.0,0.0,0.0,0.0,0.0,0.0,0.0,0.0,0.0,0.0,0.0,0.0,0.0,0.0,0.0,0.0,0.0,0.0,0.0,0.0,0.0,0.0,0.0,0.0,0.0,0.0,0.0,0.0,0.0,0.0,0.0,0.0,0.0,0.0,0.0,0.0,0.0,0.0,0.0,0.0,0.0,0.0,0.0,0.0,0.0,0.0,0.0,0.0,0.0,0.0,0.0,0.0,0.0,0.0,0.0,0.0,0.0,0.0,0.0,0.0,0.0,0.0,0.0,0.0,0.0,0.0,0.0,0.0,0.0,0.0,0.0,0.0,0.0,0.0,0.0,0.0,0.0,0.0,0.0,0.0,0.0,0.0,0.0,0.0,0.0,0.0,0.0,0.0,0.0,0.0,0.0,0.0,0.0,0.0,0.0,0.0,0.0,0.0,0.0,0.0,0.0,0.0,0.0,0.0,0.0,0.0,0.0,0.0,0.0,0.0,0.0,0.0,0.0,0.0,0.0,0.0,0.0,0.0,0.0,0.0,0.0,0.0,0.0,0.0,0.0,0.0,0.0,0.0,0.0,0.0,0.0,0.0,1.4719,0.0,0.0,0.0,0.0,0.0,0.0,0.0,0.0,0.0,0.0,0.0,0.0,0.0,0.0,0.0,0.0,0.0,0.0,0.0,0.0,0.0,0.0,0.0,0.0,0.0,0.0,0.0,0.0,0.0,0.0,0.0,0.0,0.0,0.0,0.0,0.0,0.0,0.0,0.0,0.0,0.0,0.0,0.0,0.0,0.0,0.0,0.0,0.0,0.0,0.0,0.0,0.0,0.0,0.0,0.0,0.0,0.0,0.0,0.0,0.0,0.0,0.0,0.0,0.0,0.0,0.0,0.0,0.0,0.0,0.0,0.0,0.0,0.0,0.0,0.0,0.0,0.0,0.0,0.0,0.0,0.0,0.0,0.0,0.0,0.0,0.0,0.0,0.0,0.0,0.0,0.0,0.0,0.0,0.0,0.0,0.0,0.0,0.0,0.0,0.0,0.0,0.0,0.0,0.0,0.0,0.0,0.0,0.0,0.0,0.0,1.2005,1.2859,1.3337,1.434,1.5909,0.0,0.0,0.0,0.0,0.0,0.0,0.0,0.0,0.0,0.0,0.0,0.0,0.0,0.0,0.0,0.0,0.0,0.0,0.0,0.0,0.0,0.0,0.0,0.0,0.0,0.0,0.0,0.0,0.0,0.0,0.0,0.0,0.0,0.0,0.0,0.0,0.0,0.0,0.0,0.0,0.0,0.0,0.0,0.0,0.0,0.0,0.0,0.0,0.0,0.0,0.0,0.0,0.0,0.0,0.0,0.0,0.0,0.0,0.0,0.0,0.0,0.0,0.0,0.0,0.0,0.0,0.0,0.0,0.0,0.0,0.0,0.0,0.0,0.0,0.0,0.0,0.0,0.0,0.0,0.0,0.0,0.0,0.0,0.0,0.0,0.0,0.0,0.0,0.0,0.0,0.0,0.0,0.0,0.0,0.0,0.0,0.0,0.0,0.0,0.0,0.0,0.0,0.0,0.0,0.0,0.0,0.0,0.0,0.0,0.0,0.0,0.0,1.4713,1.5945,1.7815,0.0,0.0,0.0,0.0,0.0,0.0,0.0,0.0,0.0,0.0,0.0,0.0,0.0,0.0,0.0,0.0,0.0,0.0,0.0,0.0,0.0,0.0,0.0,0.0,0.0,0.0,0.0,0.0,0.0,0.0,0.0,0.0,0.0,0.0,0.0,0.0,0.0,0.0,0.0,0.0,0.0,0.0,0.0,0.0,0.0,0.0,0.0,0.0,0.0,0.0,0.0,0.0,0.0,0.0,0.0,0.0,0.0,0.0,0.0,0.0,0.0,0.0,0.0,0.0,0.0,0.0,0.0,0.0,0.0,0.0,0.0,0.0,0.0,0.0,0.0,0.0,0.0,0.0,0.0,0.0,0.0,0.0,0.0,0.0,0.0,0.0,0.0,0.0,0.0,0.0,0.0,0.0,0.0,0.0,0.0,0.0,0.0,0.0,0.0,0.0,0.0,0.0,0.0,0.0,0.0,0.0,0.0,0.0,0.0,0.0,1.3436,1.5962,1.7095,0.0,2.0387,0.0,0.0,0.0,0.0,0.0,0.0,0.0,0.0,0.0,0.0,0.0,0.0,0.0,0.0,0.0,0.0,0.0,0.0,0.0,0.0,0.0,0.0,0.0,0.0,0.0,0.0,0.0,0.0,0.0,0.0,0.0,0.0,0.0,0.0,0.0,0.0,0.0,0.0,0.0,0.0,0.0,0.0,0.0,0.0,0.0,0.0,0.0,0.0,0.0,0.0,0.0,0.0,0.0,0.0,0.0,0.0,0.0,0.0,0.0,0.0,0.0,0.0,0.0,0.0,0.0,0.0,0.0,0.0,0.0,0.0,0.0,0.0,0.0,0.0,0.0,0.0,0.0,0.0,0.0,0.0,0.0,0.0,0.0,0.0,0.0,0.0,0.0,0.0,0.0,0.0,0.0,0.0,0.0,0.0,0.0,0.0,0.0,0.0,0.0,0.0,0.0,0.0,0.0,0.0,0.0,0.0,0.0,0.0,0.0,0.0,1.4745,1.7126,1.9027,2.0062,0.0,0.0,0.0,0.0,0.0,0.0,0.0,0.0,0.0,0.0,0.0,0.0,0.0,0.0,0.0,0.0,0.0,0.0,0.0,0.0,0.0,0.0,0.0,0.0,0.0,0.0,0.0,0.0,0.0,0.0,0.0,0.0,0.0,0.0,0.0,0.0,0.0,0.0,0.0,0.0,0.0,0.0,0.0,0.0,0.0,0.0,0.0,0.0,0.0,0.0,0.0,0.0,0.0,0.0,0.0,0.0,0.0,0.0,0.0,0.0,0.0,0.0,0.0,0.0,0.0,0.0,0.0,0.0,0.0,0.0,0.0,0.0,0.0,0.0,0.0,0.0,0.0,0.0,0.0,0.0,0.0,0.0,0.0,0.0,0.0,0.0,0.0,0.0,0.0,0.0,0.0,0.0,0.0,0.0,0.0,0.0,0.0,0.0,0.0,0.0,0.0,0.0,0.0,0.0,0.0,0.0,0.0,0.0,0.0,0.0,1.4269,1.6171,1.8988,2.0058,2.0477,2.0279,0.0,0.0,0.0,0.0,0.0,0.0,0.0,0.0,0.0,0.0,0.0,0.0,0.0,0.0,0.0,0.0,0.0,0.0,0.0,0.0,0.0,0.0,0.0,0.0,0.0,0.0,0.0,0.0,0.0,0.0,0.0,0.0,0.0,0.0,0.0,0.0,0.0,0.0,0.0,0.0,0.0,0.0,0.0,0.0,0.0,0.0,0.0,0.0,0.0,0.0,0.0,0.0,0.0,0.0,0.0,0.0,0.0,0.0,0.0,0.0,0.0,0.0,0.0,0.0,0.0,0.0,0.0,0.0,0.0,0.0,0.0,0.0,0.0,0.0,0.0,0.0,0.0,0.0,0.0,0.0,0.0,0.0,0.0,0.0,0.0,0.0,0.0,0.0,0.0,0.0,0.0,0.0,0.0,0.0,0.0,0.0,0.0,0.0,0.0,0.0,0.0,0.0,0.0,0.0,0.0,0.0,0.0,0.0,1.6972,1.6116,1.7781,2.2173,1.9865,1.9526,0.0,0.0,0.0,0.0,0.0,0.0,0.0,0.0,0.0,0.0,0.0,0.0,0.0,0.0,0.0,0.0,0.0,0.0,0.0,0.0,0.0,0.0,0.0,0.0,0.0,0.0,0.0,0.0,0.0,0.0,0.0,0.0,0.0,0.0,0.0,0.0,0.0,0.0,0.0,0.0,0.0,0.0,0.0,0.0,0.0,0.0,0.0,0.0,0.0,0.0,0.0,0.0,0.0,0.0,0.0,0.0,0.0,0.0,0.0,0.0,0.0,0.0,0.0,0.0,0.0,0.0,0.0,0.0,0.0,0.0,0.0,0.0,0.0,0.0,0.0,0.0,0.0,0.0,0.0,0.0,0.0,0.0,0.0,0.0,0.0,0.0,0.0,0.0,0.0,0.0,0.0,0.0,0.0,0.0,0.0,0.0,0.0,0.0,0.0,0.0,0.0,0.0,0.0,0.0,0.0,0.0,0.0,0.0,0.0,1.3747,1.5897,1.8877,2.2438,2.0984,2.0609,0.0,0.0,0.0,0.0,0.0,0.0,0.0,0.0,0.0,0.0,0.0,0.0,0.0,0.0,0.0,0.0,0.0,0.0,0.0,0.0,0.0,0.0,0.0,0.0,0.0,0.0,0.0,0.0,0.0,0.0,0.0,0.0,0.0,0.0,0.0,0.0,0.0,0.0,0.0,0.0,0.0,0.0,0.0,0.0,0.0,0.0,0.0,0.0,0.0,0.0,0.0,0.0,0.0,0.0,0.0,0.0,0.0,0.0,0.0,0.0,0.0,0.0,0.0,0.0,0.0,0.0,0.0,0.0,0.0,0.0,0.0,0.0,0.0,0.0,0.0,0.0,0.0,0.0,0.0,0.0,0.0,0.0,0.0,0.0,0.0,0.0,0.0,0.0,0.0,0.0,0.0,0.0,0.0,0.0,0.0,0.0,0.0,0.0,0.0,0.0,0.0,0.0,0.0,0.0,0.0,0.0,0.0,0.0,0.0,1.3946,0.0,1.9772,2.1987,2.1011,2.0443,0.0,0.0,0.0,0.0,0.0,0.0,0.0,0.0,0.0,0.0,0.0,0.0,0.0,0.0,0.0,0.0,0.0,0.0,0.0,0.0,0.0,0.0,0.0,0.0,0.0,0.0,0.0,0.0,0.0,0.0,0.0,0.0,0.0,0.0,0.0,0.0,0.0,0.0,0.0,0.0,0.0,0.0,0.0,0.0,0.0,0.0,0.0,0.0,0.0,0.0,0.0,0.0,0.0,0.0,0.0,0.0,0.0,0.0,0.0,0.0,0.0,0.0,0.0,0.0,0.0,0.0,0.0,0.0,0.0,0.0,0.0,0.0,0.0,0.0,0.0,0.0,0.0,0.0,0.0,0.0,0.0,0.0,0.0,0.0,0.0,0.0,0.0,0.0,0.0,0.0,0.0,0.0,0.0,0.0,0.0,0.0,0.0,0.0,0.0,0.0,0.0,0.0,0.0,0.0,0.0,0.0,0.0,0.0,1.4115,1.8458,1.9531,2.037,2.111,1.9821,1.8808,0.0,0.0,0.0,0.0,0.0,0.0,0.0,0.0,0.0,0.0,0.0,0.0,0.0,0.0,0.0,0.0,0.0,0.0,0.0,0.0,0.0,0.0,0.0,0.0,0.0,0.0,0.0,0.0,0.0,0.0,0.0,0.0,0.0,0.0,0.0,0.0,0.0,0.0,0.0,0.0,0.0,0.0,0.0,0.0,0.0,0.0,0.0,0.0,0.0,0.0,0.0,0.0,0.0,0.0,0.0,0.0,0.0,0.0,0.0,0.0,0.0,0.0,0.0,0.0,0.0,0.0,0.0,0.0,0.0,0.0,0.0,0.0,0.0,0.0,0.0,0.0,0.0,0.0,0.0,0.0,0.0,0.0,0.0,0.0,0.0,0.0,0.0,0.0,0.0,0.0,0.0,0.0,0.0,0.0,0.0,0.0,0.0,0.0,0.0,0.0,0.0,0.0,0.0,0.0,0.0,0.0,0.0,0.0,0.0,1.7519,1.8375,2.0289,2.3166,2.0006,1.9637,0.0,0.0,0.0,0.0,0.0,0.0,0.0,0.0,0.0,0.0,0.0,0.0,0.0,0.0,0.0,0.0,0.0,0.0,0.0,0.0,0.0,0.0,0.0,0.0,0.0,0.0,0.0,0.0,0.0,0.0,0.0,0.0,0.0,0.0,0.0,0.0,0.0,0.0,0.0,0.0,0.0,0.0,0.0,0.0,0.0,0.0,0.0,0.0,0.0,0.0,0.0,0.0,0.0,0.0,0.0,0.0,0.0,0.0,0.0,0.0,0.0,0.0,0.0,0.0,0.0,0.0,0.0,0.0,0.0,0.0,0.0,0.0,0.0,0.0,0.0,0.0,0.0,0.0,0.0,0.0,0.0,0.0,0.0,0.0,0.0,0.0,0.0,0.0,0.0,0.0,0.0,0.0,0.0,0.0,0.0,0.0,0.0,0.0,0.0,0.0,0.0,0.0,0.0,0.0,0.0,0.0,0.0,0.0,0.0,2.0254,2.0252,2.1393,2.3771,2.119,2.0896,2.3054,0.0,0.0,0.0,0.0,0.0,0.0,0.0,0.0,0.0,0.0,0.0,0.0,0.0,0.0,0.0,0.0,0.0,0.0,0.0,0.0,0.0,0.0,0.0,0.0,0.0,0.0,0.0,0.0,0.0,0.0,0.0,0.0,0.0,0.0,0.0,0.0,0.0,0.0,0.0,0.0,0.0,0.0,0.0,0.0,0.0,0.0,0.0,0.0,0.0,0.0,0.0,0.0,0.0,0.0,0.0,0.0,0.0,0.0,0.0,0.0,0.0,0.0,0.0,0.0,0.0,0.0,0.0,0.0,0.0,0.0,0.0,0.0,0.0,0.0,0.0,0.0,0.0,0.0,0.0,0.0,0.0,0.0,0.0,0.0,0.0,0.0,0.0,0.0,0.0,0.0,0.0,0.0,0.0,0.0,0.0,0.0,0.0,0.0,0.0,0.0,0.0,0.0,0.0,0.0,0.0,0.0,0.0,0.0,2.5823,2.4763,2.3902,2.3258,2.3207,2.2485,0.0,0.0,0.0,0.0,0.0,0.0,0.0,0.0,0.0,0.0,0.0,0.0,0.0,0.0,0.0,0.0,0.0,0.0,0.0,0.0,0.0,0.0,0.0,0.0,0.0,0.0,0.0,0.0,0.0,0.0,0.0,0.0,0.0,0.0,0.0,0.0,0.0,0.0,0.0,0.0,0.0,0.0,0.0,0.0,0.0,0.0,0.0,0.0,0.0,0.0,0.0,0.0,0.0,0.0,0.0,0.0,0.0,0.0,0.0,0.0,0.0,0.0,0.0,0.0,0.0,0.0,0.0,0.0,0.0,0.0,0.0,0.0,0.0,0.0,0.0,0.0,0.0,0.0,0.0,0.0,0.0,0.0,0.0,0.0,0.0,0.0,0.0,0.0,0.0,0.0,0.0,0.0,0.0,0.0,0.0,0.0,0.0,0.0,0.0,0.0,0.0,0.0,0.0,0.0,0.0,0.0,0.0,0.0,0.0,2.7367,2.8761,2.9044,2.8274,2.5468,2.4164,0.0,0.0,0.0,0.0,0.0,0.0,0.0,0.0,0.0,0.0,0.0,0.0,0.0,0.0,0.0,0.0,0.0,0.0,0.0,0.0,0.0,0.0,0.0,0.0,0.0,0.0,0.0,0.0,0.0,0.0,0.0,0.0,0.0,0.0,0.0,0.0,0.0,0.0,0.0,0.0,0.0,0.0,0.0,0.0,0.0,0.0,0.0,0.0,0.0,0.0,0.0,0.0,0.0,0.0,0.0,0.0,0.0,0.0,0.0,0.0,0.0,0.0,0.0,0.0,0.0,0.0,0.0,0.0,0.0,0.0,0.0,0.0,0.0,0.0,0.0,0.0,0.0,0.0,0.0,0.0,0.0,0.0,0.0,0.0,0.0,0.0,0.0,0.0,0.0,0.0,0.0,0.0,0.0,0.0,0.0,0.0,0.0,0.0,0.0,0.0,0.0,0.0,0.0,0.0,0.0,0.0,0.0,0.0,2.7287,3.0275,3.312,3.4111,3.308,2.9496,2.698,0.0,0.0,0.0,0.0,0.0,0.0,0.0,0.0,0.0,0.0,0.0,0.0,0.0,0.0,0.0,0.0,0.0,0.0,0.0,0.0,0.0,0.0,0.0,0.0,0.0,0.0,0.0,0.0,0.0,0.0,0.0,0.0,0.0,0.0,0.0,0.0,0.0,0.0,0.0,0.0,0.0,0.0,0.0,0.0,0.0,0.0,0.0,0.0,0.0,0.0,0.0,0.0,0.0,0.0,0.0,0.0,0.0,0.0,0.0,0.0,0.0,0.0,0.0,0.0,0.0,0.0,0.0,0.0,0.0,0.0,0.0,0.0,0.0,0.0,0.0,0.0,0.0,0.0,0.0,0.0,0.0,0.0,0.0,0.0,0.0,0.0,0.0,0.0,0.0,0.0,0.0,0.0,0.0,0.0,0.0,0.0,0.0,0.0,0.0,0.0,0.0,0.0,0.0,0.0,0.0,0.0,0.0,0.0,3.0733,3.3661,3.7196,3.8409,3.6926,3.3755,2.9992,0.0,0.0,0.0,0.0,0.0,0.0,0.0,0.0,0.0,0.0,0.0,0.0,0.0,0.0,0.0,0.0,0.0,0.0,0.0,0.0,0.0,0.0,0.0,0.0,0.0,0.0,0.0,0.0,0.0,0.0,0.0,0.0,0.0,0.0,0.0,0.0,0.0,0.0,0.0,0.0,0.0,0.0,0.0,0.0,0.0,0.0,0.0,0.0,0.0,0.0,0.0,0.0,0.0,0.0,0.0,0.0,0.0,0.0,0.0,0.0,0.0,0.0,0.0,0.0,0.0,0.0,0.0,0.0,0.0,0.0,0.0,0.0,0.0,0.0,0.0,0.0,0.0,0.0,0.0,0.0,0.0,0.0,0.0,0.0,0.0,0.0,0.0,0.0,0.0,0.0,0.0,0.0,0.0,0.0,0.0,0.0,0.0,0.0,0.0,0.0,0.0,0.0,0.0,0.0,0.0,0.0,0.0,0.0,3.1797,3.5598,3.8166,3.8737,3.7219,3.3512,3.0219,0.0,0.0,0.0,0.0,0.0,0.0,0.0,0.0,0.0,0.0,0.0,0.0,0.0,0.0,0.0,0.0,0.0,0.0,0.0,0.0,0.0,0.0,0.0,0.0,0.0,0.0,0.0,0.0,0.0,0.0,0.0,0.0,0.0,0.0,0.0,0.0,0.0,0.0,0.0,0.0,0.0,0.0,0.0,0.0,0.0,0.0,0.0,0.0,2.3039,0.0,0.0,0.0,0.0,0.0,0.0,0.0,0.0,0.0,0.0,0.0,0.0,0.0,0.0,0.0,0.0,0.0,0.0,0.0,0.0,0.0,0.0,0.0,0.0,0.0,0.0,0.0,0.0,0.0,0.0,0.0,0.0,0.0,0.0,0.0,0.0,0.0,0.0,0.0,0.0,0.0,0.0,0.0,0.0,0.0,0.0,0.0,0.0,0.0,0.0,0.0,0.0,0.0,0.0,0.0,0.0,0.0,0.0,0.0,3.3624,3.7306,3.9235,3.9413,3.7765,3.3703,3.0383,0.0,0.0,0.0,0.0,0.0,0.0,0.0,0.0,0.0,0.0,0.0,0.0,0.0,0.0,0.0,0.0,0.0,0.0,0.0,0.0,0.0,0.0,0.0,0.0,0.0,0.0,0.0,0.0,0.0,0.0,0.0,0.0,0.0,0.0,0.0,0.0,0.0,0.0,0.0,0.0,0.0,0.0,0.0,0.0,0.0,0.0,0.0,0.0,0.0,0.0,0.0,0.0,0.0,0.0,0.0,0.0,0.0,0.0,0.0,0.0,0.0,0.0,0.0,0.0,0.0,0.0,0.0,0.0,0.0,0.0,0.0,0.0,0.0,0.0,0.0,0.0,0.0,0.0,0.0,0.0,0.0,0.0,0.0,0.0,0.0,0.0,0.0,0.0,0.0,0.0,0.0,0.0,0.0,0.0,0.0,0.0,0.0,0.0,0.0,0.0,0.0,0.0,0.0,0.0,0.0,0.0,0.0,3.1919,3.5279,3.8581,4.0101,3.9975,3.8113,3.3895,3.0536,2.8305,0.0,0.0,0.0,0.0,0.0,0.0,0.0,0.0,0.0,0.0,0.0,0.0,0.0,0.0,0.0,0.0,0.0,0.0,0.0,0.0,0.0,0.0,0.0,0.0,0.0,0.0,0.0,0.0,0.0,0.0,0.0,0.0,0.0,0.0,0.0,0.0,0.0,0.0,2.332,2.3469,0.0,0.0,0.0,0.0,0.0,0.0,0.0,0.0,2.3866,0.0,0.0,0.0,0.0,0.0,0.0,0.0,0.0,0.0,0.0,0.0,0.0,0.0,0.0,0.0,0.0,0.0,0.0,0.0,0.0,0.0,0.0,0.0,0.0,0.0,0.0,0.0,0.0,0.0,0.0,0.0,0.0,0.0,0.0,0.0,0.0,0.0,0.0,0.0,0.0,0.0,0.0,0.0,0.0,0.0,0.0,0.0,0.0,0.0,0.0,0.0,0.0,0.0,0.0,0.0,0.0,3.0768,3.2402,3.5012,3.8709,4.0249,3.966,3.6818,3.3489,3.0707,2.8405,0.0,0.0,0.0,0.0,0.0,0.0,0.0,0.0,0.0,0.0,0.0,0.0,0.0,0.0,0.0,0.0,0.0,0.0,0.0,0.0,0.0,0.0,0.0,0.0,0.0,0.0,0.0,0.0,0.0,0.0,0.0,0.0,0.0,0.0,0.0,0.0,0.0,0.0,0.0,2.6243,2.7008,0.0,0.0,0.0,0.0,0.0,0.0,0.0,0.0,2.4666,0.0,0.0,0.0,0.0,0.0,0.0,0.0,0.0,0.0,0.0,0.0,0.0,0.0,0.0,0.0,0.0,0.0,0.0,0.0,0.0,0.0,0.0,0.0,0.0,0.0,0.0,0.0,0.0,0.0,0.0,0.0,0.0,0.0,0.0,0.0,0.0,0.0,0.0,0.0,0.0,0.0,0.0,0.0,0.0,0.0,0.0,0.0,0.0,0.0,0.0,0.0,0.0,0.0,0.0,0.0,3.1451,3.3407,3.594,3.9209,3.9289,3.8183,3.5792,3.202,2.9211,0.0,0.0,0.0,0.0,0.0,0.0,0.0,0.0,0.0,0.0,0.0,0.0,0.0,0.0,0.0,0.0,0.0,0.0,0.0,0.0,0.0,0.0,0.0,0.0,0.0,0.0,0.0,0.0,0.0,0.0,0.0,0.0,0.0,0.0,0.0,0.0,0.0,0.0,0.0,0.0,2.6834,2.7284,2.6773,0.0,0.0,0.0,0.0,0.0,0.0,2.6798,2.6705,0.0,0.0,0.0,0.0,0.0,0.0,0.0,0.0,0.0,0.0,0.0,0.0,0.0,0.0,0.0,0.0,0.0,0.0,0.0,0.0,0.0,0.0,0.0,0.0,0.0,0.0,0.0,0.0,0.0,0.0,0.0,0.0,0.0,0.0,0.0,0.0,0.0,0.0,0.0,0.0,0.0,0.0,0.0,0.0,0.0,0.0,0.0,0.0,0.0,0.0,0.0,0.0,0.0,0.0,0.0,3.1812,3.4048,3.655,3.9218,3.8085,3.6515,3.4757,3.057,2.7868,0.0,0.0,0.0,0.0,0.0,0.0,0.0,0.0,0.0,0.0,0.0,0.0,0.0,0.0,0.0,0.0,0.0,0.0,0.0,0.0,0.0,0.0,0.0,0.0,0.0,0.0,0.0,0.0,0.0,0.0,0.0,0.0,0.0,0.0,0.0,0.0,0.0,0.0,0.0,0.0,0.0,2.7824,2.7698,2.803,0.0,0.0,0.0,0.0,2.7747,2.8885,0.0,0.0,0.0,0.0,0.0,0.0,0.0,0.0,0.0,0.0,0.0,0.0,0.0,0.0,0.0,0.0,0.0,0.0,0.0,0.0,0.0,0.0,0.0,0.0,0.0,0.0,0.0,0.0,0.0,0.0,0.0,0.0,0.0,0.0,0.0,0.0,0.0,0.0,0.0,0.0,0.0,0.0,0.0,0.0,0.0,0.0,0.0,0.0,0.0,0.0,0.0,0.0,0.0,0.0,0.0,0.0,3.1791,3.3522,3.5495,3.7702,3.7015,3.548,3.3203,3.0069,2.8007,0.0,0.0,0.0,0.0,0.0,0.0,0.0,0.0,0.0,0.0,0.0,0.0,0.0,0.0,0.0,0.0,0.0,0.0,0.0,0.0,0.0,0.0,0.0,0.0,0.0,0.0,0.0,0.0,0.0,0.0,0.0,0.0,0.0,0.0,0.0,0.0,0.0,0.0,0.0,0.0,0.0,3.1374,2.9877,3.0753,3.1163,0.0,0.0,3.0764,3.1219,3.2632,0.0,0.0,0.0,0.0,0.0,0.0,0.0,0.0,0.0,0.0,0.0,0.0,0.0,0.0,0.0,0.0,0.0,0.0,0.0,0.0,0.0,0.0,0.0,0.0,0.0,0.0,0.0,0.0,0.0,0.0,0.0,0.0,0.0,0.0,0.0,0.0,0.0,0.0,0.0,0.0,0.0,0.0,0.0,0.0,0.0,0.0,0.0,0.0,0.0,0.0,0.0,0.0,0.0,0.0,0.0,2.8427,3.1261,3.357,3.5461,3.6836,3.6149,3.4401,3.1625,2.8629,2.6517,0.0,0.0,0.0,0.0,0.0,0.0,0.0,0.0,0.0,0.0,0.0,0.0,0.0,0.0,0.0,0.0,0.0,0.0,0.0,0.0,0.0,0.0,0.0,0.0,0.0,0.0,0.0,0.0,0.0,0.0,0.0,0.0,0.0,0.0,0.0,0.0,0.0,0.0,0.0,0.0,0.0,0.0,3.0662,3.1997,0.0,0.0,0.0,3.3081,3.3331,0.0,0.0,0.0,0.0,0.0,0.0,0.0,0.0,0.0,0.0,0.0,0.0,0.0,0.0,0.0,0.0,0.0,0.0,0.0,0.0,0.0,0.0,0.0,0.0,0.0,0.0,0.0,0.0,0.0,0.0,0.0,0.0,0.0,0.0,0.0,0.0,0.0,0.0,0.0,0.0,0.0,0.0,0.0,0.0,0.0,0.0,0.0,0.0,0.0,0.0,0.0,0.0,0.0,0.0,0.0,0.0,0.0,3.0794,3.3721,3.5524,3.6042,3.5141,3.3322,3.0575,2.7531,0.0,0.0,0.0,0.0,0.0,0.0,0.0,0.0,0.0,0.0,0.0,0.0,0.0,0.0,0.0,0.0,0.0,0.0,0.0,0.0,0.0,0.0,0.0,0.0,0.0,0.0,0.0,2.2303,0.0,0.0,0.0,0.0,0.0,0.0,0.0,0.0,0.0,0.0,0.0,0.0,0.0,0.0,3.2083,3.1869,3.3708,3.4678,0.0,0.0,3.5437,3.5081,3.5566,3.5137,0.0,0.0,0.0,0.0,0.0,0.0,0.0,0.0,0.0,0.0,0.0,0.0,0.0,0.0,0.0,0.0,0.0,0.0,0.0,0.0,0.0,0.0,0.0,0.0,0.0,0.0,0.0,0.0,0.0,0.0,0.0,0.0,0.0,0.0,0.0,0.0,0.0,0.0,0.0,0.0,0.0,0.0,0.0,0.0,0.0,0.0,0.0,0.0,0.0,0.0,0.0,0.0,0.0,0.0,0.0,3.0844,3.3821,3.5334,3.5257,3.3802,3.2232,3.0504,2.7388,2.568,0.0,0.0,0.0,0.0,0.0,0.0,0.0,0.0,0.0,0.0,0.0,0.0,0.0,0.0,0.0,0.0,0.0,0.0,0.0,0.0,0.0,0.0,0.0,0.0,0.0,0.0,0.0,0.0,0.0,0.0,0.0,0.0,0.0,0.0,0.0,0.0,0.0,0.0,0.0,0.0,0.0,3.3665,3.4257,3.6654,3.8105,0.0,0.0,3.7998,3.667,3.8376,3.8321,3.3716,0.0,0.0,0.0,0.0,0.0,0.0,0.0,0.0,0.0,0.0,0.0,0.0,0.0,0.0,0.0,0.0,0.0,0.0,0.0,0.0,0.0,0.0,0.0,0.0,0.0,0.0,0.0,0.0,0.0,0.0,0.0,0.0,0.0,0.0,0.0,0.0,0.0,0.0,0.0,0.0,0.0,0.0,0.0,0.0,0.0,0.0,0.0,0.0,0.0,0.0,0.0,0.0,0.0,2.911,3.0157,3.3134,3.4618,3.4508,3.3937,3.2394,2.9861,2.8198,2.6497,0.0,0.0,0.0,0.0,0.0,0.0,0.0,0.0,0.0,0.0,0.0,0.0,0.0,0.0,0.0,0.0,0.0,0.0,0.0,0.0,0.0,0.0,0.0,0.0,0.0,0.0,0.0,0.0,2.3479,2.3563,2.4451,0.0,0.0,0.0,0.0,0.0,0.0,0.0,0.0,0.0,0.0,3.5173,3.6776,3.8672,0.0,0.0,3.9616,3.9555,3.886,3.8792,3.7879,3.5049,3.4396,0.0,0.0,0.0,0.0,0.0,0.0,0.0,0.0,0.0,0.0,0.0,0.0,0.0,0.0,0.0,0.0,0.0,0.0,0.0,0.0,0.0,0.0,0.0,0.0,0.0,0.0,0.0,0.0,0.0,0.0,0.0,0.0,0.0,0.0,0.0,0.0,0.0,0.0,0.0,0.0,0.0,0.0,0.0,0.0,0.0,0.0,0.0,0.0,0.0,0.0,0.0,0.0,2.903,2.9774,3.2721,3.4059,3.3783,3.3766,3.2474,2.9826,2.872,2.7145,0.0,0.0,0.0,0.0,0.0,0.0,0.0,0.0,0.0,0.0,0.0,0.0,0.0,0.0,0.0,0.0,0.0,0.0,0.0,0.0,0.0,0.0,0.0,0.0,0.0,0.0,0.0,0.0,2.4679,2.4896,2.5363,0.0,0.0,0.0,0.0,0.0,0.0,0.0,0.0,0.0,0.0,3.6721,3.8636,4.0212,4.1082,4.0801,4.086,4.0581,3.9651,3.8831,3.7678,3.5588,0.0,0.0,0.0,0.0,0.0,0.0,0.0,0.0,0.0,0.0,0.0,0.0,0.0,0.0,0.0,0.0,0.0,0.0,0.0,0.0,0.0,0.0,0.0,0.0,0.0,0.0,0.0,2.0519,0.0,0.0,2.0124,0.0,0.0,0.0,0.0,0.0,0.0,0.0,0.0,0.0,0.0,0.0,0.0,0.0,0.0,0.0,0.0,0.0,0.0,0.0,0.0,0.0,0.0,2.9186,2.9939,3.2804,3.3916,3.3112,3.2985,3.2204,3.0575,2.8884,2.7579,2.6625,0.0,0.0,0.0,0.0,0.0,0.0,0.0,0.0,0.0,0.0,0.0,0.0,0.0,0.0,0.0,0.0,0.0,0.0,0.0,0.0,0.0,0.0,0.0,0.0,0.0,0.0,2.5534,2.611,2.6151,0.0,0.0,0.0,0.0,0.0,0.0,0.0,0.0,0.0,0.0,3.658,3.8333,3.9694,4.1238,4.2072,4.1493,4.1668,4.0996,3.8606,3.8843,3.8263,0.0,0.0,0.0,0.0,0.0,0.0,0.0,0.0,0.0,0.0,0.0,0.0,0.0,0.0,0.0,0.0,0.0,0.0,0.0,0.0,0.0,0.0,0.0,0.0,0.0,0.0,0.0,2.1958,2.1886,0.0,0.0,0.0,0.0,0.0,0.0,0.0,0.0,0.0,0.0,0.0,2.3409,2.3686,0.0,0.0,0.0,0.0,0.0,0.0,0.0,0.0,0.0,0.0,0.0,0.0,2.9969,3.065,3.3026,3.4367,3.4434,3.3945,3.3195,3.2125,3.0538,2.8735,2.678,0.0,0.0,0.0,0.0,0.0,0.0,0.0,0.0,0.0,0.0,0.0,0.0,0.0,0.0,0.0,0.0,0.0,0.0,0.0,0.0,0.0,0.0,0.0,0.0,0.0,2.5564,0.0,0.0,0.0,0.0,0.0,0.0,0.0,0.0,0.0,0.0,0.0,3.4965,3.6734,3.8402,3.9886,4.1172,4.2311,4.3035,0.0,0.0,0.0,0.0,0.0,0.0,0.0,0.0,0.0,0.0,0.0,0.0,0.0,0.0,3.8922,3.5329,3.4857,3.5125,3.564,0.0,0.0,0.0,0.0,0.0,0.0,0.0,0.0,0.0,0.0,0.0,0.0,0.0,0.0,2.3469,0.0,2.3121,0.0,0.0,0.0,0.0,0.0,0.0,0.0,0.0,2.5296,2.631,2.6727,2.7273,2.7532,0.0,2.7699,2.667,0.0,0.0,0.0,0.0,0.0,0.0,0.0,0.0,3.0611,3.1048,3.3391,3.4872,3.5228,3.4766,3.3972,3.2918,3.1332,2.971,2.801,2.7005,2.5855,0.0,0.0,0.0,0.0,0.0,0.0,0.0,0.0,0.0,0.0,0.0,0.0,0.0,0.0,0.0,0.0,0.0,0.0,0.0,0.0,0.0,0.0,0.0,2.7103,0.0,0.0,0.0,0.0,0.0,0.0,0.0,0.0,0.0,3.5397,3.631,3.7636,3.9241,4.0466,4.1568,4.2562,0.0,0.0,0.0,0.0,0.0,0.0,0.0,4.05,3.9493,3.9784,4.0155,4.0121,4.1386,4.2219,4.1677,0.0,0.0,3.7708,3.7189,3.748,3.7962,3.7672,3.7407,3.7798,3.8054,3.8624,0.0,0.0,0.0,0.0,0.0,0.0,0.0,0.0,2.5363,2.5294,0.0,2.4893,0.0,0.0,0.0,0.0,2.2511,2.4668,0.0,0.0,2.9739,3.1186,3.1029,3.1863,3.2303,3.2398,3.25,3.2083,3.1064,2.7826,0.0,0.0,0.0,0.0,0.0,0.0,3.1117,3.1284,3.4051,3.55,3.5492,3.5327,3.4535,3.2989,3.1474,3.0551,3.03,2.9591,2.8796,2.7852,2.6889,0.0,0.0,0.0,0.0,0.0,0.0,0.0,0.0,0.0,0.0,0.0,0.0,0.0,0.0,0.0,0.0,0.0,0.0,0.0,0.0,2.9235,0.0,0.0,0.0,0.0,0.0,0.0,0.0,0.0,0.0,0.0,3.752,3.9526,4.1355,4.2114,0.0,0.0,0.0,0.0,4.3525,4.3572,4.3536,4.3398,4.298,4.3055,4.2911,4.2149,0.0,0.0,4.2536,4.3755,4.4296,4.2794,4.3267,4.3355,4.2625,4.163,4.1123,4.1157,4.0096,3.9445,4.0032,3.9923,3.9745,3.4974,0.0,0.0,0.0,0.0,2.8155,2.8479,2.9535,2.8866,2.849,2.8297,2.8243,0.0,0.0,0.0,0.0,0.0,0.0,2.8394,2.9794,3.2232,3.3907,3.5025,3.6148,3.6708,3.6851,3.6982,3.6707,3.6067,3.5225,3.2423,2.775,0.0,0.0,0.0,0.0,3.2668,3.4163,3.6053,3.7005,3.6979,3.6952,3.5908,3.383,3.3322,3.2521,3.1342,3.1,3.0221,2.8866,2.8386,0.0,0.0,0.0,0.0,0.0,0.0,0.0,0.0,0.0,0.0,0.0,0.0,0.0,0.0,0.0,0.0,0.0,0.0,0.0,3.0184,3.0905,3.0865,0.0,0.0,0.0,0.0,0.0,0.0,0.0,0.0,0.0,4.2316,4.2226,4.2448,0.0,0.0,4.4499,4.4078,4.4751,4.5473,4.5844,4.5918,0.0,4.5112,4.5201,4.4876,4.3559,4.4558,4.5838,4.6921,4.7428,4.7597,4.7124,4.7244,4.7327,4.6955,4.4248,4.2388,4.2577,4.2408,4.2422,4.3112,4.3504,4.3978,4.2866,3.8003,3.4763,3.3205,3.2847,3.2279,3.2488,3.3174,3.2627,3.2127,3.166,3.1602,3.0824,2.9511,2.9187,0.0,0.0,0.0,3.2199,3.4153,3.631,3.8163,3.9629,4.0967,4.1592,4.1626,4.1485,4.1117,4.056,4.0247,3.7863,3.3494,0.0,0.0,3.1721,3.364,3.5051,3.5957,3.773,3.8607,3.8514,3.8219,3.7264,3.5578,3.5186,3.4401,3.3144,3.2991,3.2409,3.1209,3.0954,3.0019,0.0,0.0,0.0,0.0,0.0,0.0,0.0,0.0,0.0,0.0,0.0,2.6153,0.0,0.0,0.0,0.0,2.9916,3.1002,3.25,3.2364,0.0,0.0,0.0,0.0,0.0,0.0,0.0,3.8123,4.1616,4.4331,4.4873,4.485,4.5043,4.5732,4.6046,4.6094,4.5723,0.0,4.6998,4.7736,4.782,4.7891,4.8136,4.808,4.7688,4.6714,4.7749,4.89,4.9677,4.9848,4.9882,4.9898,4.9882,4.9898,4.9898,4.7616,4.5703,4.5621,4.5621,4.5805,4.6259,4.6684,4.7158,5.0816,4.8473,4.1883,3.8148,3.6654,3.7087,3.6998,3.653,3.65,3.5995,3.5196,3.4939,3.4065,3.2731,3.2099,0.0,3.3405,3.4869,3.6775,3.9038,4.1325,4.3032,4.4237,4.575,4.6441,4.6319,4.5774,4.5211,4.4612,4.3596,4.2391,4.1148,3.8794,3.6695,3.5061,3.7015,3.7695,3.6916,3.9013,4.0074,4.0065,3.928,3.854,3.7809,3.7086,3.6292,3.5534,3.549,3.5141,3.4428,3.4213,3.3581,3.2449,0.0,0.0,0.0,0.0,0.0,0.0,0.0,0.0,0.0,0.0,0.0,0.0,0.0,0.0,0.0,3.2526,0.0,3.5545,3.4175,0.0,0.0,0.0,3.7619,4.0679,4.2011,4.2711,4.2629,0.0,0.0,4.6121,4.7523,4.8638,4.9172,4.8487,4.8019,4.833,4.8234,4.842,4.9386,4.9517,5.0062,5.1192,5.1101,5.0767,5.0675,5.1393,5.1644,5.1529,5.1451,5.1419,5.1435,5.1402,5.137,5.137,5.1201,5.098,4.9572,4.9203,4.912,4.9086,4.9086,4.9104,5.15,5.0292,4.8553,4.5964,4.2907,4.193,4.1014,4.0219,4.007,3.9437,3.8538,3.8568,3.8231,3.7575,3.6772,3.7047,3.815,3.8595,3.9709,4.1464,4.3536,4.5035,4.5975,4.759,4.8383,4.8444,4.8365,4.8067,4.7665,4.7684,4.6268,4.3679,4.3206,4.0928,3.6925,3.709,3.7661,3.8447,3.9605,4.0704,4.1655,4.035,3.9565,3.9351,3.9173,3.8709,3.796,3.796,3.7567,3.68,3.6729,3.5643,3.3424,3.2756,0.0,0.0,0.0,0.0,0.0,0.0,0.0,0.0,0.0,2.8588,2.8126,0.0,3.0263,0.0,3.4627,3.8172,4.0342,4.0295,0.0,0.0,4.1258,4.1685,4.2052,4.5089,4.6722,4.5627,4.8368,5.033,5.022,5.0951,5.1718,5.2091,5.0767,5.0003,5.0658,5.1083,5.1352,5.1582,5.1922,5.24,5.2717,5.2495,5.2425,5.2934,5.3019,5.3144,5.3619,5.3532,5.332,5.3338,5.3108,5.2993,5.2909,5.296,5.2957,5.2728,5.1681,5.066,5.071,5.0694,5.0694,5.5572,5.452,5.3858,5.1538,4.8195,4.6872,4.5582,4.4418,4.4061,4.3253,4.2174,4.2014,4.1844,4.1654,4.0953,4.1059,4.1808,4.2303,4.3246,4.4628,4.6478,4.7806,4.8674,4.9817,5.0436,5.0509,5.057,5.0327,4.9842,5.0316,4.9654,4.794,4.808,4.6456,4.3045,4.0487,3.941,3.9707,4.0399,4.1574,4.3225,4.2455,4.1542,4.0584,3.9895,3.8849,3.7469,3.6743,3.6312,3.6213,3.6085,3.5287,3.3794,3.2888,3.1342,0.0,0.0,0.0,0.0,0.0,0.0,0.0,0.0,0.0,0.0,0.0,3.3086,3.4214,3.7327,3.9977,4.1578,4.173,4.2553,4.4558,4.5293,4.62,4.7615,4.9917,5.0948,4.9968,5.173,5.286,5.2461,5.2697,5.3137,5.3619,5.2807,5.217,5.2276,5.258,5.2872,5.3175,5.35,5.3822,5.4138,5.4078,5.4007,5.4256,5.4194,5.4214,5.4441,5.4335,5.4207,5.4191,5.4045,5.3949,5.3949,5.3949,5.3982,5.3845,5.3315,5.2672,5.2459,5.2313,5.2248,6.0077,5.8925,5.769,5.5549,5.293,5.1881,5.0097,4.7812,4.7358,4.6529,4.544,4.4987,4.4936,4.5073,4.4519,4.4504,4.4927,4.5826,4.6784,4.7893,4.9375,5.0504,5.1321,5.1884,5.2186,5.215,5.2256,5.2022,5.1481,5.2098,5.2367,5.2163,5.2173,5.1434,4.9861,4.5231,4.2275,4.1106,4.1691,4.2894,4.4589,4.4268,4.3146,4.118,3.9669,3.7934,3.5925,3.4475,3.3967,3.4537,3.4277,3.4178,3.4253,3.2652,3.1437,0.0,3.0048,0.0,0.0,0.0,0.0,0.0,0.0,0.0,0.0,3.5143,3.6824,3.9588,4.0359,4.1186,4.2286,4.2274,4.4146,4.8801,4.9331,5.0676,5.4045,5.4685,5.4694,5.4239,5.4386,5.4326,5.3883,5.3745,5.3929,5.4386,5.4413,5.4111,5.3626,5.3535,5.3781,5.4384,5.444,5.4665,5.5227,5.5422,5.5334,5.5094,5.5033,5.4961,5.4698,5.4623,5.4557,5.4542,5.4529,5.4463,5.4494,5.4497,5.4399,5.4207,5.4251,5.4232,5.3943,5.3714,5.3735,5.8783,5.824,5.8577,5.8114,5.7241,5.715,5.3045,4.6476,4.6382,4.6323,4.6395,4.6491,4.6798,4.7216,4.6553,4.691,4.7995,4.8229,4.879,4.9641,5.0597,5.1129,5.1332,5.215,5.2488,5.2547,5.275,5.2886,5.2941,5.3764,5.3262,5.15,5.151,5.0954,4.9899,0.0,0.0,0.0,4.4738,4.5256,4.4952,4.2563,4.079,3.9715,3.8777,0.0,3.6724,3.6112,3.5582,3.5075,3.4791,0.0,0.0,0.0,0.0,0.0,0.0,0.0,0.0,0.0,0.0,0.0,3.795,3.7281,3.6312,3.7141,3.9337,4.3134,4.36,4.5322,4.9424,4.9698,5.0616,5.2953,5.3301,5.3649,5.4528,5.5168,5.5514,5.5335,5.5793,5.6054,5.5788,5.5602,5.5412,5.5346,5.5335,5.5227,5.5036,5.4981,5.5086,5.5247,5.5212,5.5317,5.5458,5.5493,5.5478,5.5419,5.5404,5.5374,5.5284,5.5053,5.49,5.49,5.4667,5.4545,5.451,5.4494,5.4573,5.4761,5.4652,5.4383,5.4078,5.4159,5.4319,6.0356,6.0053,6.0039,5.9366,0.0,5.7944,5.4861,5.0091,5.0557,5.0586,5.0251,5.0162,5.0148,5.0089,4.8544,4.8034,4.8442,4.8198,4.8773,5.0047,5.1271,5.2239,5.3006,5.3675,5.3959,5.4006,5.4228,5.439,5.4507,5.5168,5.5124,5.4377,5.4377,5.4311,5.4225,5.3349,5.1062,4.7408,4.7211,4.7197,4.7288,4.578,4.4386,4.3264,4.2056,0.0,0.0,0.0,0.0,0.0,0.0,0.0,0.0,3.8173,0.0,3.8515,3.8717,3.9128,3.9846,4.0858,4.1796,4.2555,4.3259,4.2791,4.075,4.1754,4.377,4.6686,4.6973,4.8282,5.1476,5.1783,5.2597,5.4741,5.5017,5.5209,5.572,5.6154,5.633,5.6136,5.6389,5.6519,5.6336,5.6148,5.595,5.5735,5.5669,5.5581,5.5507,5.5493,5.5493,5.5493,5.5493,5.5493,5.5493,5.5493,5.5493,5.5493,5.5493,5.5493,5.5493,5.5374,5.5234,5.5219,5.5083,5.4976,5.5011,5.5011,5.5026,5.4992,5.4992,5.4869,5.4573,5.4494,5.4557,6.2344,6.2152,6.1547,6.031,5.8766,5.8143,5.691,5.5371,5.5318,0.0,0.0,5.3743,5.3436,5.3055,5.1031,4.9825,4.9385,4.9001,4.9594,5.0998,5.2379,5.3682,5.4869,5.5298,5.5493,5.5526,5.5711,5.5808,5.5818,5.6263,5.684,5.7462,5.7499,5.7843,5.8417,5.7825,5.5581,5.1914,4.9704,4.8966,4.9566,4.9104,4.816,4.678,4.5274,4.3806,4.2347,4.0737,4.0061,4.0485,3.9997,4.0079,4.0718,3.9961,3.9479,3.9421,4.0211,4.1228,4.2521,4.4038,4.547,4.6764,4.7725,4.7487,4.5606,4.656,4.7961,4.9567,4.9817,5.0557,5.2145,5.2319,5.3289,5.5692,5.5857,5.6145,5.6825,5.6959,5.6819,5.6667,5.6573,5.6478,5.6294,5.6225,5.6113,5.5836,5.5735,5.5648,5.5537,5.5493,5.5493,5.5493,5.5493,5.5493,5.5493,5.5493,5.5493,5.5493,5.5493,5.5493,5.5493,5.5493,5.5493,5.5478,5.5493,5.5478,5.5478,5.5448,5.5404,5.5144,5.5279,5.5433,5.5144,5.4869,5.4792,6.241,6.2384,6.2238,6.1987,6.1623,6.1646,6.1103,5.9923,5.6261,5.4558,5.443,5.4604,5.5099,5.5821,5.5015,5.4721,5.4785,5.4966,5.505,5.5053,5.5332,5.5491,5.5644,5.5786,5.5897,5.6023,5.6162,5.6213,5.6297,5.7006,5.7398,5.7509,5.7499,5.7573,5.7685,5.8221,5.7777,5.6319,5.302,5.0618,4.9289,4.7232,4.5672,4.4657,4.3867,4.2342,4.0463,4.0028,3.9252,3.8414,3.8058,3.934,4.2533,4.2888,4.4016,4.6369,4.7035,4.7375,4.7538,4.8098,4.8567,4.8984,4.9197,4.9149,4.8875,4.9006,4.9519,5.045,5.1069,5.2069,5.366,5.432,5.5071,5.6259,5.658,5.6682,5.6839,5.6852,5.675,5.6613,5.6492,5.6424,5.6355,5.6281,5.6197,5.6113,5.585,5.5634,5.5537,5.5493,5.5493,5.5493,5.5493,5.5493,5.5493,5.5493,5.5493,5.5493,5.5493,5.5493,5.5493,5.5493,5.5493,5.5493,5.5493,5.5493,5.5493,5.5493,5.5463,5.5404,5.5463,5.5463,5.5404,5.5344,5.5329,6.3014,6.2953,6.2953,6.2867,6.2755,6.2805,6.2316,6.1386,5.9444,5.7947,5.6988,5.7061,5.6983,5.6683,5.5627,5.4985,5.4726,5.4009,5.4065,5.4754,5.5198,5.5842,5.6615,5.709,5.7587,5.8095,5.82,5.8502,5.8958,5.9329,5.9515,5.9467,5.9059,5.8576,5.8205,5.8502,5.8237,5.7291,5.5597,5.4049,5.2683,5.1253,5.0293,4.993,4.8783,4.7733,4.6892,4.6023,4.5288,4.4706,4.4558,4.5303,4.6968,4.6986,4.7525,4.8877,4.9334,4.9538,4.9503,5.0608,5.1355,5.1574,5.1872,5.205,5.205,5.1262,5.1155,5.1943,5.2632,5.3524,5.4619,5.5084,5.5674,5.6515,5.6733,5.6786,5.6733,5.6737,5.672,5.6532,5.6505,5.6478,5.6396,5.6328,5.6281,5.6197,5.5893,5.5669,5.5522,5.5493,5.5493,5.5493,5.5493,5.5493,5.5493,5.5493,5.5493,5.5493,5.5493,5.5493,5.5493,5.5493,5.5493,5.5493,5.5493,5.5493,5.5493,5.5493,5.5493,5.5493,5.5493,5.5493,5.5493,5.5493,5.5493,6.3545,6.3465,6.3428,6.3407,6.3302,6.3206,6.2815,6.2189,6.2304,6.1375,5.9819,5.9355,5.8796,5.8072,5.6403,5.5498,5.5041,5.3804,5.3795,5.4832,5.5669,5.6675,5.7762,5.8624,5.9386,6.0022,6.0135,6.0523,6.1139,6.1187,6.1187,6.1102,6.0454,5.9727,5.8911,5.8858,5.8349,5.7508,5.74,5.6764,5.5677,5.5106,5.4834,5.4809,5.3542,5.2749,5.2588,5.15,5.0823,5.0711,5.0558,5.0551,5.076,5.0346,5.0096,5.0197,5.065,5.1101,5.1353,5.2586,5.3428,5.354,5.4017,5.4276,5.4179,5.3342,5.2838,5.3338,5.3956,5.4619,5.5125,5.5464,5.5902,5.6488,5.668,5.6684,5.664,5.6707,5.6693,5.6478,5.6505,5.6505,5.6424,5.6396,5.6336,5.6106,5.5865,5.5683,5.5537,5.5493,5.5493,5.5493,5.5493,5.5493,5.5493,5.5493,5.5493,5.5493,5.5493,5.5493,5.5493,5.5493,5.5493,5.5493,5.5493,5.5493,5.5493,5.5493,5.5493,5.5493,5.5493,5.5493,5.5493,5.5493,5.5493,6.359,6.3579,6.3568,6.3568,6.3522,6.3289,6.3217,6.3259,6.345,6.2933,6.1769,6.0315,6.0355,6.1169,5.9423,5.877,5.9132,5.8597,5.8104,5.7936,5.8867,5.9246,5.9264,6.0118,6.0688,6.0889,6.0911,6.1052,6.1314,6.1288,6.1224,6.1154,6.0844,6.0348,5.9586,5.9283,5.8752,5.7932,5.778,5.7118,5.5885,5.5607,5.5448,5.5336,5.4568,5.3688,5.2863,5.2083,5.1682,5.1626,5.1018,5.1058,5.1866,5.1595,5.1376,5.1477,5.2408,5.3373,5.4132,5.4273,5.4295,5.4295,5.4516,5.4575,5.4511,5.493,5.485,5.4346,5.471,5.5174,5.5227,5.5852,5.6322,5.6407,5.6559,5.6613,5.6613,5.6613,5.6613,5.66,5.6505,5.641,5.6396,5.6383,5.6259,5.5943,5.5807,5.5634,5.5522,5.5493,5.5493,5.5493,5.5493,5.5493,5.5493,5.5493,5.5493,5.5493,5.5493,5.5493,5.5493,5.5493,5.5493,5.5493,5.5493,5.5493,5.5493,5.5493,5.5493,5.5493,5.5493,5.5493,5.5493,5.5493,5.5493,6.359,6.359,6.359,6.359,6.3568,6.3407,6.3417,6.3561,6.3661,6.3453,6.3,6.2055,6.1682,6.1656,6.0828,6.0658,6.0998,6.0631,6.0401,6.0278,6.0603,6.0625,6.0455,6.0851,6.1263,6.1587,6.1681,6.1971,6.2424,6.2554,6.2402,6.1934,6.1636,6.1115,6.0353,6.0048,5.9479,5.8625,5.86,5.8039,5.698,5.6442,5.6322,5.631,5.5261,5.4367,5.3814,5.318,5.2712,5.2502,5.2533,5.2817,5.3243,5.3268,5.3304,5.3367,5.3891,5.446,5.4942,5.5269,5.5449,5.5485,5.5895,5.6111,5.6061,5.6373,5.6358,5.604,5.6064,5.6204,5.6348,5.6632,5.6733,5.6667,5.6626,5.6613,5.66,5.668,5.6707,5.6626,5.6626,5.6559,5.641,5.635,5.6169,5.5865,5.5721,5.5669,5.5522,5.5493,5.5493,5.5493,5.5493,5.5493,5.5493,5.5493,5.5493,5.5493,5.5493,5.5493,5.5493,5.5493,5.5493,5.5493,5.5493,5.5493,5.5493,5.5493,5.5493,5.5493,5.5493,5.5493,5.5493,5.5493,5.5493,6.3753,6.3742,6.3643,6.3613,6.3545,6.3534,6.3587,6.3727,6.3862,6.3936,6.3898,6.364,6.3172,6.2415,6.1846,6.1724,6.1998,6.1684,6.1521,6.1541,6.1718,6.1755,6.1576,6.1933,6.2166,6.2396,6.2538,6.2906,6.3425,6.3658,6.3394,6.2762,6.245,6.1927,6.1154,6.0798,6.0176,5.9371,5.9286,5.8859,5.8077,5.7676,5.742,5.7213,5.608,5.5319,5.5235,5.4691,5.4276,5.4131,5.4424,5.4615,5.4703,5.4772,5.4858,5.5025,5.5184,5.5473,5.5821,5.6297,5.6528,5.6564,5.7035,5.7301,5.7301,5.7301,5.7338,5.7351,5.7163,5.7087,5.7138,5.71,5.6997,5.6907,5.6803,5.6786,5.6763,5.6842,5.6829,5.6707,5.6746,5.6707,5.6451,5.63,5.6134,5.585,5.5692,5.5604,5.5522,5.5493,5.5493,5.5493,5.5493,5.5493,5.5493,5.5493,5.5493,5.5493,5.5493,5.5493,5.5493,5.5493,5.5493,5.5493,5.5493,5.5493,5.5493,5.5493,5.5493,5.5493,5.5493,5.5493,5.5493,5.5493,5.5493,6.4189,6.4128,6.3835,6.3621,6.3454,6.3606,6.3705,6.3825,6.4292,6.4492,6.4474,6.4693,6.4818,6.4496,6.273,6.2158,6.2541,6.2024,6.1721,6.1626,6.2368,6.2705,6.2704,6.3535,6.3745,6.3364,6.3464,6.3587,6.3658,6.3921,6.3883,6.3527,6.3213,6.2714,6.1991,6.1471,6.0781,6.0051,5.9699,5.9334,5.9155,5.9306,5.8778,5.7777,5.7091,5.6879,5.6982,5.6491,5.6402,5.7034,5.637,5.6163,5.6387,5.5854,5.5761,5.6234,5.6319,5.6671,5.7291,5.7352,5.7316,5.7352,5.7449,5.7571,5.7571,5.7571,5.7655,5.7927,5.7655,5.7461,5.7289,5.7239,5.7201,5.7188,5.7163,5.7138,5.715,5.7138,5.7049,5.6855,5.6852,5.6733,5.6451,5.6333,5.6168,5.5922,5.5648,5.5507,5.5507,5.5493,5.5493,5.5493,5.5493,5.5493,5.5493,5.5493,5.5493,5.5493,5.5493,5.5493,5.5493,5.5493,5.5493,5.5493,5.5493,5.5493,5.5493,5.5493,5.5493,5.5493,5.5493,5.5493,5.5493,5.5493,5.5493,6.4169,6.4135,6.4011,6.3947,6.392,6.392,6.408,6.4407,6.4558,6.4686,6.4842,6.4946,6.4976,6.488,6.414,6.386,6.3936,6.37,6.3531,6.3511,6.3842,6.3925,6.3834,6.4154,6.4114,6.3835,6.3942,6.4087,6.4149,6.4145,6.4021,6.384,6.3417,6.3035,6.2754,6.2402,6.1787,6.098,6.0819,6.0449,5.982,5.9914,5.9699,5.9176,5.8444,5.781,5.7179,5.7139,5.7241,5.7485,5.7361,5.7368,5.7494,5.71,5.697,5.7239,5.7276,5.7457,5.7772,5.7834,5.7762,5.7798,5.7834,5.7857,5.7869,5.7869,5.7904,5.7962,5.7927,5.7774,5.7727,5.7559,5.7437,5.7425,5.7301,5.7239,5.7289,5.7313,5.7276,5.7188,5.71,5.6907,5.6626,5.6402,5.6146,5.585,5.5625,5.5522,5.5507,5.5493,5.5493,5.5493,5.5493,5.5493,5.5493,5.5493,5.5493,5.5493,5.5493,5.5493,5.5493,5.5493,5.5493,5.5493,5.5493,5.5493,5.5493,5.5493,5.5493,5.5493,5.5493,5.5493,5.5493,5.5598,5.5563,6.4346,6.4206,6.4227,6.4179,6.4169,6.4231,6.4464,6.4775,6.4836,6.4968,6.5106,6.5123,6.512,6.5069,6.5061,6.5019,6.4894,6.4795,6.4806,6.4806,6.4806,6.4734,6.4615,6.4558,6.4385,6.4118,6.4231,6.4378,6.4454,6.4434,6.4326,6.4155,6.372,6.3462,6.3394,6.3099,6.2586,6.2096,6.1973,6.1605,6.0943,6.1068,6.1019,6.0701,6.027,5.9501,5.8397,5.8285,5.8338,5.8388,5.833,5.8253,5.822,5.7948,5.7822,5.7869,5.7832,5.7904,5.7985,5.7997,5.7997,5.7997,5.7997,5.7997,5.7997,5.7997,5.7997,5.7997,5.7997,5.7997,5.7973,5.7845,5.7751,5.7691,5.7547,5.7486,5.7559,5.7583,5.7547,5.7449,5.7375,5.7138,5.6789,5.6555,5.6311,5.6,5.5721,5.5522,5.5625,5.5552,5.5493,5.5493,5.5493,5.5493,5.5507,5.5507,5.5493,5.5493,5.5493,5.5493,5.5493,5.5493,5.5493,5.5493,5.5493,5.5493,5.5493,5.5493,5.5493,5.5493,5.5493,5.5493,5.5598,5.5773,5.5914,6.4708,6.4434,6.4473,6.4339,6.4202,6.4576,6.4783,6.4917,6.522,6.5322,6.5329,6.5391,6.5368,6.5391,6.536,6.5344,6.5242,6.5111,6.4998,6.4981,6.4972,6.4963,6.4938,6.488,6.4717,6.4434,6.4539,6.4539,6.4501,6.4734,6.4716,6.4415,6.4155,6.3958,6.3878,6.3485,6.3242,6.3096,6.2903,6.272,6.2655,6.2854,6.2674,6.2219,6.2337,6.1986,6.0922,6.0111,5.9769,5.9907,5.9248,5.8739,5.8486,5.8246,5.8111,5.7997,5.7997,5.7997,5.7997,5.7997,5.7997,5.7997,5.7997,5.7997,5.7997,5.7997,5.7997,5.7997,5.7997,5.7997,5.7997,5.7973,5.7962,5.7985,5.7916,5.7916,5.795,5.7973,5.7904,5.7655,5.7595,5.7425,5.7087,5.6819,5.6648,5.6451,5.5993,5.5698,5.5865,5.575,5.5581,5.5566,5.5654,5.5727,5.561,5.5507,5.5507,5.5493,5.5493,5.5493,5.5493,5.5493,5.5493,5.5493,5.5493,5.5493,5.5493,5.5493,5.5493,5.5493,5.5493,5.5668,5.5879,5.6139,5.6526,6.4824,6.4643,6.4797,6.4813,6.4766,6.4951,6.5077,6.5228,6.5345,6.5413,6.5413,6.5413,6.5413,6.5413,6.5413,6.5398,6.5368,6.5313,6.5242,6.5136,6.5061,6.4998,6.501,6.4932,6.4871,6.4833,6.4946,6.4981,6.495,6.485,6.4725,6.4587,6.4309,6.4159,6.4108,6.3973,6.3899,6.3867,6.3672,6.3606,6.3668,6.3683,6.3611,6.3557,6.3547,6.3376,6.3129,6.1651,6.0927,6.1052,6.0024,5.9117,5.8511,5.819,5.8042,5.8008,5.7997,5.7997,5.7997,5.7997,5.7997,5.7997,5.7997,5.7997,5.7997,5.7997,5.7997,5.8008,5.8008,5.7997,5.7997,5.7997,5.807,5.7997,5.7997,5.7997,5.7997,5.7997,5.7962,5.7904,5.7844,5.7679,5.7399,5.7174,5.7064,5.6788,5.6407,5.624,5.6225,5.624,5.6106,5.6106,5.6092,5.595,5.585,5.5771,5.5783,5.5745,5.5687,5.5543,5.5493,5.5493,5.5493,5.5563,5.5563,5.5598,5.5598,5.5703,5.5809,5.5859,5.6034,5.6174,5.6315,5.6701,5.7228,6.4894,6.4842,6.5015,6.5098,6.5101,6.5188,6.5283,6.5368,6.5413,6.5413,6.5413,6.5413,6.5413,6.5413,6.5413,6.5413,6.5413,6.5413,6.536,6.525,6.5136,6.5086,6.5069,6.4984,6.4993,6.5078,6.5215,6.5218,6.521,6.5015,6.4903,6.4833,6.4549,6.4367,6.4366,6.4326,6.4249,6.4199,6.4108,6.4155,6.4169,6.4077,6.4077,6.4169,6.4077,6.4015,6.3913,6.2806,6.2039,6.1635,6.0626,5.9666,5.9085,5.8738,5.8437,5.84,5.818,5.7997,5.7997,5.7997,5.7997,5.7997,5.7997,5.7997,5.7997,5.7997,5.7997,5.8008,5.829,5.8425,5.8474,5.8767,5.8877,5.8914,5.8327,5.8033,5.7997,5.7997,5.818,5.8352,5.8499,5.8407,5.8348,5.8196,5.8017,5.7729,5.7446,5.7108,5.705,5.6915,5.6795,5.6575,5.6314,5.6203,5.6106,5.6042,5.6049,5.599,5.5945,5.5687,5.5493,5.5493,5.5528,5.5668,5.5718,5.6069,5.6104,5.649,5.6701,5.6666,5.6631,5.6912,5.7193,5.7739,5.8195,6.5034,6.5091,6.5332,6.5479,6.5446,6.5612,6.5712,6.5643,6.5643,6.5727,6.5681,6.5643,6.5566,6.549,6.549,6.5413,6.5413,6.5413,6.5413,6.536,6.525,6.5207,6.512,6.5078,6.5095,6.5161,6.5242,6.5274,6.525,6.521,6.528,6.5149,6.4842,6.4689,6.4662,6.4539,6.4424,6.4358,6.4385,6.4318,6.4279,6.4239,6.4229,6.4249,6.4189,6.4046,6.3755,6.3464,6.3052,6.2235,6.1082,6.0454,6.0248,5.9673,5.9269,5.9221,5.8547,5.8364,5.8217,5.84,5.8364,5.84,5.8364,5.8107,5.8375,5.8474,5.8437,5.8437,5.8939,5.9269,5.938,5.9783,6.0162,6.0162,5.9134,5.8437,5.818,5.8253,5.8657,5.9123,5.9294,5.9394,5.9748,5.9545,5.944,5.9319,5.8898,5.8443,5.799,5.7676,5.7306,5.7127,5.7043,5.7163,5.7308,5.7057,5.7029,5.7028,5.6869,5.6552,5.6144,5.6079,5.6069,5.6174,5.6245,5.6526,5.6736,5.7122,5.7368,5.7368,5.7474,5.7754,5.8141,5.8617,5.8968,6.6083,6.6142,6.6885,6.717,6.7154,6.724,6.7217,6.7255,6.7217,6.7141,6.7095,6.6598,6.6369,6.6285,6.5719,6.5413,6.549,6.549,6.5413,6.536,6.5305,6.5177,6.512,6.5177,6.5202,6.5194,6.5258,6.5296,6.524,6.5153,6.5136,6.5207,6.4998,6.4938,6.5001,6.4877,6.4833,6.4741,6.4596,6.4624,6.4652,6.453,6.4482,6.4463,6.4247,6.4,6.3683,6.3356,6.2788,6.2014,6.1675,6.1103,6.0566,6.0224,6.0077,6.004,5.9869,5.9722,5.9722,5.9685,5.9722,5.9758,5.9612,5.9795,5.9758,5.9758,5.9758,5.9795,6.0003,6.0077,6.0114,6.0334,6.0444,6.0346,6.0052,5.9722,5.9685,5.9758,5.9869,6.004,6.0077,6.0139,6.0225,6.0136,5.9983,5.9854,5.9621,5.9204,5.8848,5.8825,5.8642,5.8424,5.832,5.8511,5.8528,5.8216,5.8118,5.8196,5.8088,5.7868,5.7514,5.7344,5.7304,5.7333,5.7263,5.7474,5.7509,5.7684,5.7825,5.8141,5.8351,5.8632,5.8878,5.9264,5.9615,6.647,6.6608,6.7522,6.7905,6.7905,6.7905,6.7905,6.7905,6.7905,6.7905,6.779,6.7439,6.7209,6.7133,6.6674,6.6453,6.6445,6.6445,6.646,6.6421,6.6404,6.595,6.5376,6.525,6.5282,6.5282,6.5351,6.529,6.5234,6.5161,6.5153,6.5199,6.512,6.5103,6.5086,6.5144,6.5069,6.4938,6.4871,6.488,6.4871,6.4615,6.4444,6.4326,6.4052,6.3716,6.3402,6.3099,6.2696,6.2328,6.2206,6.1949,6.1447,6.108,6.0933,6.0896,6.0603,6.037,6.0407,6.0407,6.0407,6.0382,6.0407,6.0407,6.0346,6.0407,6.0407,6.0334,6.0664,6.086,6.097,6.1178,6.1361,6.1471,6.1398,6.1117,6.0529,6.0334,6.0554,6.075,6.0896,6.1031,6.1128,6.1063,6.0923,6.0854,6.0841,6.0276,5.9756,5.9928,5.9868,5.9434,5.9253,5.9325,5.9286,5.9017,5.9165,5.9266,5.9329,5.9124,5.8638,5.8351,5.7987,5.793,5.8141,5.8301,5.8316,5.8457,5.8913,5.9194,5.9334,5.9475,5.9685,5.9931,6.0282,6.6807,6.7018,6.7821,6.8172,6.8211,6.8058,6.8134,6.8058,6.7943,6.7905,6.7867,6.779,6.7523,6.779,6.7141,6.7485,6.7446,6.7102,6.7399,6.7351,6.7289,6.6777,6.5946,6.5878,6.5879,6.5879,6.5635,6.5559,6.5534,6.5434,6.525,6.5226,6.524,6.5153,6.5191,6.5316,6.5288,6.5267,6.5512,6.5519,6.53,6.4954,6.4627,6.4304,6.3709,6.3345,6.3087,6.2867,6.2768,6.2805,6.2793,6.2695,6.2609,6.2034,6.1777,6.163,6.1227,6.086,6.0737,6.0896,6.0774,6.0848,6.0811,6.0627,6.0848,6.0921,6.0921,6.0958,6.1337,6.1667,6.1814,6.2352,6.2536,6.2499,6.2646,6.2059,6.1068,6.0627,6.0933,6.1606,6.1741,6.2046,6.2336,6.2488,6.2271,6.1659,6.156,6.1041,6.0652,6.0688,6.0435,5.9928,5.9855,5.9964,5.9867,5.9732,6.0096,6.0336,6.046,6.0253,5.9476,5.9051,5.8495,5.8351,5.8843,5.9073,5.9108,5.944,5.9877,6.0142,6.0212,6.0282,6.0423,6.0704,6.1036,6.8629,6.8738,6.9532,6.9876,6.9761,6.9196,6.8937,6.8852,6.8203,6.8058,6.7828,6.7324,6.7095,6.7049,6.6674,6.5948,6.6376,6.6415,6.6277,6.6918,6.6949,6.7216,6.7186,6.7331,6.7308,6.7179,6.6674,6.643,6.6284,6.5779,6.5351,6.5459,6.5541,6.532,6.5458,6.5925,6.615,6.618,6.6614,6.6689,6.6286,6.5669,6.5124,6.4666,6.3678,6.3075,6.2892,6.2805,6.2793,6.2793,6.2793,6.2793,6.2756,6.2609,6.2462,6.2401,6.2352,6.2205,6.2242,6.2132,6.2279,6.2132,6.2059,6.2279,6.2279,6.2169,6.2205,6.2279,6.2462,6.2462,6.2462,6.2646,6.2793,6.2793,6.2793,6.2683,6.2352,6.2205,6.2279,6.2389,6.2462,6.2597,6.2706,6.2513,6.2384,6.2354,6.2063,6.1634,6.1485,6.1412,6.105,6.0579,6.0991,6.1172,6.1191,6.114,6.141,6.1536,6.1558,6.1542,6.0762,6.018,5.9765,5.9615,5.9721,5.9896,6.0107,6.0072,6.0439,6.0739,6.1055,6.1195,6.1352,6.1598,6.1773,6.8585,6.8699,6.9884,7.0411,7.0334,6.996,6.9769,6.9693,6.9311,6.9082,6.9005,6.8577,6.8424,6.8424,6.7973,6.7836,6.7791,6.7799,6.8097,6.8564,6.8563,6.8715,6.9007,6.8983,6.8776,6.802,6.7485,6.727,6.704,6.6765,6.6612,6.6536,6.6442,6.6562,6.6472,6.6793,6.689,6.6888,6.7224,6.7324,6.6975,6.6346,6.5388,6.4577,6.353,6.2867,6.2805,6.2793,6.2793,6.2793,6.2793,6.2793,6.2793,6.2793,6.2793,6.2793,6.2793,6.2793,6.2793,6.2793,6.2756,6.2793,6.2793,6.2793,6.2793,6.2793,6.2793,6.2793,6.2793,6.2793,6.2793,6.2793,6.2793,6.2793,6.2829,6.2829,6.2829,6.2793,6.2793,6.2793,6.2756,6.2756,6.2717,6.2539,6.2496,6.2417,6.2241,6.186,6.1811,6.1738,6.1702,6.1593,6.215,6.2476,6.2521,6.2669,6.2873,6.2882,6.2728,6.2647,6.2297,6.1699,6.1228,6.1071,6.0879,6.116,6.1336,6.1211,6.1106,6.1511,6.1862,6.2089,6.2195,6.2195,6.2476,6.8279,6.8394,6.9799,7.0411,7.0372,7.022,7.0105,7.0143,7.0075,6.9616,6.999,7.0029,6.9379,6.9799,6.9693,6.997,6.9949,6.9873,6.9483,6.9858,6.9719,6.9894,7.0185,7.0091,6.96,6.8356,6.8165,6.8048,6.7978,6.7872,6.7504,6.7684,6.7697,6.7474,6.7576,6.7753,6.773,6.7708,6.7938,6.7959,6.7569,6.6903,6.5791,6.4291,6.359,6.3001,6.2866,6.2793,6.2793,6.2793,6.2793,6.2793,6.2793,6.2793,6.2793,6.2793,6.2793,6.2793,6.2793,6.2793,6.2793,6.2793,6.2793,6.2793,6.2793,6.2829,6.2939,6.3135,6.3282,6.3417,6.3196,6.3417,6.3343,6.3306,6.3233,6.316,6.316,6.316,6.327,6.2793,6.2793,6.2793,6.273,6.259,6.2561,6.254,6.2363,6.2273,6.2259,6.2354,6.2476,6.2621,6.3128,6.3345,6.3404,6.3484,6.3812,6.3725,6.3618,6.3505,6.336,6.2865,6.2281,6.216,6.2124,6.223,6.2195,6.1949,6.2019,6.2441,6.2651,6.2862,6.2862,6.2757,6.3161,6.999,6.999,7.0296,7.0411,7.0296,6.9693,6.9502,6.9273,6.8814,6.8363,6.847,6.8363,6.8585,6.8516,6.8363,6.8449,6.8962,6.9175,6.9289,6.9742,6.9727,6.9948,7.0461,7.0432,7.0124,6.9906,6.9333,6.8902,6.8662,6.8188,6.8117,6.7775,6.7796,6.7779,6.8019,6.8204,6.8551,6.8583,6.8887,6.8989,6.8625,6.7624,6.6243,6.4559,6.4079,6.3638,6.3062,6.2866,6.2793,6.2793,6.2793,6.2866,6.2976,6.2976,6.2939,6.2793,6.2793,6.2793,6.2793,6.2866,6.2829,6.2793,6.2976,6.2939,6.2903,6.2939,6.3343,6.387,6.442,6.4774,6.4884,6.4628,6.4811,6.4811,6.4701,6.4701,6.4701,6.4591,6.415,6.338,6.3086,6.3013,6.317,6.3277,6.327,6.3384,6.3297,6.3375,6.351,6.3641,6.3794,6.3939,6.412,6.4192,6.4215,6.4273,6.4383,6.423,6.4091,6.404,6.3863,6.3618,6.3334,6.3108,6.281,6.267,6.2651,6.2651,6.2897,6.3231,6.3442,6.3583,6.3653,6.3688,6.3934,6.9807,6.9846,7.022,7.0411,7.0334,6.999,6.9807,6.9769,6.9387,6.9196,6.9196,6.9196,6.9196,6.9204,6.9252,6.9368,6.9442,6.9575,6.9833,7.0143,7.0064,7.0118,7.0523,7.0369,7.0324,7.0163,6.9858,6.9684,6.9667,6.9311,6.8917,6.8958,6.8876,6.885,6.889,6.9123,6.9266,6.9332,6.952,6.9549,6.9305,6.8047,6.6555,6.5703,6.5025,6.4633,6.4262,6.4204,6.4216,6.4152,6.4114,6.4077,6.404,6.3967,6.3673,6.305,6.2866,6.2829,6.2939,6.3135,6.3503,6.3539,6.3796,6.4077,6.4077,6.4224,6.4261,6.4664,6.4934,6.5325,6.5251,6.5362,6.5325,6.5325,6.5362,6.5362,6.5362,6.5362,6.4848,6.4224,6.4297,6.4334,6.4198,6.4231,6.4177,6.4168,6.4207,6.4385,6.4646,6.4698,6.4779,6.4772,6.4881,6.5156,6.5192,6.5251,6.5214,6.5003,6.47,6.4595,6.4454,6.4287,6.4123,6.3934,6.3653,6.3477,6.3618,6.3828,6.3969,6.4004,6.4109,6.4214,6.4495,6.4689,6.4794,6.9425,6.9502,7.0143,7.0411,7.0411,7.0411,7.0372,7.0411,7.0372,7.0296,7.0411,7.0372,7.0351,7.0429,7.0516,7.0631,7.0794,7.078,7.0769,7.0742,7.0659,7.0632,7.0516,7.0386,7.0298,7.0264,7.0073,7.0185,7.0106,6.9957,7.0064,6.984,6.9899,6.9948,6.9806,6.9635,6.9709,6.9649,6.9607,6.9447,6.8961,6.8166,6.7185,6.6633,6.616,6.5754,6.5271,6.5223,6.5198,6.5156,6.5178,6.5215,6.5288,6.5288,6.4664,6.3563,6.3343,6.3306,6.349,6.3906,6.431,6.4347,6.4884,6.5178,6.5288,6.5215,6.5472,6.5545,6.5802,6.5962,6.6035,6.5852,6.5888,6.5912,6.5925,6.5815,6.5962,6.6072,6.6109,6.5815,6.5778,6.5472,6.5128,6.4919,6.4791,6.5061,6.51,6.5291,6.5515,6.543,6.5445,6.5402,6.5555,6.6062,6.6243,6.6315,6.6228,6.6083,6.5617,6.5324,6.5177,6.5022,6.4769,6.4478,6.4811,6.4706,6.4846,6.4724,6.4478,6.4408,6.4619,6.4689,6.4724,6.497,6.5233,7.0258,7.0258,7.0372,7.0411,7.0411,7.0411,7.0411,7.0411,7.0411,7.0411,7.0411,7.0419,7.0459,7.0593,7.0723,7.0803,7.0808,7.0857,7.0898,7.0878,7.0796,7.0699,7.0684,7.0427,7.026,7.0203,7.0022,6.9966,7.0003,7.0003,6.9929,6.9825,6.9854,6.9844,6.9737,6.9669,6.9659,6.9607,6.9495,6.9171,6.874,6.8567,6.791,6.7198,6.6802,6.6544,6.6001,6.5851,6.5625,6.5498,6.5398,6.5362,6.5325,6.5325,6.5251,6.5068,6.4995,6.4995,6.4897,6.5044,6.5154,6.5191,6.5398,6.5325,6.5668,6.6072,6.6366,6.6402,6.688,6.7187,6.7113,6.726,6.737,6.726,6.7063,6.715,6.7223,6.6733,6.6806,6.693,6.6733,6.6182,6.5729,6.5519,6.5406,6.575,6.6016,6.622,6.6262,6.6162,6.6112,6.6018,6.5989,6.646,6.6605,6.6786,6.6822,6.6822,6.6305,6.5804,6.5597,6.5353,6.5018,6.4899,6.5373,6.5584,6.5408,6.5145,6.4864,6.4934,6.5285,6.5075,6.4724,6.511,6.5724,7.0411,7.0411,7.0411,7.0411,7.0411,7.0411,7.0411,7.0411,7.0411,7.0411,7.0427,7.0467,7.0593,7.0715,7.0803,7.0815,7.085,7.0885,7.0898,7.0878,7.0787,7.0714,7.0547,7.0323,7.0173,7.0039,6.9872,6.9747,6.9767,6.9815,6.9777,6.9728,6.9748,6.9748,6.9627,6.9559,6.9508,6.9436,6.9321,6.9094,6.8797,6.8702,6.8472,6.7864,6.7887,6.7542,6.7148,6.716,6.6909,6.6778,6.6659,6.6659,6.6659,6.6696,6.6659,6.6659,6.6659,6.6219,6.5485,6.5778,6.5925,6.6145,6.6329,6.6733,6.6733,6.688,6.7136,6.7187,6.748,6.7664,6.77,6.77,6.77,6.77,6.77,6.77,6.77,6.77,6.7517,6.7627,6.7627,6.7003,6.6512,6.6499,6.6486,6.6639,6.6774,6.6834,6.6784,6.6656,6.6642,6.6641,6.6641,6.6714,6.675,6.6822,6.6844,6.677,6.6331,6.5907,6.5801,6.5542,6.5438,6.5601,6.6075,6.6145,6.5917,6.5917,6.59,6.597,6.604,6.5812,6.5672,6.6023,6.6532,7.0411,7.0411,7.0411,7.0411,7.0411,7.0411,7.0411,7.0411,7.0411,7.0427,7.0475,7.0601,7.0723,7.0772,7.0808,7.085,7.0891,7.0878,7.0871,7.085,7.0794,7.0699,7.057,7.0306,7.0156,7.0004,6.9844,6.9776,6.9709,6.9728,6.9767,6.964,6.9687,6.961,6.9549,6.9467,6.9432,6.9332,6.9246,6.9072,6.8855,6.8877,6.8763,6.867,6.8658,6.8623,6.8297,6.821,6.8021,6.771,6.7517,6.748,6.748,6.7444,6.748,6.748,6.7444,6.71,6.6549,6.6512,6.6733,6.7003,6.7187,6.748,6.7554,6.77,6.7664,6.759,6.7627,6.77,6.77,6.77,6.77,6.77,6.77,6.77,6.77,6.77,6.77,6.77,6.77,6.77,6.7407,6.7517,6.7577,6.7614,6.7606,6.7419,6.7219,6.6932,6.6859,6.6822,6.6858,6.6858,6.6858,6.6858,6.6858,6.6906,6.6515,6.64,6.6508,6.6443,6.6354,6.662,6.6865,6.7023,6.704,6.7023,6.6988,6.6707,6.6532,6.6742,6.6848,6.7129,6.7445,7.0411,7.0411,7.0411,7.0411,7.0411,7.0411,7.0411,7.0411,7.0411,7.0459,7.0585,7.0684,7.075,7.0801,7.0843,7.0871,7.0891,7.0829,7.0808,7.0772,7.0721,7.0677,7.057,7.0451,7.0311,7.0191,6.9984,6.9863,6.9825,6.9863,6.9719,6.9488,6.963,6.9495,6.9395,6.9436,6.9332,6.9268,6.9192,6.9094,6.8968,6.8979,6.9027,6.8843,6.876,6.8693,6.8468,6.8297,6.8081,6.7741,6.77,6.77,6.77,6.77,6.77,6.77,6.77,6.748,6.7297,6.726,6.748,6.759,6.7664,6.77,6.77,6.77,6.77,6.77,6.77,6.77,6.77,6.77,6.77,6.77,6.77,6.77,6.77,6.77,6.77,6.77,6.77,6.77,6.77,6.77,6.77,6.77,6.7433,6.728,6.7105,6.6859,6.6815,6.6822,6.6895,6.6895,6.6895,6.704,6.7547,6.771,6.7477,6.7522,6.7656,6.7523,6.7288,6.7323,6.755,6.7866,6.8076,6.7901,6.7655,6.7199,6.7093,6.7515,6.7725,6.7901,6.8357,7.0411,7.0411,7.0411,7.0411,7.0411,7.0411,7.0411,7.0411,7.0411,7.0499,7.0662,7.073,7.075,7.0787,7.0808,7.0801,7.0765,7.0774,7.0721,7.0714,7.073,7.0685,7.0601,7.0473,7.0277,7.0191,6.9983,6.9863,6.9825,6.991,6.9816,6.9738,6.9787,6.9796,6.9728,6.9481,6.9363,6.9236,6.9192,6.9127,6.9116,6.9116,6.9149,6.9045,6.9061,6.8858,6.8541,6.8408,6.8132,6.7834,6.7714,6.77,6.77,6.77,6.77,6.77,6.77,6.77,6.77,6.77,6.77,6.77,6.77,6.77,6.77,6.77,6.77,6.77,6.77,6.77,6.77,6.77,6.77,6.77,6.77,6.77,6.77,6.77,6.77,6.77,6.77,6.77,6.77,6.77,6.77,6.7674,6.7392,6.7176,6.7085,6.7011,6.7091,6.7293,6.7402,6.751,6.7547,6.7909,6.8322,6.8418,6.8461,6.8491,6.8508,6.8372,6.8205,6.8204,6.8252,6.8568,6.8708,6.8603,6.8392,6.8147,6.8252,6.8586,6.8708,6.8638,6.8954,6.9799,7.0037,7.0067,7.0181,7.0372,7.0411,7.0411,7.0411,7.0411,7.0491,7.0678,7.07,7.0745,7.0789,7.0796,7.0736,7.073,7.0693,7.0678,7.0624,7.0601,7.0601,7.0522,7.0441,7.0319,7.0161,7.0082,7.001,7.0029,6.9992,7.001,7.0029,7.0038,7.0067,6.9835,6.9661,6.9388,6.9246,6.9192,6.9192,6.9181,6.9181,6.9192,6.9171,6.9171,6.8937,6.8624,6.8432,6.8184,6.7899,6.77,6.77,6.77,6.77,6.77,6.77,6.77,6.77,6.77,6.77,6.77,6.77,6.77,6.77,6.77,6.77,6.77,6.77,6.77,6.77,6.77,6.77,6.77,6.77,6.77,6.77,6.77,6.77,6.77,6.77,6.77,6.77,6.7737,6.7724,6.7716,6.7639,6.735,6.7316,6.7498,6.7504,6.7583,6.7836,6.8162,6.8271,6.838,6.8648,6.8938,6.9378,6.9389,6.9273,6.9237,6.9116,6.8965,6.8802,6.8937,6.9289,6.9253,6.9043,6.9148,6.9253,6.9253,6.9113,6.9148,6.906,6.913,6.8508,6.9196,6.9234,6.9655,7.022,7.0372,7.0411,7.0411,7.0411,7.0475,7.0616,7.0678,7.0715,7.0684,7.073,7.07,7.0624,7.0608,7.0585,7.0569,7.0499,7.0435,7.0419,7.0394,7.0369,7.0402,7.0336,7.0264,7.0315,7.0273,7.0328,7.0336,7.0302,7.0153,6.9844,6.9622,6.9399,6.9225,6.9192,6.9192,6.9192,6.9192,6.9192,6.9192,6.9192,6.8971,6.8672,6.8505,6.8247,6.7899,6.7727,6.77,6.77,6.77,6.77,6.77,6.77,6.77,6.77,6.77,6.77,6.77,6.77,6.77,6.77,6.77,6.77,6.77,6.77,6.77,6.77,6.77,6.77,6.77,6.77,6.77,6.77,6.77,6.77,6.77,6.77,6.77,6.7737,6.777,6.7758,6.7611,6.7303,6.7447,6.7912,6.8092,6.8222,6.8497,6.8875,6.9083,6.9192,6.9264,6.9554,7.0061,7.0299,7.0141,7.0047,7.0015,6.9796,6.9436,6.9324,6.9394,6.9394,6.9359,6.9394,6.9394,6.9394,6.9359,6.9394,6.9394,6.9394,6.8058,6.8325,6.8317,6.847,6.889,6.9952,7.0411,7.0411,7.0419,7.0499,7.0639,7.0655,7.0662,7.0685,7.0647,7.0601,7.0507,7.0491,7.0459,7.049,7.0427,7.0419,7.0411,7.0411,7.0411,7.0411,7.0411,7.0411,7.0394,7.0411,7.0411,7.0411,7.0386,7.0179,6.991,6.97,6.9552,6.9268,6.9192,6.9192,6.9192,6.9192,6.9192,6.9192,6.9192,6.9027,6.8693,6.8601,6.8309,6.7991,6.7847,6.7727,6.7714,6.77,6.77,6.77,6.77,6.77,6.77,6.77,6.77,6.77,6.77,6.77,6.77,6.77,6.77,6.77,6.77,6.77,6.77,6.77,6.77,6.77,6.77,6.77,6.77,6.77,6.77,6.77,6.77,6.8178,6.8348,6.8678,6.8678,6.8705,6.8584,6.8588,6.8961,6.8967,6.9031,6.9255,6.9552,6.9802,7.0025,7.0134,7.0315,7.0734,7.0961,7.0947,7.0907,7.0649,7.0254,6.9724,6.9542,6.9394,6.9394,6.9394,6.9394,6.9394,6.9394,6.9394,6.9394,6.9394,6.9394,6.7209,6.7477,6.7477,6.7676,6.8096,6.9387,7.0113,7.0334,7.0411,7.0483,7.0555,7.0561,7.0561,7.0585,7.0561,7.0522,7.0411,7.0411,7.0411,7.0411,7.0411,7.0411,7.0411,7.0411,7.0411,7.0411,7.0411,7.0411,7.0411,7.0411,7.0411,7.0411,7.0402,7.0213,6.9992,6.9825,6.9651,6.9357,6.9278,6.9192,6.9192,6.9192,6.9192,6.9192,6.916,6.9072,6.8843,6.8635,6.8444,6.8159,6.7965,6.7794,6.7741,6.77,6.77,6.77,6.77,6.77,6.77,6.77,6.77,6.77,6.77,6.77,6.77,6.77,6.77,6.77,6.77,6.77,6.77,6.77,6.77,6.77,6.77,6.77,6.7774,6.7774,6.7811,6.7811,6.8238,6.8678,6.9155,6.9545,6.9811,6.9902,6.9955,6.9945,6.9909,6.9864,6.989,7.0105,7.0314,7.0563,7.0806,7.0987,7.1205,7.1458,7.1431,7.1368,7.1029,7.0699,7.0341,6.9991,6.9668,6.9412,6.9394,6.9394,6.9394,6.9394,6.9394,6.9394,6.9394,6.9394,6.9394,6.591,6.659,6.6667,6.7095,6.7867,6.8623,6.9502,7.0296,7.0334,7.0342,7.0427,7.0435,7.0451,7.0435,7.0419,7.0419,7.0411,7.0411,7.0411,7.0411,7.0411,7.0411,7.0411,7.0411,7.0411,7.0411,7.0411,7.0411,7.0411,7.0411,7.0411,7.0411,7.0411,7.0264,7.0118,6.991,6.97,6.946,6.9289,6.9203,6.9192,6.9192,6.9192,6.9192,6.9171,6.9094,6.8911,6.8786,6.8516,6.8297,6.807,6.7939,6.7807,6.77,6.77,6.77,6.77,6.77,6.77,6.77,6.77,6.77,6.77,6.77,6.77,6.77,6.77,6.77,6.77,6.77,6.77,6.77,6.77,6.77,6.77,6.7737,6.7847,6.7921,6.7994,6.8274,6.8862,6.9412,7.0,7.044,7.083,7.1036,7.1024,7.0887,7.0814,7.0695,7.0793,7.1039,7.121,7.1293,7.1494,7.1458,7.1458,7.1494,7.1479,7.1384,7.1045,7.0764,7.0513,7.0149,6.9669,6.9449,6.9412,6.9394,6.9394,6.9394,6.9394,6.9394,6.9394,6.9394,6.9394,6.5528,6.5757,6.5757,6.591,6.6216,6.7056,6.8241,6.9425,6.9578,6.987,7.0538,7.0435,7.0435,7.053,7.0443,7.0419,7.0411,7.0411,7.0411,7.0411,7.0411,7.0411,7.0411,7.0411,7.0411,7.0411,7.0411,7.0411,7.0411,7.0411,7.0411,7.0411,7.0411,7.0361,7.0205,6.9983,6.9758,6.9542,6.9363,6.9268,6.9236,6.9246,6.9246,6.9246,6.9236,6.9122,6.9067,6.8889,6.8635,6.8432,6.8184,6.7967,6.7741,6.77,6.77,6.77,6.77,6.77,6.77,6.77,6.77,6.77,6.77,6.77,6.77,6.77,6.77,6.77,6.77,6.77,6.7774,6.7811,6.7847,6.7921,6.8031,6.8288,6.8385,6.8568,6.8678,6.9265,6.9876,7.0279,7.0881,7.1358,7.1798,7.2018,7.2057,7.1809,7.1588,7.1432,7.1338,7.1547,7.1542,7.1494,7.1494,7.1494,7.1494,7.1494,7.1479,7.1463,7.1288,7.1029,7.0733,7.0341,6.9902,6.9614,6.9394,6.9449,6.9632,6.9431,6.9412,6.9394,6.9394,6.9449,6.9522,6.5413,6.5413,6.5413,6.5413,6.549,6.5948,6.698,6.8165,6.889,6.9687,7.0437,7.0435,7.0443,7.0467,7.0435,7.0411,7.0411,7.0411,7.0411,7.0411,7.0411,7.0411,7.0411,7.0411,7.0411,7.0411,7.0411,7.0411,7.0411,7.0411,7.0411,7.0411,7.0411,7.0411,7.0328,7.0109,6.9919,6.971,6.9521,6.9399,6.9416,6.9399,6.9419,6.9388,6.9357,6.9332,6.9241,6.8986,6.8717,6.8493,6.8234,6.7991,6.7754,6.77,6.77,6.77,6.77,6.77,6.77,6.77,6.77,6.77,6.77,6.77,6.77,6.77,6.77,6.77,6.77,6.77,6.7847,6.7958,6.8068,6.8201,6.8531,6.8898,6.9119,6.9339,6.9816,7.044,7.0917,7.1321,7.1798,7.2275,7.2496,7.2422,7.2291,7.2124,7.194,7.1805,7.1608,7.1552,7.1542,7.1494,7.1494,7.1494,7.1494,7.1494,7.1494,7.1463,7.1415,7.1207,7.085,7.0496,7.0149,6.9955,6.9812,6.9866,6.9938,6.974,6.9614,6.9633,6.9669,6.9651,6.9723,6.5413,6.5413,6.5413,6.5413,6.5413,6.5452,6.5987,6.6819,6.8279,6.9464,7.0113,7.0381,7.0411,7.0427,7.0411,7.0411,7.0411,7.0411,7.0411,7.0411,7.0411,7.0411,7.0411,7.0411,7.0411,7.0411,7.0411,7.0411,7.0411,7.0411,7.0411,7.0411,7.0411,7.0411,7.0369,7.017,7.0055,7.0038,6.9816,6.9641,6.972,6.9749,6.9778,6.9758,6.9641,6.9511,6.9399,6.9085,6.8728,6.8505,6.8271,6.7991,6.7794,6.77,6.77,6.77,6.77,6.77,6.77,6.77,6.77,6.77,6.77,6.7847,6.7921,6.7737,6.77,6.8017,6.8091,6.8361,6.8545,6.8765,6.8935,6.9045,6.9265,6.9706,7.0036,7.0367,7.0881,7.1358,7.1541,7.1908,7.2092,7.2532,7.2532,7.2532,7.2467,7.2351,7.2233,7.2084,7.1836,7.1656,7.1562,7.1531,7.1494,7.1494,7.1494,7.1494,7.1494,7.1494,7.1463,7.1207,7.0933,7.0665,7.041,7.0393,7.0359,7.0307,7.0184,7.0062,6.9973,6.9991,6.9956,7.0026,7.0044,6.5413,6.5413,6.5413,6.5413,6.5413,6.5413,6.591,6.6705,6.7095,6.8165,6.9387,7.0067,7.0411,7.0411,7.0411,7.0411,7.0411,7.0411,7.0411,7.0411,7.0411,7.0411,7.0411,7.0411,7.0411,7.0411,7.0411,7.0411,7.0411,7.0411,7.0411,7.0411,7.0411,7.0411,7.0402,7.0205,7.0179,7.0247,7.0252,7.0014,6.9986,6.9873,6.9778,6.9797,6.972,6.9582,6.9402,6.9171,6.8832,6.8541,6.8247,6.7991,6.7727,6.7714,6.77,6.77,6.7714,6.7727,6.77,6.77,6.77,6.7737,6.7811,6.8128,6.8201,6.7884,6.7958,6.8385,6.8715,6.9009,6.9265,6.9559,6.9816,6.9926,7.0,7.0477,7.0881,7.1284,7.1762,7.1908,7.2018,7.2239,7.2386,7.2496,7.2496,7.2532,7.2532,7.2423,7.2307,7.2174,7.1964,7.1749,7.1593,7.1531,7.1546,7.1494,7.1494,7.1494,7.1494,7.1494,7.1494,7.1272,7.1029,7.09,7.0733,7.0733,7.0649,7.0514,7.0428,7.0358,7.0358,7.0357,7.0511,7.0596,7.0547,6.5413,6.5413,6.5413,6.5413,6.5413,6.5413,6.5681,6.6139,6.6514,6.74,6.8631,6.9464,7.0029,7.0334,7.0411,7.0411,7.0411,7.0411,7.0411,7.0411,7.0411,7.0411,7.0411,7.0411,7.0411,7.0411,7.0411,7.0411,7.0411,7.0411,7.0411,7.0411,7.0411,7.0402,7.0394,7.0281,7.0302,7.0402,7.0608,7.0703,7.0485,7.024,6.9938,6.9872,6.9651,6.9491,6.9171,6.893,6.8587,6.8309,6.8068,6.7913,6.7767,6.7847,6.782,6.7781,6.7794,6.7834,6.7791,6.7774,6.7811,6.7884,6.8164,6.8605,6.8788,6.8605,6.9022,6.9412,6.9449,6.9669,6.9926,7.0183,7.0513,7.0683,7.0646,7.0793,7.0734,7.066,7.0881,7.0954,7.1248,7.1711,7.1931,7.2371,7.2422,7.2532,7.2532,7.2475,7.2373,7.2329,7.2069,7.1888,7.1749,7.1656,7.1656,7.1609,7.1494,7.1494,7.1494,7.1494,7.1479,7.1352,7.1191,7.1094,7.1081,7.1097,7.0999,7.085,7.0766,7.075,7.0766,7.0766,7.0913,7.1045,7.0963,6.5413,6.5413,6.5413,6.5413,6.5413,6.5413,6.5528,6.5719,6.6254,6.7133,6.8165,6.8814,6.954,7.0181,7.0411,7.0411,7.0411,7.0411,7.0411,7.0411,7.0411,7.0411,7.0411,7.0411,7.0411,7.0411,7.0411,7.0411,7.0411,7.0411,7.0411,7.0411,7.0411,7.0411,7.0411,7.0563,7.0724,7.0954,7.1264,7.1748,7.1426,7.0856,7.0501,7.0072,6.9569,6.9176,6.8934,6.8611,6.8284,6.8006,6.7926,6.7834,6.786,6.7965,6.8188,6.8199,6.831,6.8357,6.8325,6.8365,6.8265,6.8325,6.8752,6.9082,6.9265,6.9633,7.0073,7.033,7.033,7.0403,7.066,7.0917,7.1233,7.1123,7.105,7.083,7.044,7.0146,7.0146,7.016,7.0587,7.1123,7.16,7.2041,7.2298,7.2422,7.2504,7.2446,7.2402,7.2402,7.2263,7.2129,7.2009,7.1918,7.1832,7.1656,7.151,7.1494,7.1494,7.1494,7.1479,7.1399,7.1384,7.1415,7.1384,7.1356,7.1372,7.1308,7.1207,7.1061,7.1078,7.1078,7.1094,7.1207,7.1272,6.5413,6.5413,6.5413,6.5413,6.5413,6.5413,6.5796,6.6285,6.5872,6.6827,6.8317,6.8363,6.8929,7.0411,7.0411,7.0411,7.0411,7.0411,7.0411,7.0411,7.0411,7.0411,7.0411,7.0411,7.0411,7.0411,7.0411,7.0411,7.064,7.0563,7.0487,7.0602,7.0525,7.0563,7.0602,7.0916,7.1497,7.1726,7.2176,7.275,7.2529,7.2003,7.1515,7.0996,7.0416,6.9862,6.9371,6.8919,6.8504,6.8146,6.7913,6.7936,6.8054,6.8269,6.8541,6.8813,6.8924,6.9202,6.9244,6.9265,6.9196,6.9119,6.9559,6.9889,7.0169,7.0573,7.1013,7.1468,7.1505,7.1454,7.1637,7.1872,7.2092,7.1197,7.0793,7.0367,6.9926,6.9853,6.9816,6.9926,7.0146,7.0683,7.1233,7.1637,7.2041,7.2239,7.2496,7.2475,7.2475,7.2423,7.2423,7.2321,7.2218,7.2024,7.1826,7.1672,7.1526,7.151,7.1494,7.1494,7.1494,7.1494,7.1494,7.1494,7.1494,7.1431,7.1479,7.1494,7.1447,7.132,7.1384,7.1399,7.1384,7.1352,7.1384]}]]